GFSGL_prec_precacc24_075.txt.gz
Total_Precipitation_Accumulation
0.24 0.16 0.12 0.22 0.26 0.65 1.02 1.07 0.93 0.94 1.02 0.92 0.73 0.58 0.58 0.56 0.45 0.32 0.24 0.19 0.14 0.10 0.06 0.04 0.02 0.01 0.00 0.00 0.00 0.00 0.00 0.00 0.00 0.00 0.00 0.00 0.00 0.00 0.00 0.00 0.00 0.00 0.00
0.72 0.90 0.75 0.94 1.01 1.12 1.50 1.45 1.17 1.03 0.89 0.77 0.83 0.75 0.51 0.34 0.26 0.22 0.19 0.12 0.09 0.07 0.04 0.03 0.01 0.01 0.01 0.01 0.00 0.00 0.00 0.00 0.00 0.00 0.00 0.00 0.00 0.00 0.00 0.00 0.00 0.00 0.00
1.19 1.17 0.98 1.27 1.33 1.62 1.45 1.27 1.15 1.05 0.94 0.78 0.61 0.45 0.30 0.23 0.19 0.18 0.16 0.13 0.08 0.05 0.02 0.01 0.00 0.00 0.00 0.00 0.00 0.00 0.00 0.00 0.00 0.00 0.00 0.00 0.00 0.00 0.00 0.00 0.00 0.00 0.00
0.45 0.39 0.56 0.65 0.58 0.59 0.45 0.47 0.39 0.34 0.28 0.21 0.22 0.21 0.20 0.18 0.15 0.15 0.11 0.06 0.03 0.02 0.01 0.00 0.00 0.01 0.00 0.00 0.00 0.00 0.00 0.00 0.00 0.00 0.00 0.00 0.00 0.00 0.00 0.00 0.00 0.00 0.00
0.21 0.25 0.29 0.30 0.29 0.18 0.15 0.15 0.17 0.19 0.19 0.16 0.14 0.12 0.12 0.14 0.16 0.12 0.06 0.03 0.02 0.02 0.01 0.00 0.00 0.01 0.01 0.00 0.00 0.00 0.00 0.00 0.00 0.00 0.00 0.00 0.00 0.00 0.00 0.00 0.01 0.01 0.01
0.17 0.22 0.22 0.22 0.14 0.10 0.10 0.06 0.07 0.09 0.09 0.09 0.11 0.15 0.15 0.10 0.15 0.08 0.03 0.01 0.01 0.01 0.00 0.00 0.00 0.01 0.00 0.00 0.00 0.00 0.00 0.00 0.00 0.01 0.01 0.01 0.00 0.01 0.02 0.03 0.02 0.03 0.02
0.14 0.13 0.12 0.09 0.07 0.04 0.03 0.02 0.02 0.05 0.09 0.15 0.18 0.15 0.08 0.05 0.08 0.02 0.02 0.00 0.00 0.00 0.00 0.00 0.00 0.00 0.00 0.00 0.00 0.00 0.00 0.00 0.00 0.01 0.01 0.01 0.02 0.02 0.04 0.03 0.03 0.04 0.04
0.02 0.03 0.03 0.02 0.01 0.00 0.02 0.04 0.06 0.11 0.17 0.15 0.07 0.03 0.02 0.02 0.02 0.01 0.01 0.00 0.00 0.00 0.00 0.00 0.00 0.00 0.00 0.00 0.00 0.01 0.01 0.02 0.01 0.01 0.02 0.01 0.02 0.02 0.02 0.03 0.03 0.04 0.03
0.00 0.01 0.00 0.00 0.01 0.01 0.06 0.14 0.17 0.11 0.03 0.02 0.01 0.00 0.00 0.00 0.01 0.00 0.00 0.00 0.00 0.00 0.00 0.00 0.00 0.00 0.00 0.00 0.01 0.01 0.01 0.02 0.03 0.05 0.04 0.03 0.01 0.01 0.01 0.02 0.04 0.07 0.06
0.00 0.00 0.00 0.01 0.09 0.15 0.13 0.06 0.01 0.01 0.01 0.00 0.00 0.00 0.00 0.00 0.01 0.00 0.00 0.00 0.00 0.00 0.00 0.00 0.00 0.00 0.00 0.00 0.02 0.03 0.03 0.02 0.04 0.06 0.06 0.03 0.02 0.02 0.03 0.04 0.04 0.10 0.06
0.00 0.02 0.05 0.08 0.05 0.01 0.00 0.00 0.00 0.00 0.00 0.00 0.00 0.00 0.00 0.00 0.00 0.00 0.00 0.00 0.00 0.00 0.00 0.00 0.00 0.00 0.00 0.00 0.01 0.03 0.03 0.02 0.05 0.05 0.05 0.05 0.04 0.02 0.01 0.01 0.02 0.05 0.08
0.01 0.01 0.00 0.00 0.00 0.00 0.00 0.00 0.00 0.00 0.00 0.00 0.00 0.00 0.00 0.00 0.00 0.00 0.00 0.00 0.00 0.00 0.00 0.00 0.00 0.00 0.00 0.00 0.01 0.01 0.01 0.01 0.04 0.07 0.06 0.04 0.05 0.05 0.02 0.01 0.00 0.00 0.02
0.00 0.00 0.00 0.00 0.00 0.00 0.00 0.00 0.00 0.00 0.00 0.00 0.00 0.00 0.00 0.00 0.00 0.00 0.00 0.00 0.00 0.00 0.00 0.01 0.00 0.00 0.02 0.02 0.01 0.01 0.03 0.09 0.13 0.15 0.12 0.07 0.04 0.03 0.04 0.05 0.05 0.03 0.03
0.00 0.00 0.00 0.00 0.00 0.00 0.00 0.00 0.00 0.00 0.00 0.00 0.00 0.00 0.00 0.00 0.00 0.00 0.00 0.00 0.00 0.01 0.01 0.02 0.02 0.03 0.05 0.07 0.07 0.09 0.14 0.15 0.14 0.12 0.08 0.06 0.06 0.08 0.09 0.09 0.14 0.11 0.12
0.00 0.00 0.00 0.00 0.00 0.00 0.00 0.00 0.00 0.00 0.00 0.00 0.00 0.00 0.00 0.01 0.00 0.00 0.01 0.01 0.02 0.03 0.05 0.09 0.09 0.08 0.09 0.09 0.10 0.10 0.11 0.12 0.14 0.11 0.14 0.14 0.16 0.19 0.17 0.12 0.17 0.17 0.15
0.00 0.00 0.00 0.00 0.00 0.00 0.00 0.00 0.00 0.00 0.00 0.00 0.00 0.00 0.00 0.01 0.00 0.00 0.01 0.04 0.06 0.09 0.19 0.18 0.12 0.09 0.09 0.08 0.10 0.08 0.08 0.08 0.07 0.08 0.11 0.11 0.15 0.20 0.25 0.24 0.23 0.21 0.16
0.00 0.00 0.00 0.00 0.00 0.00 0.00 0.00 0.01 0.01 0.00 0.01 0.01 0.01 0.01 0.00 0.00 0.00 0.01 0.04 0.06 0.08 0.16 0.11 0.09 0.09 0.09 0.10 0.12 0.15 0.18 0.17 0.18 0.19 0.19 0.19 0.21 0.22 0.23 0.21 0.19 0.14 0.11
0.00 0.01 0.01 0.02 0.03 0.02 0.01 0.01 0.02 0.04 0.05 0.04 0.02 0.00 0.00 0.01 0.01 0.02 0.02 0.06 0.08 0.06 0.08 0.10 0.11 0.12 0.15 0.18 0.20 0.20 0.18 0.17 0.18 0.15 0.14 0.13 0.14 0.14 0.15 0.15 0.16 0.17 0.14
0.04 0.05 0.05 0.04 0.05 0.07 0.09 0.10 0.07 0.05 0.05 0.04 0.03 0.04 0.03 0.03 0.03 0.02 0.05 0.10 0.12 0.12 0.13 0.12 0.13 0.11 0.09 0.10 0.13 0.15 0.16 0.15 0.15 0.15 0.12 0.11 0.12 0.14 0.12 0.10 0.10 0.08 0.10
0.13 0.15 0.16 0.17 0.17 0.15 0.11 0.08 0.06 0.06 0.05 0.04 0.04 0.05 0.05 0.03 0.01 0.03 0.08 0.12 0.12 0.08 0.05 0.04 0.04 0.07 0.08 0.09 0.10 0.14 0.14 0.12 0.13 0.14 0.15 0.16 0.14 0.14 0.15 0.15 0.15 0.14 0.09
0.27 0.24 0.20 0.17 0.14 0.12 0.10 0.07 0.05 0.05 0.05 0.03 0.03 0.03 0.03 0.04 0.05 0.08 0.11 0.10 0.07 0.06 0.05 0.05 0.05 0.05 0.06 0.08 0.09 0.11 0.12 0.10 0.11 0.12 0.12 0.13 0.16 0.17 0.14 0.15 0.14 0.12 0.10
0.19 0.15 0.11 0.08 0.07 0.06 0.04 0.03 0.03 0.02 0.03 0.03 0.02 0.02 0.01 0.02 0.05 0.08 0.08 0.08 0.08 0.08 0.09 0.10 0.11 0.11 0.11 0.14 0.16 0.16 0.14 0.13 0.15 0.16 0.11 0.11 0.13 0.14 0.15 0.15 0.15 0.15 0.12
0.07 0.05 0.04 0.03 0.02 0.01 0.01 0.01 0.01 0.01 0.01 0.01 0.00 0.01 0.01 0.01 0.03 0.05 0.06 0.06 0.05 0.05 0.05 0.06 0.06 0.05 0.07 0.10 0.14 0.18 0.18 0.13 0.15 0.19 0.18 0.14 0.12 0.13 0.15 0.15 0.15 0.17 0.15
0.01 0.00 0.00 0.00 0.00 0.00 0.00 0.01 0.00 0.00 0.01 0.01 0.01 0.01 0.01 0.01 0.02 0.03 0.03 0.03 0.03 0.02 0.03 0.03 0.03 0.04 0.04 0.06 0.09 0.12 0.14 0.14 0.18 0.20 0.26 0.21 0.13 0.12 0.16 0.16 0.14 0.13 0.13
0.00 0.00 0.00 0.00 0.00 0.01 0.01 0.01 0.01 0.01 0.01 0.01 0.01 0.02 0.01 0.01 0.01 0.01 0.02 0.02 0.02 0.02 0.02 0.02 0.02 0.02 0.03 0.03 0.04 0.06 0.08 0.11 0.18 0.20 0.25 0.20 0.15 0.13 0.15 0.17 0.16 0.15 0.14
0.00 0.00 0.00 0.00 0.01 0.01 0.01 0.01 0.01 0.01 0.01 0.01 0.01 0.01 0.01 0.01 0.01 0.01 0.01 0.01 0.01 0.01 0.01 0.01 0.01 0.01 0.01 0.02 0.03 0.05 0.05 0.05 0.10 0.15 0.24 0.23 0.17 0.14 0.16 0.18 0.18 0.18 0.12

GFSGL_prec_precacc24_078.txt.gz
Total_Precipitation_Accumulation
0.23 0.14 0.10 0.21 0.25 0.65 1.02 1.07 0.93 0.93 1.00 0.83 0.68 0.64 0.68 0.68 0.59 0.44 0.30 0.25 0.23 0.18 0.14 0.12 0.11 0.06 0.02 0.00 0.00 0.00 0.00 0.00 0.00 0.00 0.00 0.00 0.00 0.00 0.00 0.00 0.00 0.00 0.00
0.81 0.92 0.71 0.90 0.94 1.06 1.46 1.43 1.16 1.01 0.84 0.76 0.87 0.79 0.57 0.39 0.29 0.24 0.21 0.15 0.12 0.11 0.10 0.10 0.07 0.04 0.02 0.01 0.01 0.00 0.00 0.00 0.00 0.00 0.00 0.00 0.00 0.00 0.00 0.00 0.00 0.00 0.00
1.20 1.22 0.97 1.24 1.27 1.56 1.42 1.25 1.15 1.05 0.97 0.80 0.64 0.47 0.31 0.23 0.19 0.18 0.16 0.16 0.13 0.12 0.12 0.11 0.09 0.05 0.03 0.02 0.01 0.00 0.00 0.00 0.00 0.00 0.00 0.00 0.00 0.00 0.00 0.00 0.00 0.00 0.00
0.34 0.32 0.57 0.69 0.57 0.60 0.45 0.46 0.41 0.39 0.31 0.24 0.22 0.21 0.21 0.18 0.16 0.16 0.16 0.14 0.13 0.13 0.13 0.09 0.04 0.02 0.01 0.00 0.00 0.00 0.00 0.00 0.00 0.00 0.00 0.00 0.00 0.00 0.00 0.00 0.00 0.00 0.00
0.15 0.19 0.25 0.31 0.34 0.24 0.19 0.17 0.19 0.20 0.25 0.26 0.20 0.16 0.13 0.16 0.18 0.16 0.13 0.11 0.10 0.09 0.08 0.05 0.03 0.04 0.02 0.00 0.00 0.00 0.00 0.00 0.00 0.00 0.00 0.00 0.00 0.00 0.00 0.00 0.01 0.01 0.01
0.15 0.19 0.20 0.22 0.16 0.14 0.13 0.06 0.07 0.13 0.14 0.14 0.16 0.20 0.18 0.14 0.22 0.14 0.08 0.05 0.08 0.07 0.06 0.04 0.04 0.05 0.02 0.01 0.00 0.00 0.00 0.00 0.00 0.01 0.01 0.01 0.00 0.01 0.02 0.03 0.02 0.02 0.02
0.13 0.13 0.12 0.10 0.08 0.05 0.03 0.03 0.03 0.05 0.09 0.17 0.23 0.19 0.12 0.10 0.16 0.08 0.07 0.02 0.02 0.03 0.03 0.02 0.01 0.01 0.01 0.00 0.00 0.00 0.00 0.00 0.00 0.01 0.01 0.01 0.02 0.02 0.04 0.03 0.03 0.03 0.03
0.02 0.04 0.04 0.03 0.01 0.01 0.02 0.03 0.04 0.07 0.16 0.15 0.09 0.05 0.04 0.06 0.08 0.04 0.04 0.01 0.01 0.01 0.01 0.00 0.00 0.00 0.00 0.00 0.00 0.01 0.01 0.02 0.01 0.01 0.02 0.01 0.02 0.02 0.02 0.03 0.03 0.04 0.03
0.00 0.01 0.02 0.02 0.01 0.01 0.04 0.09 0.12 0.12 0.07 0.03 0.03 0.03 0.03 0.04 0.04 0.02 0.01 0.00 0.00 0.00 0.00 0.00 0.00 0.00 0.00 0.00 0.01 0.01 0.01 0.02 0.03 0.05 0.04 0.03 0.01 0.01 0.01 0.02 0.04 0.08 0.07
0.00 0.00 0.00 0.01 0.04 0.06 0.07 0.05 0.04 0.05 0.04 0.03 0.04 0.03 0.03 0.02 0.04 0.02 0.01 0.00 0.00 0.00 0.00 0.00 0.00 0.00 0.00 0.00 0.02 0.03 0.03 0.02 0.04 0.06 0.06 0.03 0.02 0.02 0.03 0.04 0.05 0.10 0.07
0.00 0.01 0.01 0.03 0.02 0.02 0.03 0.04 0.04 0.03 0.02 0.02 0.02 0.01 0.01 0.01 0.02 0.01 0.00 0.00 0.00 0.00 0.00 0.00 0.00 0.00 0.00 0.00 0.01 0.03 0.03 0.02 0.05 0.05 0.05 0.05 0.04 0.02 0.01 0.01 0.02 0.05 0.09
0.00 0.00 0.01 0.01 0.01 0.02 0.02 0.03 0.02 0.02 0.01 0.01 0.01 0.01 0.01 0.00 0.01 0.01 0.00 0.00 0.00 0.00 0.00 0.00 0.00 0.00 0.00 0.00 0.01 0.01 0.01 0.01 0.04 0.07 0.06 0.04 0.05 0.05 0.02 0.01 0.00 0.00 0.03
0.00 0.00 0.00 0.01 0.01 0.01 0.01 0.01 0.01 0.01 0.01 0.01 0.00 0.00 0.00 0.00 0.00 0.00 0.00 0.00 0.00 0.00 0.00 0.01 0.00 0.00 0.01 0.01 0.01 0.01 0.03 0.09 0.12 0.14 0.12 0.07 0.04 0.03 0.04 0.05 0.05 0.03 0.03
0.00 0.00 0.00 0.00 0.00 0.00 0.00 0.00 0.00 0.00 0.00 0.00 0.00 0.00 0.00 0.00 0.00 0.00 0.00 0.00 0.00 0.01 0.02 0.02 0.02 0.03 0.03 0.04 0.06 0.08 0.13 0.15 0.13 0.12 0.08 0.06 0.06 0.08 0.09 0.09 0.14 0.11 0.12
0.00 0.00 0.00 0.00 0.00 0.00 0.00 0.00 0.00 0.00 0.00 0.00 0.00 0.01 0.02 0.02 0.01 0.00 0.01 0.01 0.02 0.02 0.04 0.09 0.08 0.06 0.06 0.06 0.07 0.08 0.09 0.11 0.13 0.11 0.14 0.14 0.16 0.19 0.17 0.12 0.17 0.17 0.15
0.00 0.00 0.00 0.00 0.00 0.00 0.00 0.00 0.01 0.02 0.03 0.03 0.04 0.03 0.03 0.02 0.01 0.00 0.00 0.00 0.00 0.01 0.07 0.13 0.11 0.09 0.08 0.07 0.08 0.07 0.07 0.07 0.06 0.08 0.11 0.11 0.15 0.20 0.25 0.24 0.23 0.21 0.16
0.01 0.02 0.03 0.04 0.03 0.03 0.03 0.05 0.06 0.05 0.02 0.01 0.01 0.01 0.01 0.00 0.00 0.00 0.00 0.00 0.01 0.01 0.05 0.08 0.09 0.09 0.09 0.09 0.10 0.14 0.17 0.17 0.18 0.19 0.19 0.19 0.21 0.22 0.23 0.21 0.19 0.15 0.11
0.01 0.03 0.02 0.03 0.04 0.04 0.03 0.02 0.03 0.05 0.07 0.07 0.04 0.02 0.03 0.05 0.05 0.05 0.05 0.05 0.05 0.04 0.05 0.08 0.11 0.13 0.15 0.17 0.18 0.18 0.17 0.16 0.18 0.15 0.14 0.13 0.14 0.14 0.15 0.15 0.16 0.17 0.15
0.06 0.09 0.10 0.09 0.09 0.10 0.11 0.11 0.10 0.08 0.07 0.07 0.08 0.09 0.08 0.06 0.06 0.05 0.04 0.05 0.08 0.11 0.14 0.15 0.15 0.13 0.10 0.08 0.10 0.12 0.14 0.15 0.15 0.15 0.12 0.11 0.12 0.14 0.13 0.10 0.10 0.08 0.10
0.18 0.20 0.19 0.19 0.19 0.16 0.12 0.10 0.07 0.07 0.07 0.06 0.07 0.07 0.06 0.04 0.02 0.02 0.02 0.03 0.07 0.08 0.06 0.04 0.04 0.04 0.05 0.06 0.08 0.10 0.11 0.11 0.13 0.14 0.16 0.16 0.14 0.14 0.15 0.15 0.15 0.14 0.09
0.31 0.27 0.22 0.18 0.15 0.13 0.10 0.07 0.05 0.05 0.05 0.04 0.04 0.04 0.03 0.02 0.03 0.03 0.03 0.03 0.03 0.04 0.04 0.04 0.04 0.04 0.04 0.06 0.07 0.08 0.08 0.09 0.10 0.13 0.12 0.13 0.16 0.17 0.14 0.15 0.15 0.12 0.10
0.21 0.16 0.11 0.09 0.07 0.06 0.05 0.03 0.03 0.03 0.03 0.03 0.03 0.02 0.01 0.01 0.01 0.01 0.01 0.02 0.03 0.05 0.06 0.06 0.05 0.06 0.07 0.08 0.10 0.11 0.11 0.11 0.14 0.15 0.11 0.11 0.13 0.14 0.15 0.15 0.15 0.15 0.12
0.07 0.05 0.04 0.03 0.03 0.01 0.01 0.01 0.01 0.01 0.01 0.01 0.00 0.00 0.01 0.01 0.01 0.01 0.01 0.02 0.02 0.03 0.04 0.05 0.04 0.04 0.04 0.05 0.07 0.11 0.14 0.11 0.13 0.16 0.17 0.14 0.12 0.13 0.15 0.15 0.15 0.17 0.15
0.01 0.00 0.00 0.00 0.00 0.00 0.00 0.01 0.00 0.00 0.01 0.01 0.01 0.01 0.01 0.01 0.01 0.01 0.01 0.01 0.01 0.01 0.02 0.03 0.03 0.02 0.02 0.03 0.04 0.06 0.08 0.10 0.14 0.15 0.22 0.19 0.12 0.11 0.16 0.16 0.14 0.14 0.14
0.00 0.00 0.00 0.00 0.00 0.01 0.01 0.01 0.01 0.01 0.01 0.01 0.01 0.01 0.01 0.01 0.01 0.01 0.01 0.01 0.01 0.01 0.01 0.01 0.02 0.02 0.02 0.02 0.02 0.03 0.05 0.08 0.12 0.15 0.19 0.17 0.14 0.12 0.16 0.17 0.16 0.16 0.14
0.00 0.00 0.00 0.00 0.01 0.01 0.01 0.01 0.01 0.01 0.01 0.01 0.01 0.01 0.01 0.01 0.01 0.01 0.01 0.01 0.01 0.01 0.01 0.01 0.01 0.01 0.01 0.01 0.02 0.02 0.03 0.03 0.05 0.10 0.18 0.19 0.16 0.13 0.16 0.18 0.18 0.19 0.13

GFSGL_prec_precacc24_081.txt.gz
Total_Precipitation_Accumulation
0.19 0.08 0.03 0.13 0.20 0.61 0.98 1.04 0.92 0.91 0.97 0.82 0.66 0.61 0.66 0.69 0.62 0.48 0.36 0.32 0.30 0.24 0.19 0.17 0.20 0.26 0.28 0.27 0.21 0.11 0.06 0.00 0.00 0.00 0.00 0.00 0.00 0.00 0.00 0.00 0.00 0.00 0.00
0.78 0.85 0.61 0.78 0.82 0.94 1.37 1.38 1.11 0.95 0.79 0.75 0.85 0.75 0.53 0.39 0.32 0.27 0.26 0.19 0.19 0.22 0.22 0.19 0.17 0.17 0.19 0.21 0.14 0.05 0.02 0.01 0.00 0.00 0.00 0.00 0.00 0.00 0.00 0.00 0.00 0.00 0.00
1.17 1.23 0.90 1.13 1.16 1.46 1.33 1.17 1.03 0.92 0.94 0.79 0.60 0.42 0.29 0.22 0.20 0.20 0.18 0.16 0.13 0.13 0.12 0.15 0.16 0.15 0.12 0.09 0.06 0.04 0.02 0.01 0.00 0.00 0.00 0.00 0.00 0.00 0.00 0.00 0.00 0.00 0.00
0.32 0.28 0.48 0.58 0.46 0.49 0.38 0.41 0.37 0.36 0.31 0.24 0.21 0.19 0.20 0.20 0.18 0.18 0.16 0.15 0.14 0.13 0.14 0.13 0.10 0.08 0.06 0.06 0.04 0.03 0.02 0.01 0.00 0.00 0.00 0.00 0.00 0.00 0.00 0.00 0.00 0.00 0.00
0.11 0.16 0.22 0.27 0.31 0.22 0.19 0.20 0.22 0.20 0.21 0.21 0.21 0.19 0.18 0.18 0.20 0.18 0.14 0.11 0.10 0.11 0.11 0.09 0.07 0.10 0.09 0.05 0.03 0.01 0.00 0.00 0.00 0.00 0.00 0.00 0.00 0.00 0.00 0.00 0.01 0.01 0.01
0.14 0.18 0.19 0.22 0.17 0.15 0.15 0.09 0.09 0.12 0.13 0.13 0.15 0.18 0.18 0.17 0.29 0.18 0.10 0.06 0.08 0.09 0.08 0.07 0.07 0.10 0.05 0.05 0.03 0.02 0.01 0.01 0.00 0.01 0.01 0.01 0.00 0.01 0.02 0.03 0.02 0.02 0.02
0.13 0.13 0.12 0.10 0.07 0.05 0.04 0.03 0.03 0.06 0.09 0.14 0.16 0.16 0.12 0.12 0.23 0.12 0.09 0.03 0.03 0.04 0.04 0.03 0.02 0.03 0.04 0.01 0.01 0.01 0.01 0.00 0.00 0.01 0.01 0.01 0.02 0.02 0.04 0.03 0.03 0.03 0.03
0.02 0.04 0.04 0.03 0.01 0.01 0.02 0.02 0.03 0.04 0.07 0.08 0.08 0.06 0.06 0.10 0.13 0.06 0.06 0.01 0.02 0.03 0.04 0.04 0.04 0.03 0.02 0.02 0.01 0.01 0.01 0.02 0.01 0.01 0.02 0.01 0.02 0.02 0.02 0.03 0.03 0.04 0.03
0.00 0.01 0.02 0.02 0.02 0.02 0.02 0.04 0.05 0.05 0.06 0.04 0.04 0.04 0.05 0.06 0.09 0.05 0.03 0.01 0.02 0.01 0.01 0.01 0.01 0.01 0.01 0.01 0.01 0.01 0.01 0.02 0.03 0.05 0.04 0.03 0.01 0.01 0.01 0.02 0.04 0.08 0.07
0.00 0.00 0.00 0.01 0.03 0.04 0.04 0.04 0.04 0.05 0.05 0.05 0.07 0.07 0.08 0.04 0.09 0.04 0.02 0.00 0.01 0.01 0.00 0.00 0.01 0.00 0.00 0.00 0.02 0.03 0.03 0.02 0.04 0.06 0.06 0.03 0.02 0.02 0.03 0.04 0.05 0.11 0.07
0.00 0.01 0.01 0.02 0.02 0.03 0.03 0.04 0.05 0.05 0.05 0.05 0.05 0.04 0.04 0.04 0.05 0.04 0.02 0.00 0.00 0.00 0.00 0.00 0.00 0.00 0.00 0.00 0.01 0.03 0.03 0.02 0.05 0.05 0.05 0.05 0.04 0.02 0.01 0.01 0.02 0.05 0.09
0.00 0.01 0.01 0.02 0.01 0.02 0.03 0.04 0.04 0.04 0.04 0.04 0.03 0.03 0.03 0.02 0.04 0.03 0.01 0.00 0.00 0.00 0.00 0.00 0.00 0.00 0.00 0.00 0.01 0.01 0.01 0.01 0.04 0.07 0.06 0.04 0.05 0.05 0.02 0.01 0.00 0.00 0.03
0.01 0.01 0.01 0.01 0.01 0.02 0.02 0.03 0.03 0.03 0.02 0.02 0.02 0.02 0.01 0.01 0.02 0.02 0.00 0.00 0.00 0.00 0.00 0.01 0.00 0.00 0.01 0.01 0.01 0.01 0.02 0.07 0.11 0.14 0.11 0.07 0.04 0.03 0.04 0.05 0.05 0.03 0.03
0.00 0.00 0.00 0.01 0.01 0.01 0.01 0.01 0.01 0.01 0.02 0.01 0.01 0.01 0.01 0.00 0.00 0.01 0.02 0.02 0.01 0.01 0.01 0.01 0.01 0.01 0.02 0.04 0.05 0.06 0.09 0.13 0.12 0.11 0.08 0.06 0.06 0.08 0.09 0.09 0.14 0.11 0.12
0.00 0.00 0.00 0.00 0.00 0.00 0.00 0.00 0.00 0.00 0.00 0.01 0.02 0.04 0.05 0.06 0.06 0.04 0.03 0.01 0.01 0.01 0.01 0.02 0.02 0.02 0.04 0.04 0.05 0.07 0.07 0.07 0.10 0.10 0.13 0.14 0.16 0.19 0.17 0.12 0.17 0.17 0.15
0.00 0.00 0.00 0.00 0.00 0.00 0.00 0.02 0.06 0.08 0.10 0.09 0.10 0.08 0.07 0.04 0.03 0.01 0.00 0.00 0.00 0.00 0.01 0.02 0.03 0.04 0.04 0.05 0.08 0.07 0.06 0.05 0.05 0.07 0.10 0.11 0.15 0.20 0.25 0.24 0.23 0.21 0.16
0.01 0.02 0.04 0.04 0.04 0.04 0.05 0.07 0.09 0.08 0.03 0.02 0.02 0.01 0.01 0.00 0.00 0.00 0.00 0.00 0.01 0.00 0.02 0.02 0.03 0.04 0.05 0.06 0.10 0.13 0.17 0.17 0.17 0.17 0.19 0.19 0.21 0.22 0.23 0.21 0.19 0.15 0.11
0.05 0.07 0.04 0.04 0.05 0.05 0.05 0.04 0.04 0.05 0.07 0.07 0.05 0.02 0.03 0.05 0.06 0.06 0.05 0.05 0.05 0.04 0.03 0.05 0.07 0.10 0.13 0.17 0.18 0.18 0.16 0.14 0.15 0.14 0.14 0.13 0.14 0.14 0.15 0.15 0.16 0.17 0.15
0.12 0.15 0.15 0.13 0.13 0.12 0.12 0.12 0.10 0.08 0.07 0.08 0.09 0.10 0.09 0.07 0.06 0.05 0.04 0.04 0.05 0.05 0.05 0.05 0.07 0.09 0.09 0.09 0.09 0.09 0.09 0.11 0.12 0.14 0.11 0.11 0.12 0.14 0.13 0.10 0.10 0.08 0.10
0.23 0.26 0.22 0.21 0.21 0.17 0.13 0.10 0.07 0.06 0.07 0.07 0.07 0.08 0.07 0.04 0.02 0.02 0.02 0.02 0.02 0.03 0.02 0.02 0.03 0.03 0.04 0.05 0.06 0.08 0.08 0.08 0.11 0.14 0.15 0.16 0.14 0.15 0.16 0.15 0.15 0.14 0.09
0.34 0.30 0.24 0.18 0.15 0.13 0.11 0.07 0.05 0.05 0.05 0.04 0.04 0.04 0.03 0.02 0.03 0.03 0.03 0.02 0.01 0.02 0.02 0.02 0.02 0.02 0.03 0.04 0.05 0.05 0.06 0.06 0.08 0.12 0.11 0.13 0.16 0.17 0.15 0.16 0.15 0.13 0.10
0.22 0.17 0.12 0.09 0.07 0.06 0.05 0.03 0.03 0.03 0.03 0.03 0.03 0.02 0.01 0.01 0.01 0.01 0.01 0.01 0.01 0.01 0.02 0.02 0.02 0.03 0.04 0.04 0.05 0.06 0.07 0.08 0.11 0.13 0.10 0.10 0.13 0.14 0.15 0.15 0.16 0.16 0.13
0.08 0.06 0.04 0.03 0.03 0.01 0.01 0.01 0.01 0.01 0.01 0.01 0.00 0.00 0.01 0.01 0.01 0.01 0.01 0.01 0.01 0.01 0.01 0.01 0.01 0.02 0.03 0.04 0.05 0.06 0.08 0.07 0.09 0.12 0.13 0.12 0.12 0.13 0.15 0.16 0.16 0.18 0.16
0.01 0.00 0.00 0.00 0.00 0.00 0.00 0.01 0.00 0.00 0.01 0.01 0.01 0.01 0.01 0.01 0.01 0.01 0.01 0.01 0.01 0.00 0.01 0.01 0.01 0.01 0.01 0.03 0.03 0.04 0.04 0.04 0.07 0.10 0.16 0.15 0.11 0.11 0.16 0.16 0.15 0.14 0.14
0.00 0.00 0.00 0.00 0.00 0.01 0.01 0.01 0.01 0.01 0.01 0.01 0.01 0.01 0.01 0.01 0.01 0.01 0.01 0.01 0.01 0.01 0.01 0.00 0.00 0.01 0.01 0.02 0.02 0.02 0.03 0.04 0.07 0.09 0.13 0.13 0.11 0.10 0.14 0.17 0.16 0.16 0.14
0.00 0.00 0.00 0.00 0.01 0.01 0.01 0.01 0.01 0.01 0.01 0.01 0.01 0.01 0.01 0.01 0.01 0.01 0.01 0.01 0.01 0.01 0.01 0.00 0.00 0.00 0.01 0.01 0.02 0.02 0.02 0.02 0.03 0.08 0.14 0.13 0.12 0.10 0.13 0.17 0.18 0.19 0.13

GFSGL_prec_precacc24_084.txt.gz
Total_Precipitation_Accumulation
0.19 0.08 0.02 0.09 0.15 0.56 0.94 1.01 0.89 0.89 0.94 0.78 0.64 0.57 0.60 0.62 0.57 0.46 0.34 0.30 0.29 0.26 0.21 0.22 0.28 0.40 0.50 0.48 0.42 0.34 0.29 0.23 0.15 0.06 0.02 0.00 0.00 0.00 0.00 0.00 0.00 0.00 0.00
0.78 0.84 0.59 0.74 0.78 0.89 1.32 1.35 1.09 0.94 0.75 0.66 0.66 0.60 0.50 0.36 0.28 0.22 0.20 0.19 0.22 0.25 0.25 0.27 0.28 0.28 0.28 0.26 0.23 0.17 0.14 0.11 0.07 0.05 0.02 0.01 0.00 0.00 0.00 0.00 0.00 0.00 0.00
1.19 1.23 0.89 1.10 1.13 1.42 1.29 1.12 0.90 0.60 0.45 0.39 0.38 0.33 0.26 0.19 0.14 0.15 0.16 0.17 0.15 0.14 0.13 0.15 0.16 0.16 0.12 0.10 0.09 0.08 0.07 0.06 0.04 0.05 0.04 0.03 0.01 0.00 0.00 0.00 0.00 0.00 0.00
0.31 0.28 0.48 0.55 0.44 0.46 0.34 0.33 0.24 0.24 0.22 0.20 0.20 0.16 0.12 0.10 0.12 0.17 0.16 0.15 0.14 0.14 0.14 0.13 0.10 0.08 0.07 0.07 0.07 0.07 0.06 0.06 0.06 0.07 0.05 0.03 0.01 0.00 0.00 0.00 0.00 0.00 0.00
0.10 0.15 0.21 0.27 0.30 0.22 0.19 0.18 0.21 0.20 0.21 0.21 0.19 0.15 0.14 0.14 0.18 0.19 0.14 0.12 0.12 0.12 0.12 0.10 0.08 0.13 0.12 0.07 0.05 0.05 0.07 0.05 0.03 0.03 0.03 0.02 0.00 0.00 0.00 0.00 0.01 0.01 0.01
0.13 0.17 0.19 0.22 0.17 0.15 0.15 0.09 0.09 0.13 0.14 0.14 0.13 0.14 0.13 0.14 0.28 0.20 0.13 0.08 0.11 0.12 0.12 0.10 0.10 0.15 0.08 0.09 0.07 0.06 0.04 0.03 0.01 0.02 0.02 0.02 0.01 0.01 0.02 0.03 0.02 0.02 0.02
0.13 0.13 0.12 0.10 0.07 0.05 0.04 0.03 0.04 0.09 0.12 0.13 0.12 0.11 0.10 0.12 0.26 0.16 0.16 0.06 0.05 0.07 0.07 0.06 0.04 0.05 0.07 0.02 0.03 0.02 0.02 0.02 0.01 0.01 0.01 0.01 0.02 0.02 0.04 0.03 0.03 0.03 0.03
0.02 0.04 0.04 0.03 0.01 0.02 0.02 0.02 0.03 0.03 0.04 0.05 0.06 0.07 0.07 0.14 0.19 0.09 0.09 0.03 0.03 0.05 0.06 0.05 0.06 0.05 0.05 0.04 0.02 0.02 0.02 0.02 0.02 0.01 0.02 0.01 0.02 0.02 0.02 0.03 0.03 0.04 0.03
0.00 0.01 0.02 0.02 0.02 0.02 0.02 0.03 0.04 0.05 0.06 0.05 0.05 0.05 0.05 0.08 0.12 0.07 0.05 0.01 0.03 0.04 0.04 0.04 0.04 0.02 0.05 0.03 0.02 0.02 0.01 0.02 0.03 0.05 0.04 0.03 0.01 0.01 0.01 0.02 0.04 0.07 0.07
0.00 0.00 0.00 0.01 0.03 0.04 0.04 0.04 0.05 0.06 0.06 0.05 0.08 0.08 0.10 0.05 0.12 0.06 0.04 0.00 0.01 0.01 0.02 0.02 0.03 0.01 0.01 0.01 0.02 0.03 0.03 0.02 0.04 0.06 0.06 0.03 0.02 0.02 0.03 0.04 0.05 0.10 0.07
0.00 0.01 0.01 0.02 0.02 0.03 0.04 0.05 0.05 0.05 0.05 0.06 0.06 0.05 0.06 0.07 0.09 0.07 0.04 0.01 0.00 0.00 0.00 0.00 0.00 0.01 0.00 0.00 0.01 0.02 0.02 0.02 0.04 0.05 0.05 0.05 0.04 0.02 0.01 0.01 0.02 0.05 0.09
0.00 0.01 0.01 0.02 0.01 0.02 0.03 0.04 0.04 0.04 0.04 0.05 0.05 0.05 0.05 0.04 0.07 0.04 0.02 0.01 0.00 0.00 0.00 0.00 0.00 0.00 0.00 0.00 0.00 0.00 0.00 0.01 0.03 0.06 0.06 0.04 0.05 0.05 0.02 0.01 0.00 0.00 0.03
0.01 0.01 0.01 0.01 0.01 0.02 0.02 0.03 0.03 0.03 0.03 0.03 0.03 0.04 0.02 0.02 0.03 0.04 0.01 0.00 0.00 0.00 0.00 0.00 0.00 0.00 0.00 0.00 0.00 0.00 0.01 0.04 0.08 0.10 0.10 0.07 0.04 0.03 0.03 0.05 0.05 0.03 0.03
0.00 0.00 0.00 0.01 0.01 0.01 0.01 0.01 0.02 0.02 0.02 0.02 0.01 0.02 0.01 0.01 0.02 0.03 0.05 0.04 0.02 0.01 0.01 0.00 0.00 0.00 0.00 0.00 0.00 0.01 0.02 0.04 0.07 0.09 0.07 0.05 0.06 0.07 0.09 0.09 0.13 0.11 0.12
0.00 0.00 0.00 0.00 0.00 0.00 0.00 0.01 0.01 0.01 0.02 0.02 0.04 0.08 0.09 0.11 0.11 0.08 0.05 0.02 0.01 0.01 0.00 0.01 0.01 0.01 0.01 0.01 0.01 0.02 0.03 0.04 0.06 0.08 0.11 0.12 0.15 0.18 0.17 0.12 0.16 0.17 0.15
0.00 0.00 0.00 0.00 0.00 0.00 0.00 0.03 0.11 0.13 0.14 0.14 0.14 0.11 0.10 0.06 0.03 0.01 0.00 0.00 0.00 0.00 0.00 0.01 0.02 0.02 0.02 0.02 0.03 0.03 0.04 0.05 0.05 0.06 0.08 0.09 0.13 0.19 0.24 0.23 0.23 0.20 0.16
0.04 0.05 0.08 0.10 0.10 0.10 0.11 0.12 0.16 0.16 0.08 0.04 0.03 0.02 0.01 0.01 0.00 0.00 0.00 0.01 0.01 0.00 0.01 0.01 0.01 0.02 0.03 0.03 0.04 0.07 0.12 0.16 0.17 0.16 0.18 0.18 0.20 0.20 0.22 0.20 0.18 0.14 0.10
0.35 0.35 0.29 0.26 0.22 0.17 0.12 0.09 0.08 0.09 0.09 0.09 0.06 0.03 0.04 0.06 0.06 0.06 0.05 0.05 0.05 0.03 0.02 0.02 0.02 0.03 0.03 0.05 0.10 0.15 0.14 0.13 0.13 0.12 0.12 0.11 0.12 0.13 0.14 0.15 0.16 0.17 0.14
0.30 0.32 0.27 0.21 0.18 0.15 0.14 0.13 0.10 0.08 0.08 0.09 0.09 0.10 0.09 0.07 0.06 0.05 0.04 0.04 0.04 0.05 0.05 0.05 0.04 0.04 0.03 0.03 0.04 0.06 0.08 0.08 0.09 0.10 0.09 0.09 0.10 0.13 0.12 0.10 0.10 0.08 0.10
0.33 0.34 0.28 0.26 0.24 0.18 0.13 0.10 0.08 0.07 0.07 0.07 0.08 0.09 0.07 0.04 0.02 0.02 0.02 0.02 0.02 0.03 0.02 0.01 0.01 0.01 0.02 0.02 0.03 0.04 0.04 0.06 0.09 0.12 0.14 0.13 0.12 0.14 0.15 0.15 0.15 0.14 0.09
0.43 0.38 0.28 0.20 0.16 0.14 0.11 0.08 0.06 0.05 0.05 0.05 0.04 0.04 0.03 0.02 0.03 0.03 0.03 0.02 0.01 0.01 0.01 0.02 0.02 0.01 0.01 0.02 0.03 0.03 0.04 0.04 0.06 0.10 0.10 0.10 0.14 0.16 0.15 0.15 0.15 0.13 0.11
0.25 0.19 0.13 0.10 0.08 0.07 0.05 0.03 0.03 0.03 0.03 0.03 0.03 0.02 0.01 0.01 0.01 0.01 0.01 0.01 0.01 0.01 0.01 0.01 0.01 0.01 0.01 0.02 0.02 0.03 0.04 0.05 0.06 0.08 0.06 0.06 0.10 0.13 0.15 0.15 0.15 0.15 0.13
0.09 0.07 0.05 0.03 0.03 0.01 0.01 0.01 0.01 0.01 0.01 0.01 0.01 0.01 0.01 0.01 0.01 0.01 0.01 0.01 0.01 0.00 0.00 0.01 0.01 0.01 0.01 0.01 0.02 0.04 0.06 0.05 0.06 0.06 0.07 0.07 0.09 0.12 0.15 0.16 0.16 0.18 0.16
0.01 0.00 0.00 0.00 0.00 0.00 0.00 0.01 0.00 0.00 0.01 0.01 0.01 0.01 0.01 0.01 0.01 0.01 0.01 0.00 0.00 0.00 0.00 0.01 0.01 0.00 0.00 0.01 0.01 0.02 0.02 0.03 0.05 0.07 0.10 0.09 0.07 0.09 0.14 0.15 0.14 0.15 0.15
0.00 0.00 0.00 0.00 0.00 0.01 0.01 0.01 0.01 0.01 0.01 0.01 0.01 0.01 0.01 0.01 0.00 0.00 0.00 0.00 0.00 0.00 0.00 0.00 0.00 0.01 0.01 0.00 0.00 0.01 0.02 0.04 0.05 0.05 0.07 0.07 0.07 0.08 0.12 0.15 0.15 0.16 0.15
0.00 0.00 0.00 0.00 0.01 0.01 0.01 0.01 0.01 0.01 0.01 0.01 0.01 0.01 0.01 0.01 0.00 0.00 0.00 0.00 0.01 0.01 0.00 0.00 0.00 0.00 0.00 0.00 0.00 0.01 0.01 0.02 0.03 0.05 0.09 0.08 0.07 0.07 0.11 0.14 0.16 0.19 0.13

GFSGL_prec_precacc24_087.txt.gz
Total_Precipitation_Accumulation
0.19 0.07 0.01 0.05 0.12 0.52 0.87 0.94 0.85 0.86 0.91 0.75 0.63 0.54 0.48 0.50 0.50 0.43 0.30 0.25 0.25 0.24 0.23 0.24 0.30 0.42 0.53 0.52 0.48 0.44 0.40 0.38 0.33 0.17 0.07 0.04 0.01 0.00 0.00 0.00 0.00 0.00 0.00
0.78 0.84 0.58 0.74 0.77 0.87 1.28 1.32 1.07 0.93 0.75 0.62 0.51 0.32 0.29 0.25 0.20 0.16 0.16 0.15 0.18 0.24 0.26 0.31 0.30 0.29 0.29 0.27 0.25 0.19 0.16 0.15 0.16 0.12 0.06 0.03 0.03 0.02 0.02 0.01 0.00 0.00 0.00
1.19 1.23 0.89 1.10 1.12 1.41 1.28 1.11 0.89 0.59 0.37 0.21 0.15 0.15 0.14 0.12 0.09 0.09 0.09 0.11 0.12 0.14 0.14 0.16 0.17 0.16 0.13 0.11 0.10 0.10 0.10 0.10 0.09 0.11 0.13 0.13 0.09 0.08 0.06 0.03 0.01 0.00 0.00
0.31 0.28 0.47 0.53 0.43 0.45 0.33 0.33 0.23 0.23 0.20 0.18 0.17 0.14 0.11 0.09 0.09 0.11 0.11 0.13 0.14 0.14 0.14 0.13 0.10 0.08 0.07 0.08 0.09 0.10 0.11 0.12 0.13 0.15 0.12 0.09 0.08 0.06 0.04 0.02 0.02 0.00 0.00
0.09 0.13 0.17 0.25 0.28 0.21 0.18 0.18 0.20 0.19 0.21 0.21 0.19 0.15 0.13 0.13 0.14 0.14 0.12 0.12 0.12 0.12 0.12 0.11 0.10 0.17 0.16 0.10 0.07 0.06 0.08 0.07 0.08 0.08 0.06 0.04 0.03 0.04 0.02 0.01 0.02 0.01 0.01
0.11 0.11 0.13 0.17 0.16 0.15 0.15 0.09 0.09 0.12 0.14 0.14 0.13 0.13 0.11 0.12 0.26 0.19 0.13 0.09 0.11 0.13 0.13 0.12 0.15 0.23 0.12 0.15 0.09 0.09 0.06 0.04 0.03 0.03 0.02 0.03 0.02 0.02 0.02 0.03 0.03 0.02 0.02
0.10 0.12 0.11 0.09 0.07 0.05 0.04 0.03 0.04 0.09 0.12 0.14 0.11 0.10 0.10 0.13 0.27 0.16 0.16 0.07 0.06 0.08 0.08 0.08 0.07 0.09 0.14 0.04 0.06 0.06 0.05 0.07 0.05 0.04 0.04 0.02 0.02 0.02 0.03 0.02 0.03 0.03 0.03
0.02 0.04 0.04 0.03 0.01 0.02 0.02 0.02 0.03 0.03 0.05 0.06 0.07 0.07 0.08 0.15 0.21 0.12 0.11 0.03 0.03 0.05 0.08 0.08 0.09 0.09 0.11 0.09 0.03 0.02 0.03 0.03 0.04 0.03 0.03 0.02 0.02 0.02 0.02 0.03 0.03 0.04 0.03
0.00 0.01 0.02 0.02 0.02 0.02 0.02 0.03 0.04 0.05 0.06 0.05 0.05 0.05 0.06 0.09 0.14 0.09 0.06 0.01 0.03 0.04 0.06 0.08 0.09 0.07 0.16 0.08 0.02 0.02 0.01 0.01 0.01 0.04 0.04 0.03 0.01 0.01 0.02 0.03 0.04 0.07 0.06
0.00 0.00 0.00 0.01 0.03 0.04 0.04 0.04 0.05 0.06 0.06 0.06 0.08 0.08 0.12 0.06 0.14 0.07 0.04 0.00 0.01 0.02 0.04 0.07 0.11 0.04 0.04 0.02 0.01 0.00 0.00 0.00 0.00 0.02 0.04 0.03 0.03 0.03 0.03 0.04 0.05 0.10 0.07
0.00 0.01 0.01 0.02 0.02 0.03 0.04 0.05 0.05 0.05 0.06 0.07 0.07 0.06 0.06 0.08 0.10 0.09 0.05 0.01 0.00 0.01 0.01 0.01 0.02 0.03 0.01 0.00 0.00 0.00 0.00 0.00 0.00 0.01 0.03 0.04 0.03 0.02 0.01 0.01 0.02 0.05 0.09
0.00 0.01 0.01 0.02 0.01 0.02 0.03 0.04 0.05 0.05 0.05 0.05 0.05 0.05 0.05 0.05 0.10 0.07 0.04 0.02 0.01 0.00 0.00 0.00 0.00 0.00 0.00 0.00 0.00 0.00 0.00 0.00 0.00 0.02 0.02 0.02 0.04 0.05 0.02 0.01 0.00 0.00 0.03
0.01 0.01 0.01 0.01 0.02 0.03 0.04 0.05 0.04 0.04 0.04 0.03 0.03 0.04 0.03 0.02 0.05 0.07 0.02 0.01 0.00 0.00 0.00 0.00 0.00 0.00 0.00 0.00 0.00 0.00 0.00 0.00 0.01 0.01 0.03 0.04 0.03 0.03 0.03 0.05 0.05 0.03 0.03
0.00 0.01 0.02 0.04 0.05 0.04 0.03 0.03 0.03 0.02 0.02 0.02 0.02 0.02 0.01 0.01 0.02 0.05 0.07 0.06 0.03 0.02 0.01 0.01 0.00 0.00 0.00 0.00 0.00 0.00 0.00 0.00 0.01 0.03 0.03 0.02 0.03 0.06 0.08 0.08 0.13 0.11 0.11
0.03 0.04 0.04 0.04 0.03 0.01 0.02 0.04 0.03 0.03 0.05 0.03 0.05 0.09 0.11 0.13 0.15 0.11 0.07 0.04 0.02 0.01 0.00 0.00 0.00 0.00 0.00 0.00 0.00 0.00 0.01 0.01 0.01 0.02 0.03 0.06 0.11 0.15 0.15 0.11 0.15 0.16 0.14
0.04 0.03 0.03 0.02 0.01 0.00 0.01 0.07 0.17 0.20 0.22 0.25 0.26 0.20 0.20 0.14 0.09 0.03 0.00 0.00 0.00 0.00 0.00 0.00 0.01 0.01 0.01 0.00 0.01 0.01 0.01 0.02 0.03 0.03 0.05 0.07 0.11 0.16 0.22 0.22 0.21 0.19 0.15
0.11 0.12 0.13 0.12 0.12 0.14 0.18 0.23 0.34 0.41 0.31 0.26 0.21 0.15 0.09 0.05 0.02 0.01 0.00 0.01 0.01 0.00 0.01 0.01 0.01 0.01 0.01 0.01 0.01 0.02 0.04 0.10 0.13 0.13 0.17 0.17 0.19 0.19 0.20 0.18 0.16 0.13 0.10
0.59 0.60 0.55 0.58 0.55 0.52 0.46 0.39 0.31 0.26 0.22 0.19 0.12 0.05 0.05 0.06 0.06 0.06 0.05 0.05 0.05 0.03 0.02 0.02 0.02 0.02 0.02 0.02 0.02 0.02 0.02 0.04 0.08 0.10 0.11 0.09 0.10 0.11 0.11 0.12 0.14 0.16 0.14
0.58 0.67 0.59 0.47 0.36 0.28 0.24 0.21 0.16 0.12 0.11 0.11 0.11 0.11 0.09 0.07 0.06 0.05 0.04 0.04 0.04 0.05 0.05 0.05 0.04 0.03 0.03 0.01 0.01 0.01 0.02 0.03 0.04 0.07 0.07 0.07 0.08 0.11 0.09 0.08 0.09 0.08 0.10
0.53 0.53 0.41 0.36 0.34 0.28 0.21 0.16 0.11 0.09 0.09 0.09 0.10 0.11 0.08 0.05 0.03 0.02 0.02 0.02 0.02 0.02 0.02 0.01 0.01 0.01 0.01 0.01 0.02 0.02 0.02 0.02 0.03 0.06 0.10 0.11 0.10 0.11 0.12 0.13 0.14 0.13 0.09
0.54 0.50 0.39 0.29 0.23 0.18 0.14 0.10 0.07 0.06 0.06 0.05 0.05 0.04 0.03 0.02 0.03 0.03 0.02 0.01 0.01 0.01 0.01 0.01 0.01 0.01 0.01 0.01 0.02 0.02 0.01 0.02 0.03 0.05 0.05 0.06 0.10 0.12 0.12 0.13 0.14 0.12 0.10
0.28 0.21 0.15 0.12 0.10 0.08 0.06 0.04 0.03 0.03 0.03 0.03 0.03 0.02 0.01 0.01 0.01 0.01 0.01 0.01 0.01 0.01 0.01 0.01 0.01 0.01 0.00 0.01 0.01 0.01 0.02 0.02 0.03 0.04 0.03 0.03 0.05 0.06 0.10 0.12 0.14 0.14 0.13
0.09 0.07 0.05 0.03 0.03 0.01 0.01 0.01 0.01 0.01 0.01 0.01 0.01 0.00 0.01 0.01 0.01 0.01 0.01 0.01 0.01 0.00 0.00 0.01 0.01 0.01 0.00 0.00 0.01 0.02 0.04 0.03 0.03 0.04 0.06 0.05 0.04 0.05 0.09 0.13 0.14 0.17 0.16
0.01 0.00 0.00 0.00 0.00 0.00 0.00 0.00 0.00 0.00 0.01 0.01 0.01 0.01 0.01 0.01 0.01 0.01 0.01 0.00 0.00 0.00 0.00 0.01 0.00 0.00 0.00 0.01 0.01 0.01 0.00 0.00 0.03 0.05 0.08 0.07 0.04 0.04 0.07 0.10 0.12 0.14 0.15
0.00 0.00 0.00 0.00 0.00 0.01 0.01 0.01 0.01 0.00 0.00 0.01 0.01 0.01 0.00 0.01 0.00 0.00 0.00 0.00 0.00 0.00 0.00 0.00 0.00 0.00 0.00 0.00 0.00 0.00 0.00 0.02 0.04 0.04 0.06 0.06 0.04 0.03 0.06 0.09 0.12 0.15 0.14
0.00 0.00 0.00 0.00 0.01 0.01 0.01 0.01 0.00 0.00 0.01 0.01 0.01 0.01 0.01 0.01 0.00 0.00 0.00 0.00 0.01 0.00 0.00 0.00 0.00 0.00 0.00 0.00 0.00 0.00 0.00 0.00 0.01 0.04 0.08 0.07 0.05 0.03 0.06 0.09 0.12 0.16 0.13

GFSGL_prec_precacc24_093.txt.gz
Total_Precipitation_Accumulation
0.19 0.07 0.01 0.01 0.01 0.14 0.22 0.28 0.36 0.43 0.64 0.60 0.52 0.49 0.46 0.40 0.40 0.37 0.24 0.21 0.21 0.23 0.30 0.35 0.34 0.53 0.65 0.57 0.60 0.56 0.48 0.46 0.40 0.20 0.10 0.05 0.04 0.01 0.00 0.00 0.00 0.00 0.00
0.75 0.56 0.27 0.16 0.13 0.26 0.38 0.61 0.87 0.82 0.65 0.53 0.46 0.30 0.24 0.22 0.17 0.14 0.16 0.19 0.21 0.26 0.29 0.41 0.32 0.36 0.37 0.31 0.32 0.24 0.21 0.20 0.20 0.16 0.10 0.06 0.04 0.03 0.02 0.02 0.02 0.02 0.01
0.52 0.54 0.38 0.39 0.51 0.82 0.98 0.89 0.76 0.48 0.28 0.16 0.11 0.09 0.08 0.08 0.08 0.09 0.09 0.12 0.14 0.16 0.17 0.20 0.19 0.21 0.14 0.13 0.15 0.13 0.11 0.12 0.15 0.19 0.22 0.23 0.20 0.14 0.12 0.08 0.03 0.02 0.03
0.14 0.15 0.25 0.28 0.23 0.28 0.22 0.23 0.19 0.18 0.16 0.15 0.15 0.13 0.10 0.09 0.09 0.10 0.11 0.13 0.15 0.15 0.16 0.16 0.12 0.11 0.08 0.09 0.11 0.12 0.15 0.17 0.19 0.25 0.27 0.25 0.22 0.18 0.14 0.11 0.11 0.09 0.07
0.02 0.04 0.09 0.14 0.14 0.15 0.14 0.12 0.16 0.18 0.19 0.20 0.18 0.15 0.14 0.13 0.13 0.15 0.13 0.13 0.12 0.13 0.13 0.13 0.12 0.18 0.18 0.16 0.15 0.13 0.16 0.20 0.23 0.27 0.23 0.21 0.20 0.19 0.16 0.12 0.11 0.09 0.09
0.07 0.05 0.06 0.08 0.08 0.07 0.06 0.07 0.08 0.13 0.13 0.14 0.13 0.13 0.11 0.12 0.24 0.18 0.13 0.11 0.16 0.16 0.15 0.13 0.17 0.31 0.21 0.30 0.27 0.27 0.22 0.16 0.14 0.18 0.20 0.19 0.18 0.17 0.14 0.14 0.14 0.13 0.12
0.04 0.05 0.04 0.04 0.03 0.02 0.02 0.03 0.04 0.09 0.12 0.14 0.11 0.10 0.10 0.14 0.27 0.16 0.17 0.08 0.08 0.12 0.13 0.14 0.16 0.21 0.30 0.14 0.30 0.29 0.26 0.26 0.17 0.13 0.15 0.18 0.19 0.20 0.19 0.17 0.14 0.12 0.09
0.02 0.03 0.03 0.02 0.01 0.02 0.02 0.03 0.03 0.03 0.05 0.06 0.07 0.07 0.08 0.15 0.22 0.12 0.13 0.08 0.09 0.14 0.16 0.17 0.21 0.26 0.35 0.32 0.20 0.14 0.10 0.12 0.14 0.14 0.14 0.16 0.14 0.10 0.05 0.03 0.02 0.03 0.03
0.00 0.01 0.06 0.06 0.03 0.03 0.02 0.03 0.05 0.05 0.06 0.05 0.05 0.05 0.06 0.10 0.17 0.11 0.10 0.07 0.14 0.17 0.18 0.22 0.29 0.29 0.49 0.25 0.10 0.10 0.11 0.11 0.13 0.09 0.05 0.02 0.02 0.01 0.01 0.01 0.02 0.04 0.04
0.00 0.03 0.11 0.08 0.07 0.06 0.05 0.04 0.05 0.06 0.06 0.06 0.08 0.08 0.16 0.09 0.21 0.13 0.09 0.04 0.09 0.11 0.12 0.17 0.27 0.10 0.13 0.07 0.03 0.02 0.02 0.01 0.02 0.02 0.01 0.00 0.00 0.01 0.00 0.00 0.01 0.04 0.03
0.03 0.04 0.07 0.07 0.06 0.05 0.06 0.07 0.08 0.08 0.09 0.11 0.12 0.11 0.12 0.15 0.18 0.18 0.12 0.05 0.06 0.09 0.11 0.12 0.16 0.16 0.06 0.03 0.02 0.01 0.01 0.01 0.01 0.00 0.00 0.00 0.00 0.00 0.00 0.00 0.00 0.03 0.06
0.09 0.09 0.09 0.11 0.07 0.08 0.06 0.07 0.08 0.10 0.11 0.11 0.12 0.13 0.13 0.14 0.24 0.18 0.13 0.13 0.15 0.06 0.10 0.09 0.12 0.10 0.03 0.02 0.01 0.01 0.01 0.01 0.00 0.00 0.00 0.00 0.00 0.00 0.00 0.00 0.00 0.00 0.02
0.09 0.12 0.13 0.12 0.11 0.11 0.13 0.12 0.11 0.09 0.09 0.10 0.11 0.13 0.14 0.13 0.18 0.22 0.14 0.12 0.10 0.06 0.09 0.13 0.13 0.08 0.04 0.04 0.04 0.03 0.02 0.01 0.00 0.00 0.00 0.00 0.00 0.00 0.00 0.00 0.00 0.01 0.02
0.04 0.06 0.09 0.11 0.14 0.12 0.15 0.17 0.19 0.21 0.21 0.20 0.23 0.26 0.26 0.23 0.21 0.24 0.27 0.26 0.22 0.21 0.23 0.21 0.18 0.16 0.14 0.11 0.06 0.02 0.00 0.00 0.00 0.00 0.00 0.00 0.00 0.00 0.00 0.00 0.02 0.02 0.06
0.05 0.05 0.07 0.09 0.09 0.09 0.14 0.24 0.27 0.38 0.45 0.38 0.40 0.40 0.42 0.53 0.71 0.70 0.62 0.57 0.47 0.39 0.30 0.26 0.20 0.12 0.05 0.02 0.01 0.00 0.00 0.00 0.01 0.01 0.01 0.00 0.00 0.01 0.01 0.01 0.03 0.06 0.09
0.18 0.16 0.16 0.12 0.12 0.14 0.14 0.25 0.47 0.56 0.57 0.59 0.63 0.59 0.70 0.71 0.72 0.61 0.47 0.38 0.30 0.21 0.11 0.06 0.05 0.03 0.02 0.01 0.01 0.01 0.00 0.01 0.01 0.00 0.01 0.01 0.01 0.02 0.02 0.03 0.05 0.11 0.14
0.57 0.57 0.56 0.50 0.41 0.40 0.44 0.48 0.66 0.89 0.86 0.89 0.88 0.83 0.74 0.68 0.50 0.33 0.18 0.11 0.07 0.03 0.04 0.04 0.03 0.01 0.01 0.01 0.01 0.01 0.01 0.01 0.01 0.01 0.01 0.01 0.02 0.03 0.04 0.14 0.15 0.12 0.10
1.17 1.23 1.26 1.41 1.44 1.44 1.41 1.31 1.17 1.10 1.00 0.91 0.77 0.56 0.41 0.29 0.23 0.20 0.16 0.11 0.09 0.05 0.03 0.03 0.02 0.02 0.02 0.02 0.02 0.02 0.01 0.01 0.01 0.01 0.01 0.01 0.02 0.04 0.03 0.06 0.11 0.14 0.12
0.70 0.87 0.93 0.91 0.81 0.69 0.64 0.62 0.59 0.53 0.48 0.46 0.39 0.33 0.27 0.19 0.14 0.10 0.06 0.05 0.04 0.05 0.04 0.04 0.04 0.03 0.02 0.01 0.01 0.01 0.01 0.01 0.01 0.01 0.01 0.01 0.02 0.02 0.03 0.04 0.05 0.06 0.08
0.58 0.61 0.50 0.48 0.51 0.47 0.40 0.33 0.28 0.23 0.21 0.20 0.21 0.23 0.16 0.07 0.03 0.02 0.02 0.02 0.02 0.02 0.02 0.01 0.01 0.01 0.01 0.01 0.01 0.01 0.01 0.01 0.01 0.01 0.01 0.01 0.01 0.02 0.03 0.04 0.05 0.06 0.07
0.41 0.42 0.35 0.30 0.28 0.25 0.20 0.14 0.11 0.09 0.08 0.07 0.06 0.05 0.03 0.03 0.03 0.02 0.02 0.02 0.01 0.01 0.01 0.01 0.01 0.01 0.01 0.01 0.01 0.01 0.01 0.01 0.01 0.01 0.01 0.01 0.01 0.02 0.03 0.05 0.06 0.07 0.07
0.18 0.17 0.14 0.13 0.12 0.10 0.07 0.05 0.04 0.03 0.03 0.03 0.03 0.02 0.01 0.01 0.01 0.00 0.01 0.01 0.01 0.01 0.01 0.01 0.01 0.01 0.00 0.00 0.00 0.01 0.01 0.01 0.01 0.01 0.01 0.01 0.02 0.02 0.03 0.05 0.06 0.06 0.07
0.10 0.08 0.06 0.04 0.03 0.02 0.01 0.01 0.01 0.01 0.01 0.01 0.00 0.00 0.01 0.01 0.01 0.01 0.01 0.01 0.01 0.00 0.00 0.00 0.00 0.00 0.00 0.00 0.00 0.01 0.02 0.01 0.01 0.02 0.03 0.03 0.02 0.02 0.03 0.03 0.05 0.06 0.06
0.01 0.00 0.00 0.00 0.00 0.00 0.00 0.00 0.00 0.00 0.00 0.01 0.01 0.01 0.01 0.01 0.01 0.01 0.00 0.00 0.00 0.00 0.00 0.00 0.00 0.00 0.00 0.00 0.00 0.00 0.00 0.00 0.02 0.03 0.04 0.05 0.03 0.02 0.02 0.03 0.03 0.04 0.05
0.00 0.00 0.00 0.00 0.00 0.00 0.00 0.00 0.01 0.00 0.00 0.01 0.01 0.01 0.00 0.00 0.00 0.00 0.00 0.00 0.00 0.00 0.00 0.00 0.00 0.00 0.00 0.00 0.00 0.00 0.01 0.01 0.01 0.03 0.04 0.04 0.03 0.02 0.03 0.04 0.04 0.05 0.05
0.00 0.00 0.00 0.00 0.01 0.01 0.01 0.01 0.00 0.00 0.01 0.01 0.01 0.01 0.01 0.00 0.00 0.00 0.00 0.00 0.00 0.00 0.00 0.00 0.00 0.00 0.00 0.00 0.01 0.01 0.00 0.00 0.01 0.03 0.06 0.05 0.04 0.02 0.03 0.04 0.04 0.06 0.05

GFSGL_prec_precacc24_096.txt.gz
Total_Precipitation_Accumulation
0.13 0.03 0.01 0.01 0.01 0.01 0.04 0.04 0.06 0.10 0.15 0.24 0.31 0.34 0.30 0.28 0.36 0.36 0.23 0.21 0.23 0.24 0.33 0.38 0.36 0.53 0.66 0.58 0.61 0.60 0.51 0.50 0.42 0.20 0.10 0.05 0.04 0.01 0.01 0.01 0.01 0.02 0.00
0.42 0.22 0.07 0.05 0.03 0.05 0.08 0.10 0.11 0.24 0.33 0.37 0.30 0.21 0.16 0.16 0.16 0.14 0.15 0.19 0.22 0.26 0.31 0.44 0.33 0.41 0.38 0.32 0.34 0.25 0.22 0.21 0.22 0.16 0.10 0.06 0.05 0.04 0.05 0.06 0.06 0.03 0.02
0.22 0.27 0.16 0.06 0.04 0.07 0.29 0.49 0.46 0.34 0.21 0.10 0.04 0.04 0.04 0.05 0.06 0.08 0.09 0.12 0.15 0.16 0.18 0.21 0.19 0.23 0.15 0.13 0.16 0.14 0.11 0.13 0.16 0.20 0.23 0.23 0.21 0.16 0.13 0.09 0.05 0.05 0.06
0.05 0.12 0.21 0.16 0.06 0.09 0.09 0.13 0.12 0.14 0.09 0.08 0.08 0.08 0.08 0.08 0.08 0.10 0.11 0.12 0.15 0.15 0.16 0.16 0.13 0.13 0.08 0.10 0.12 0.13 0.16 0.17 0.23 0.27 0.29 0.27 0.24 0.20 0.15 0.13 0.13 0.12 0.10
0.01 0.04 0.08 0.11 0.09 0.09 0.09 0.08 0.12 0.13 0.14 0.14 0.16 0.13 0.12 0.12 0.12 0.13 0.12 0.12 0.12 0.13 0.13 0.13 0.12 0.18 0.18 0.16 0.15 0.13 0.17 0.22 0.26 0.29 0.26 0.24 0.23 0.24 0.21 0.14 0.13 0.10 0.10
0.04 0.04 0.05 0.05 0.05 0.06 0.06 0.07 0.07 0.10 0.11 0.11 0.11 0.11 0.10 0.11 0.22 0.18 0.13 0.11 0.16 0.16 0.15 0.14 0.17 0.31 0.21 0.30 0.28 0.29 0.25 0.20 0.21 0.31 0.37 0.36 0.29 0.24 0.18 0.15 0.15 0.14 0.14
0.07 0.07 0.05 0.03 0.02 0.02 0.02 0.02 0.03 0.09 0.12 0.13 0.11 0.10 0.10 0.14 0.26 0.16 0.16 0.08 0.08 0.13 0.15 0.16 0.17 0.22 0.31 0.14 0.31 0.32 0.34 0.45 0.40 0.35 0.33 0.31 0.29 0.30 0.22 0.19 0.16 0.12 0.08
0.07 0.06 0.09 0.07 0.05 0.02 0.02 0.03 0.03 0.03 0.05 0.06 0.07 0.07 0.08 0.15 0.22 0.12 0.12 0.08 0.10 0.15 0.18 0.19 0.23 0.27 0.37 0.38 0.32 0.32 0.30 0.28 0.28 0.27 0.26 0.27 0.21 0.12 0.06 0.03 0.01 0.01 0.01
0.08 0.07 0.12 0.12 0.07 0.06 0.04 0.04 0.05 0.06 0.07 0.06 0.06 0.05 0.07 0.10 0.18 0.12 0.11 0.08 0.16 0.19 0.20 0.25 0.31 0.31 0.56 0.37 0.18 0.18 0.23 0.23 0.22 0.16 0.09 0.05 0.02 0.02 0.01 0.01 0.01 0.01 0.01
0.04 0.10 0.21 0.15 0.10 0.09 0.10 0.05 0.06 0.07 0.08 0.08 0.10 0.09 0.16 0.10 0.23 0.14 0.10 0.06 0.13 0.15 0.15 0.22 0.38 0.16 0.22 0.15 0.08 0.06 0.07 0.07 0.07 0.06 0.03 0.01 0.01 0.01 0.00 0.00 0.01 0.03 0.02
0.03 0.12 0.18 0.18 0.15 0.12 0.14 0.09 0.09 0.10 0.12 0.16 0.17 0.15 0.13 0.18 0.20 0.21 0.14 0.07 0.09 0.12 0.14 0.16 0.27 0.32 0.17 0.14 0.11 0.11 0.15 0.14 0.10 0.05 0.02 0.01 0.00 0.00 0.00 0.00 0.00 0.02 0.03
0.09 0.10 0.13 0.20 0.20 0.20 0.15 0.12 0.09 0.11 0.13 0.14 0.16 0.19 0.19 0.21 0.36 0.28 0.20 0.20 0.22 0.12 0.19 0.21 0.27 0.26 0.15 0.15 0.15 0.16 0.16 0.14 0.12 0.09 0.04 0.01 0.00 0.00 0.00 0.00 0.00 0.00 0.01
0.10 0.13 0.16 0.18 0.23 0.27 0.29 0.27 0.24 0.18 0.14 0.13 0.14 0.17 0.18 0.18 0.30 0.37 0.26 0.25 0.24 0.17 0.25 0.35 0.40 0.36 0.30 0.29 0.29 0.27 0.25 0.19 0.12 0.05 0.01 0.00 0.00 0.00 0.00 0.00 0.00 0.00 0.00
0.04 0.07 0.10 0.14 0.22 0.23 0.26 0.29 0.34 0.38 0.37 0.35 0.34 0.34 0.34 0.32 0.32 0.37 0.43 0.47 0.54 0.61 0.75 0.79 0.75 0.71 0.63 0.51 0.36 0.21 0.10 0.04 0.02 0.01 0.00 0.00 0.00 0.00 0.00 0.00 0.01 0.00 0.02
0.05 0.05 0.09 0.14 0.16 0.17 0.24 0.35 0.38 0.48 0.57 0.60 0.68 0.74 0.81 0.94 1.13 1.14 1.05 0.99 0.94 0.89 0.81 0.75 0.63 0.48 0.34 0.22 0.13 0.06 0.02 0.01 0.01 0.01 0.00 0.00 0.00 0.00 0.00 0.00 0.00 0.01 0.03
0.18 0.16 0.17 0.13 0.18 0.28 0.33 0.48 0.72 0.78 0.78 0.83 0.92 0.92 1.13 1.18 1.21 1.05 0.90 0.79 0.65 0.49 0.32 0.25 0.20 0.14 0.08 0.04 0.02 0.01 0.01 0.01 0.01 0.00 0.01 0.01 0.01 0.01 0.01 0.00 0.00 0.02 0.03
0.58 0.58 0.59 0.55 0.50 0.51 0.56 0.65 0.97 1.35 1.38 1.33 1.25 1.15 1.04 1.02 0.84 0.63 0.43 0.29 0.21 0.13 0.12 0.11 0.08 0.04 0.02 0.01 0.01 0.01 0.01 0.01 0.01 0.01 0.01 0.01 0.01 0.01 0.01 0.01 0.02 0.07 0.08
1.17 1.23 1.26 1.45 1.52 1.56 1.56 1.52 1.40 1.34 1.23 1.18 1.08 0.87 0.68 0.51 0.42 0.36 0.29 0.21 0.18 0.13 0.09 0.06 0.04 0.03 0.03 0.02 0.02 0.02 0.01 0.01 0.01 0.01 0.01 0.01 0.01 0.02 0.02 0.01 0.01 0.04 0.08
0.68 0.86 0.91 0.90 0.81 0.70 0.66 0.66 0.67 0.65 0.61 0.59 0.53 0.45 0.39 0.29 0.21 0.14 0.09 0.06 0.06 0.05 0.05 0.04 0.04 0.03 0.02 0.01 0.01 0.01 0.01 0.01 0.01 0.01 0.01 0.01 0.01 0.02 0.02 0.01 0.01 0.02 0.04
0.56 0.56 0.43 0.40 0.41 0.39 0.35 0.31 0.29 0.25 0.24 0.23 0.25 0.27 0.19 0.08 0.03 0.02 0.02 0.02 0.02 0.02 0.02 0.01 0.01 0.01 0.01 0.01 0.01 0.01 0.01 0.01 0.01 0.01 0.01 0.01 0.01 0.02 0.02 0.02 0.02 0.03 0.03
0.36 0.35 0.27 0.21 0.19 0.17 0.14 0.11 0.09 0.08 0.08 0.07 0.06 0.05 0.03 0.03 0.03 0.02 0.02 0.02 0.01 0.01 0.01 0.01 0.01 0.01 0.01 0.01 0.01 0.01 0.01 0.01 0.01 0.01 0.01 0.01 0.01 0.02 0.01 0.02 0.02 0.03 0.04
0.14 0.13 0.10 0.09 0.09 0.07 0.06 0.04 0.03 0.03 0.03 0.03 0.04 0.02 0.01 0.01 0.01 0.00 0.01 0.01 0.01 0.01 0.01 0.01 0.01 0.01 0.00 0.00 0.00 0.01 0.01 0.01 0.01 0.01 0.01 0.01 0.02 0.02 0.02 0.02 0.02 0.03 0.06
0.08 0.06 0.04 0.03 0.03 0.02 0.01 0.01 0.01 0.01 0.01 0.01 0.00 0.00 0.01 0.01 0.01 0.01 0.01 0.01 0.01 0.00 0.00 0.00 0.00 0.00 0.00 0.00 0.00 0.00 0.01 0.01 0.01 0.02 0.03 0.02 0.02 0.02 0.02 0.03 0.03 0.04 0.05
0.03 0.02 0.01 0.01 0.00 0.00 0.00 0.00 0.00 0.00 0.00 0.01 0.01 0.01 0.01 0.01 0.01 0.01 0.00 0.00 0.00 0.00 0.00 0.00 0.00 0.00 0.00 0.00 0.00 0.00 0.00 0.00 0.01 0.02 0.03 0.04 0.02 0.02 0.02 0.03 0.02 0.03 0.04
0.00 0.00 0.00 0.00 0.00 0.00 0.00 0.00 0.00 0.00 0.00 0.01 0.01 0.01 0.01 0.00 0.00 0.00 0.00 0.00 0.00 0.00 0.00 0.00 0.00 0.00 0.00 0.00 0.00 0.00 0.01 0.01 0.01 0.02 0.04 0.03 0.03 0.02 0.03 0.03 0.03 0.03 0.03
0.00 0.00 0.00 0.00 0.00 0.00 0.00 0.00 0.00 0.00 0.01 0.01 0.01 0.01 0.00 0.00 0.00 0.00 0.00 0.00 0.00 0.00 0.00 0.00 0.00 0.00 0.00 0.00 0.01 0.00 0.00 0.00 0.00 0.03 0.05 0.04 0.03 0.02 0.03 0.04 0.03 0.04 0.04

GFSGL_prec_precacc24_099.txt.gz
Total_Precipitation_Accumulation
0.03 0.01 0.01 0.01 0.01 0.01 0.01 0.00 0.00 0.00 0.01 0.02 0.05 0.10 0.16 0.21 0.26 0.25 0.16 0.18 0.22 0.22 0.31 0.38 0.37 0.55 0.67 0.58 0.63 0.63 0.54 0.53 0.43 0.20 0.10 0.05 0.04 0.01 0.01 0.01 0.01 0.02 0.01
0.18 0.10 0.02 0.02 0.01 0.00 0.00 0.00 0.00 0.00 0.00 0.02 0.05 0.05 0.09 0.12 0.12 0.11 0.13 0.16 0.19 0.25 0.30 0.43 0.33 0.42 0.40 0.32 0.34 0.25 0.22 0.22 0.24 0.16 0.10 0.06 0.05 0.04 0.05 0.06 0.06 0.04 0.03
0.12 0.21 0.13 0.04 0.01 0.00 0.00 0.00 0.01 0.00 0.02 0.04 0.03 0.03 0.03 0.03 0.03 0.03 0.04 0.08 0.12 0.14 0.17 0.20 0.19 0.24 0.15 0.13 0.16 0.14 0.11 0.14 0.17 0.23 0.23 0.23 0.21 0.16 0.13 0.09 0.05 0.05 0.07
0.02 0.06 0.14 0.13 0.05 0.04 0.01 0.01 0.02 0.06 0.06 0.06 0.04 0.04 0.04 0.04 0.04 0.04 0.05 0.09 0.13 0.14 0.15 0.16 0.13 0.13 0.08 0.10 0.12 0.13 0.16 0.18 0.24 0.29 0.31 0.28 0.25 0.20 0.16 0.14 0.13 0.13 0.12
0.02 0.00 0.03 0.07 0.07 0.08 0.07 0.06 0.07 0.06 0.09 0.12 0.12 0.09 0.07 0.06 0.06 0.09 0.09 0.10 0.10 0.11 0.12 0.12 0.11 0.17 0.19 0.17 0.16 0.14 0.17 0.23 0.29 0.31 0.28 0.25 0.25 0.26 0.24 0.19 0.20 0.19 0.20
0.08 0.05 0.01 0.02 0.04 0.06 0.05 0.05 0.05 0.07 0.07 0.07 0.07 0.07 0.05 0.07 0.16 0.13 0.10 0.10 0.15 0.15 0.15 0.14 0.17 0.30 0.21 0.31 0.29 0.31 0.27 0.23 0.23 0.32 0.39 0.40 0.37 0.34 0.30 0.27 0.25 0.21 0.19
0.14 0.11 0.06 0.04 0.02 0.02 0.01 0.01 0.03 0.06 0.09 0.11 0.08 0.06 0.07 0.10 0.20 0.14 0.15 0.07 0.08 0.12 0.14 0.16 0.17 0.22 0.31 0.14 0.32 0.33 0.35 0.47 0.43 0.37 0.37 0.39 0.39 0.38 0.31 0.26 0.21 0.16 0.11
0.10 0.12 0.16 0.12 0.09 0.05 0.02 0.01 0.02 0.02 0.04 0.04 0.05 0.05 0.07 0.14 0.20 0.11 0.12 0.08 0.10 0.15 0.18 0.19 0.23 0.27 0.37 0.38 0.32 0.32 0.30 0.29 0.30 0.29 0.28 0.31 0.27 0.20 0.13 0.08 0.04 0.03 0.02
0.12 0.14 0.17 0.17 0.14 0.12 0.10 0.10 0.06 0.05 0.06 0.04 0.05 0.05 0.06 0.10 0.17 0.12 0.11 0.08 0.16 0.19 0.20 0.25 0.32 0.31 0.60 0.41 0.19 0.20 0.26 0.28 0.30 0.22 0.14 0.11 0.09 0.07 0.06 0.06 0.05 0.06 0.04
0.05 0.11 0.22 0.16 0.13 0.12 0.16 0.11 0.12 0.10 0.08 0.09 0.11 0.10 0.16 0.10 0.22 0.15 0.11 0.07 0.14 0.16 0.16 0.23 0.45 0.22 0.33 0.23 0.13 0.14 0.20 0.22 0.20 0.19 0.17 0.16 0.13 0.10 0.08 0.07 0.05 0.04 0.03
0.03 0.12 0.19 0.19 0.15 0.12 0.16 0.13 0.13 0.13 0.15 0.19 0.21 0.17 0.15 0.21 0.23 0.24 0.16 0.08 0.11 0.14 0.19 0.22 0.34 0.44 0.26 0.25 0.22 0.23 0.34 0.34 0.33 0.28 0.23 0.17 0.12 0.09 0.06 0.03 0.01 0.01 0.01
0.09 0.10 0.12 0.20 0.22 0.24 0.19 0.16 0.15 0.17 0.20 0.22 0.26 0.29 0.28 0.28 0.44 0.34 0.25 0.28 0.32 0.16 0.26 0.29 0.43 0.47 0.34 0.33 0.31 0.34 0.35 0.32 0.29 0.27 0.23 0.19 0.15 0.10 0.04 0.01 0.00 0.00 0.00
0.10 0.13 0.16 0.17 0.23 0.30 0.35 0.33 0.31 0.29 0.28 0.26 0.31 0.44 0.46 0.35 0.45 0.51 0.35 0.36 0.36 0.26 0.41 0.58 0.66 0.61 0.54 0.55 0.55 0.54 0.49 0.44 0.38 0.30 0.22 0.13 0.06 0.02 0.01 0.00 0.00 0.00 0.00
0.04 0.07 0.10 0.15 0.23 0.26 0.31 0.36 0.45 0.53 0.63 0.73 0.80 0.81 0.74 0.62 0.58 0.54 0.56 0.62 0.74 0.85 1.08 1.18 1.18 1.17 1.09 0.99 0.84 0.64 0.47 0.34 0.23 0.15 0.08 0.04 0.02 0.01 0.01 0.00 0.00 0.00 0.00
0.05 0.05 0.09 0.14 0.17 0.18 0.27 0.41 0.47 0.63 0.78 0.80 0.88 0.92 0.94 1.07 1.31 1.33 1.27 1.25 1.25 1.27 1.27 1.25 1.13 0.92 0.70 0.52 0.35 0.22 0.11 0.05 0.03 0.02 0.01 0.01 0.00 0.00 0.00 0.00 0.01 0.01 0.01
0.18 0.16 0.17 0.13 0.18 0.28 0.34 0.52 0.78 0.90 0.93 1.02 1.15 1.20 1.47 1.54 1.55 1.35 1.24 1.15 1.01 0.82 0.62 0.51 0.42 0.30 0.20 0.12 0.06 0.03 0.02 0.01 0.01 0.00 0.01 0.01 0.01 0.01 0.01 0.00 0.00 0.01 0.01
0.57 0.58 0.59 0.54 0.50 0.51 0.56 0.66 0.99 1.41 1.52 1.65 1.66 1.58 1.47 1.46 1.24 0.99 0.72 0.53 0.38 0.23 0.20 0.19 0.16 0.10 0.06 0.04 0.03 0.02 0.02 0.01 0.01 0.01 0.01 0.01 0.01 0.01 0.01 0.01 0.01 0.01 0.01
1.16 1.22 1.26 1.44 1.50 1.55 1.55 1.52 1.40 1.34 1.25 1.22 1.16 1.00 0.88 0.75 0.65 0.56 0.45 0.31 0.26 0.19 0.13 0.09 0.06 0.04 0.03 0.03 0.02 0.02 0.01 0.01 0.01 0.01 0.01 0.01 0.01 0.02 0.02 0.01 0.01 0.02 0.02
0.66 0.83 0.89 0.88 0.80 0.69 0.65 0.64 0.65 0.63 0.59 0.59 0.54 0.47 0.42 0.32 0.24 0.18 0.12 0.08 0.07 0.06 0.05 0.05 0.04 0.03 0.02 0.01 0.01 0.01 0.01 0.01 0.01 0.01 0.01 0.01 0.01 0.01 0.02 0.01 0.01 0.01 0.01
0.50 0.52 0.41 0.37 0.39 0.37 0.33 0.30 0.28 0.24 0.22 0.22 0.23 0.26 0.18 0.07 0.03 0.02 0.02 0.02 0.02 0.02 0.02 0.01 0.01 0.01 0.01 0.01 0.01 0.01 0.01 0.01 0.01 0.01 0.01 0.01 0.01 0.02 0.01 0.01 0.02 0.02 0.01
0.34 0.34 0.25 0.19 0.17 0.15 0.12 0.09 0.08 0.07 0.06 0.06 0.06 0.03 0.02 0.01 0.02 0.01 0.01 0.01 0.01 0.01 0.01 0.01 0.01 0.01 0.01 0.01 0.01 0.01 0.01 0.01 0.01 0.01 0.01 0.01 0.01 0.01 0.01 0.02 0.02 0.02 0.02
0.13 0.12 0.09 0.08 0.08 0.07 0.05 0.04 0.02 0.02 0.01 0.01 0.01 0.00 0.00 0.00 0.00 0.00 0.01 0.01 0.01 0.01 0.01 0.01 0.01 0.01 0.00 0.00 0.00 0.01 0.01 0.01 0.01 0.01 0.01 0.01 0.01 0.02 0.02 0.02 0.02 0.02 0.02
0.08 0.07 0.06 0.04 0.04 0.03 0.02 0.01 0.01 0.00 0.00 0.00 0.00 0.00 0.00 0.01 0.00 0.01 0.00 0.00 0.00 0.00 0.00 0.00 0.00 0.00 0.00 0.00 0.00 0.00 0.01 0.01 0.01 0.01 0.02 0.02 0.02 0.02 0.02 0.03 0.03 0.03 0.02
0.05 0.04 0.03 0.02 0.01 0.00 0.00 0.00 0.00 0.00 0.00 0.00 0.00 0.00 0.01 0.01 0.01 0.00 0.00 0.00 0.00 0.00 0.00 0.00 0.00 0.00 0.00 0.00 0.00 0.00 0.00 0.00 0.01 0.02 0.02 0.03 0.02 0.01 0.02 0.03 0.02 0.02 0.03
0.01 0.00 0.00 0.00 0.00 0.00 0.00 0.00 0.00 0.00 0.00 0.00 0.00 0.01 0.00 0.00 0.00 0.00 0.00 0.00 0.00 0.00 0.00 0.00 0.00 0.00 0.00 0.00 0.00 0.00 0.01 0.01 0.01 0.02 0.03 0.02 0.02 0.02 0.02 0.03 0.02 0.03 0.02
0.00 0.00 0.00 0.00 0.00 0.00 0.00 0.00 0.00 0.00 0.01 0.01 0.00 0.00 0.00 0.00 0.00 0.00 0.00 0.00 0.00 0.00 0.00 0.00 0.00 0.00 0.00 0.00 0.01 0.00 0.00 0.00 0.00 0.02 0.04 0.03 0.02 0.02 0.03 0.04 0.03 0.04 0.03

GFSGL_prec_precacc24_105.txt.gz
Total_Precipitation_Accumulation
0.00 0.01 0.01 0.01 0.01 0.01 0.01 0.00 0.00 0.00 0.00 0.01 0.01 0.02 0.07 0.13 0.21 0.22 0.12 0.13 0.17 0.19 0.30 0.34 0.23 0.31 0.39 0.31 0.42 0.54 0.50 0.57 0.47 0.21 0.11 0.06 0.04 0.01 0.01 0.01 0.01 0.02 0.01
0.02 0.01 0.01 0.00 0.00 0.00 0.00 0.00 0.00 0.00 0.00 0.00 0.00 0.00 0.02 0.05 0.09 0.10 0.10 0.13 0.11 0.11 0.14 0.29 0.19 0.28 0.22 0.13 0.22 0.22 0.23 0.24 0.28 0.16 0.10 0.07 0.06 0.04 0.05 0.06 0.06 0.04 0.03
0.02 0.02 0.01 0.00 0.00 0.00 0.00 0.00 0.00 0.00 0.00 0.00 0.00 0.00 0.01 0.03 0.03 0.04 0.05 0.06 0.09 0.08 0.09 0.08 0.04 0.11 0.05 0.05 0.10 0.11 0.11 0.16 0.22 0.26 0.23 0.23 0.21 0.16 0.13 0.09 0.05 0.05 0.07
0.03 0.01 0.02 0.01 0.00 0.00 0.00 0.00 0.01 0.00 0.00 0.00 0.00 0.00 0.00 0.01 0.02 0.02 0.02 0.02 0.03 0.04 0.03 0.05 0.04 0.06 0.03 0.06 0.10 0.12 0.17 0.21 0.28 0.32 0.32 0.28 0.25 0.20 0.16 0.14 0.13 0.13 0.12
0.10 0.03 0.01 0.01 0.00 0.00 0.00 0.00 0.00 0.01 0.00 0.00 0.00 0.00 0.01 0.01 0.02 0.03 0.02 0.02 0.02 0.02 0.02 0.04 0.04 0.09 0.12 0.12 0.15 0.16 0.20 0.27 0.33 0.37 0.33 0.28 0.26 0.27 0.25 0.20 0.21 0.22 0.26
0.23 0.19 0.06 0.01 0.00 0.00 0.00 0.00 0.01 0.02 0.01 0.01 0.00 0.00 0.00 0.00 0.02 0.03 0.04 0.06 0.08 0.07 0.07 0.07 0.10 0.21 0.16 0.27 0.28 0.32 0.29 0.25 0.26 0.36 0.44 0.45 0.41 0.38 0.36 0.35 0.35 0.34 0.34
0.38 0.29 0.15 0.08 0.02 0.01 0.00 0.00 0.01 0.03 0.03 0.03 0.01 0.01 0.01 0.03 0.05 0.05 0.08 0.05 0.05 0.09 0.11 0.13 0.15 0.19 0.26 0.13 0.31 0.33 0.36 0.50 0.47 0.41 0.43 0.46 0.47 0.47 0.41 0.37 0.33 0.30 0.28
0.24 0.24 0.23 0.14 0.09 0.05 0.02 0.02 0.01 0.01 0.01 0.02 0.01 0.02 0.02 0.05 0.09 0.06 0.06 0.06 0.08 0.12 0.14 0.15 0.19 0.24 0.35 0.37 0.31 0.32 0.30 0.30 0.31 0.29 0.29 0.32 0.30 0.26 0.20 0.19 0.20 0.21 0.20
0.28 0.37 0.34 0.24 0.16 0.12 0.10 0.09 0.05 0.02 0.02 0.02 0.02 0.01 0.02 0.04 0.10 0.07 0.08 0.07 0.14 0.18 0.19 0.25 0.31 0.31 0.60 0.41 0.19 0.20 0.26 0.29 0.33 0.26 0.20 0.20 0.23 0.23 0.19 0.16 0.16 0.16 0.16
0.15 0.17 0.26 0.20 0.16 0.12 0.15 0.13 0.12 0.08 0.06 0.05 0.06 0.04 0.10 0.06 0.16 0.12 0.10 0.06 0.14 0.16 0.17 0.24 0.47 0.26 0.36 0.26 0.15 0.14 0.22 0.27 0.27 0.29 0.29 0.28 0.25 0.26 0.26 0.20 0.21 0.22 0.22
0.04 0.12 0.19 0.19 0.16 0.14 0.18 0.15 0.14 0.14 0.16 0.19 0.21 0.17 0.15 0.22 0.22 0.26 0.19 0.11 0.12 0.18 0.27 0.30 0.44 0.66 0.42 0.41 0.35 0.31 0.53 0.58 0.61 0.47 0.42 0.38 0.34 0.31 0.29 0.24 0.18 0.15 0.13
0.09 0.10 0.11 0.19 0.21 0.22 0.19 0.18 0.17 0.22 0.25 0.27 0.32 0.38 0.39 0.38 0.61 0.48 0.49 0.69 0.83 0.64 0.70 0.62 0.76 0.76 0.58 0.60 0.57 0.66 0.68 0.57 0.50 0.51 0.49 0.48 0.44 0.36 0.26 0.18 0.13 0.09 0.06
0.09 0.12 0.15 0.17 0.22 0.28 0.33 0.33 0.33 0.35 0.37 0.34 0.38 0.51 0.58 0.60 0.82 0.95 0.79 0.88 0.98 0.92 1.14 1.32 1.39 1.21 1.07 1.10 1.12 1.09 1.01 0.91 0.88 0.85 0.79 0.66 0.48 0.30 0.20 0.13 0.07 0.03 0.01
0.04 0.07 0.10 0.14 0.22 0.25 0.31 0.36 0.46 0.57 0.71 0.84 0.91 0.93 0.88 0.82 0.86 1.01 1.16 1.25 1.41 1.56 1.92 2.10 2.12 2.05 1.94 1.85 1.74 1.55 1.32 1.09 0.87 0.65 0.45 0.29 0.17 0.10 0.06 0.03 0.02 0.01 0.00
0.05 0.05 0.09 0.14 0.16 0.18 0.27 0.42 0.48 0.67 0.84 0.87 0.96 1.06 1.15 1.31 1.56 1.56 1.52 1.52 1.54 1.58 1.63 1.70 1.64 1.45 1.24 1.04 0.85 0.66 0.47 0.31 0.22 0.16 0.11 0.07 0.05 0.03 0.02 0.01 0.01 0.01 0.01
0.18 0.16 0.17 0.13 0.19 0.28 0.34 0.52 0.76 0.85 0.87 0.97 1.10 1.17 1.54 1.66 1.74 1.60 1.51 1.45 1.35 1.18 0.93 0.80 0.69 0.57 0.45 0.35 0.24 0.17 0.12 0.10 0.08 0.05 0.04 0.03 0.02 0.02 0.01 0.00 0.00 0.01 0.01
0.57 0.56 0.55 0.50 0.46 0.47 0.52 0.59 0.94 1.37 1.52 1.67 1.68 1.62 1.52 1.56 1.36 1.15 0.93 0.76 0.64 0.49 0.43 0.41 0.35 0.27 0.20 0.13 0.09 0.07 0.05 0.03 0.01 0.01 0.01 0.01 0.01 0.01 0.01 0.01 0.01 0.01 0.01
1.12 1.16 1.23 1.42 1.48 1.52 1.52 1.50 1.39 1.34 1.24 1.23 1.18 1.03 0.89 0.74 0.65 0.58 0.48 0.34 0.29 0.23 0.18 0.14 0.09 0.06 0.03 0.02 0.01 0.01 0.01 0.01 0.01 0.01 0.01 0.01 0.01 0.01 0.01 0.01 0.01 0.02 0.01
0.59 0.74 0.79 0.80 0.73 0.65 0.62 0.62 0.62 0.61 0.56 0.56 0.51 0.43 0.41 0.31 0.23 0.17 0.11 0.06 0.05 0.03 0.01 0.01 0.00 0.00 0.00 0.00 0.00 0.01 0.01 0.01 0.01 0.01 0.01 0.01 0.01 0.01 0.01 0.01 0.01 0.01 0.01
0.41 0.43 0.34 0.33 0.35 0.35 0.32 0.29 0.27 0.23 0.21 0.20 0.21 0.24 0.17 0.06 0.02 0.01 0.01 0.01 0.00 0.00 0.00 0.00 0.00 0.00 0.00 0.01 0.01 0.01 0.01 0.00 0.00 0.01 0.01 0.00 0.01 0.01 0.01 0.01 0.01 0.02 0.01
0.29 0.29 0.23 0.18 0.17 0.16 0.13 0.10 0.09 0.07 0.06 0.06 0.05 0.02 0.00 0.00 0.01 0.00 0.00 0.00 0.00 0.00 0.00 0.00 0.00 0.00 0.00 0.00 0.00 0.00 0.00 0.01 0.01 0.01 0.01 0.01 0.01 0.01 0.01 0.01 0.02 0.01 0.01
0.12 0.11 0.10 0.09 0.09 0.08 0.06 0.04 0.03 0.02 0.01 0.01 0.01 0.00 0.00 0.00 0.00 0.00 0.00 0.00 0.00 0.00 0.00 0.00 0.00 0.00 0.00 0.00 0.00 0.01 0.01 0.01 0.01 0.01 0.01 0.01 0.01 0.01 0.01 0.01 0.02 0.01 0.02
0.09 0.08 0.06 0.06 0.05 0.04 0.02 0.01 0.00 0.00 0.00 0.00 0.00 0.00 0.00 0.00 0.00 0.00 0.00 0.00 0.00 0.00 0.00 0.00 0.00 0.00 0.00 0.00 0.00 0.00 0.01 0.01 0.01 0.01 0.01 0.01 0.01 0.01 0.01 0.02 0.02 0.02 0.02
0.07 0.05 0.04 0.03 0.01 0.00 0.00 0.00 0.00 0.00 0.00 0.00 0.00 0.00 0.00 0.00 0.00 0.00 0.00 0.00 0.00 0.00 0.00 0.00 0.00 0.00 0.00 0.00 0.00 0.00 0.00 0.00 0.00 0.01 0.01 0.02 0.01 0.01 0.01 0.02 0.01 0.01 0.02
0.01 0.01 0.00 0.00 0.00 0.00 0.00 0.00 0.00 0.00 0.00 0.00 0.00 0.01 0.00 0.00 0.00 0.00 0.00 0.00 0.00 0.00 0.00 0.00 0.00 0.00 0.00 0.00 0.00 0.00 0.01 0.00 0.00 0.01 0.01 0.01 0.02 0.01 0.02 0.02 0.02 0.02 0.02
0.00 0.00 0.00 0.00 0.00 0.00 0.00 0.00 0.00 0.00 0.00 0.00 0.00 0.00 0.00 0.00 0.00 0.00 0.00 0.00 0.00 0.00 0.00 0.00 0.00 0.00 0.00 0.00 0.01 0.00 0.00 0.00 0.00 0.01 0.01 0.02 0.01 0.01 0.02 0.02 0.02 0.03 0.02

GFSGL_prec_precacc24_108.txt.gz
Total_Precipitation_Accumulation
0.01 0.01 0.01 0.01 0.01 0.01 0.01 0.00 0.00 0.00 0.01 0.02 0.02 0.02 0.07 0.14 0.23 0.25 0.17 0.19 0.20 0.19 0.31 0.34 0.21 0.24 0.19 0.11 0.22 0.30 0.27 0.34 0.33 0.16 0.12 0.07 0.04 0.02 0.01 0.01 0.01 0.02 0.01
0.02 0.02 0.01 0.00 0.00 0.00 0.00 0.00 0.00 0.00 0.00 0.00 0.01 0.00 0.02 0.07 0.12 0.15 0.15 0.19 0.14 0.10 0.12 0.22 0.12 0.23 0.17 0.09 0.15 0.11 0.11 0.16 0.22 0.12 0.09 0.09 0.06 0.05 0.05 0.07 0.07 0.04 0.03
0.01 0.01 0.01 0.01 0.00 0.00 0.00 0.00 0.00 0.00 0.00 0.00 0.00 0.00 0.01 0.04 0.04 0.05 0.06 0.08 0.12 0.09 0.10 0.10 0.06 0.14 0.07 0.06 0.09 0.08 0.07 0.13 0.20 0.24 0.23 0.25 0.23 0.17 0.17 0.14 0.08 0.06 0.07
0.04 0.04 0.04 0.04 0.01 0.00 0.00 0.00 0.01 0.00 0.00 0.00 0.00 0.00 0.00 0.01 0.01 0.01 0.02 0.02 0.04 0.04 0.04 0.06 0.06 0.09 0.03 0.06 0.09 0.10 0.14 0.18 0.24 0.28 0.30 0.27 0.27 0.22 0.19 0.19 0.20 0.18 0.16
0.18 0.11 0.07 0.02 0.00 0.00 0.00 0.00 0.00 0.01 0.00 0.00 0.01 0.00 0.01 0.00 0.00 0.01 0.01 0.01 0.01 0.01 0.01 0.03 0.04 0.06 0.09 0.11 0.13 0.11 0.15 0.23 0.33 0.36 0.32 0.28 0.28 0.29 0.26 0.23 0.29 0.33 0.39
0.32 0.27 0.12 0.01 0.00 0.00 0.00 0.00 0.00 0.01 0.00 0.00 0.00 0.00 0.00 0.00 0.01 0.01 0.01 0.04 0.06 0.04 0.04 0.04 0.07 0.18 0.14 0.24 0.25 0.29 0.28 0.26 0.27 0.38 0.46 0.47 0.44 0.43 0.40 0.42 0.46 0.47 0.51
0.48 0.36 0.19 0.08 0.03 0.01 0.00 0.00 0.00 0.00 0.00 0.00 0.00 0.00 0.01 0.02 0.01 0.01 0.01 0.03 0.04 0.06 0.08 0.11 0.14 0.18 0.25 0.12 0.31 0.33 0.36 0.50 0.48 0.45 0.48 0.51 0.51 0.49 0.44 0.41 0.39 0.38 0.36
0.33 0.29 0.26 0.14 0.09 0.05 0.02 0.01 0.01 0.01 0.00 0.01 0.01 0.01 0.01 0.02 0.04 0.03 0.04 0.05 0.08 0.10 0.12 0.14 0.17 0.22 0.33 0.36 0.31 0.31 0.30 0.30 0.32 0.31 0.30 0.34 0.32 0.27 0.21 0.20 0.21 0.25 0.26
0.36 0.40 0.38 0.27 0.16 0.12 0.10 0.09 0.05 0.02 0.02 0.01 0.01 0.00 0.01 0.03 0.08 0.06 0.06 0.07 0.14 0.17 0.17 0.23 0.30 0.31 0.57 0.40 0.19 0.20 0.26 0.30 0.35 0.27 0.21 0.21 0.23 0.24 0.20 0.16 0.16 0.16 0.18
0.35 0.35 0.35 0.28 0.20 0.14 0.16 0.13 0.11 0.07 0.05 0.05 0.05 0.03 0.09 0.06 0.15 0.11 0.09 0.06 0.14 0.16 0.16 0.23 0.46 0.26 0.37 0.27 0.15 0.14 0.22 0.27 0.27 0.29 0.29 0.29 0.26 0.28 0.30 0.24 0.25 0.29 0.33
0.18 0.21 0.25 0.21 0.20 0.15 0.19 0.16 0.15 0.16 0.16 0.20 0.22 0.18 0.16 0.22 0.21 0.26 0.18 0.12 0.12 0.18 0.28 0.32 0.47 0.73 0.48 0.49 0.43 0.37 0.62 0.64 0.67 0.52 0.46 0.45 0.43 0.40 0.39 0.34 0.27 0.25 0.23
0.17 0.10 0.11 0.19 0.21 0.22 0.19 0.18 0.18 0.24 0.28 0.29 0.35 0.40 0.40 0.39 0.63 0.51 0.53 0.81 1.04 0.82 0.93 0.85 0.95 0.96 0.83 0.91 0.90 1.00 1.01 0.85 0.76 0.77 0.73 0.70 0.62 0.54 0.40 0.29 0.22 0.16 0.11
0.09 0.12 0.15 0.17 0.22 0.28 0.33 0.33 0.33 0.35 0.39 0.35 0.40 0.53 0.59 0.61 0.84 0.98 0.81 0.92 1.05 1.00 1.25 1.47 1.57 1.38 1.22 1.25 1.30 1.33 1.33 1.27 1.24 1.18 1.09 0.94 0.70 0.48 0.34 0.24 0.16 0.09 0.05
0.04 0.07 0.10 0.14 0.22 0.25 0.31 0.36 0.46 0.57 0.71 0.85 0.94 0.95 0.89 0.83 0.86 1.01 1.16 1.26 1.43 1.61 2.01 2.18 2.19 2.13 2.03 1.95 1.86 1.68 1.47 1.26 1.05 0.83 0.63 0.45 0.32 0.23 0.17 0.13 0.10 0.06 0.04
0.05 0.05 0.09 0.14 0.17 0.18 0.27 0.42 0.48 0.67 0.83 0.87 0.95 1.03 1.12 1.28 1.54 1.54 1.51 1.52 1.55 1.60 1.65 1.71 1.65 1.46 1.25 1.05 0.86 0.67 0.49 0.35 0.26 0.20 0.15 0.11 0.08 0.06 0.04 0.02 0.02 0.01 0.01
0.18 0.16 0.17 0.13 0.19 0.28 0.34 0.52 0.74 0.81 0.83 0.93 1.06 1.15 1.54 1.68 1.76 1.61 1.52 1.46 1.35 1.19 0.93 0.80 0.70 0.57 0.45 0.35 0.24 0.17 0.12 0.09 0.07 0.05 0.04 0.03 0.02 0.02 0.01 0.00 0.00 0.01 0.01
0.54 0.53 0.51 0.45 0.40 0.42 0.47 0.55 0.89 1.30 1.48 1.66 1.68 1.62 1.53 1.56 1.36 1.15 0.92 0.75 0.64 0.49 0.43 0.41 0.35 0.27 0.20 0.12 0.09 0.06 0.04 0.03 0.01 0.01 0.01 0.01 0.01 0.01 0.01 0.01 0.01 0.01 0.01
0.82 0.89 0.99 1.21 1.32 1.40 1.45 1.45 1.35 1.30 1.21 1.22 1.18 1.03 0.89 0.74 0.65 0.59 0.48 0.34 0.29 0.23 0.18 0.13 0.09 0.05 0.03 0.02 0.01 0.01 0.00 0.00 0.00 0.00 0.00 0.01 0.01 0.01 0.01 0.01 0.01 0.01 0.01
0.40 0.57 0.67 0.72 0.68 0.61 0.60 0.61 0.62 0.61 0.56 0.56 0.51 0.43 0.41 0.31 0.23 0.18 0.11 0.06 0.05 0.03 0.01 0.00 0.00 0.00 0.00 0.00 0.00 0.00 0.00 0.00 0.00 0.00 0.00 0.01 0.01 0.01 0.01 0.01 0.01 0.01 0.01
0.32 0.35 0.29 0.29 0.33 0.33 0.32 0.28 0.26 0.23 0.21 0.20 0.21 0.24 0.17 0.06 0.02 0.01 0.01 0.00 0.00 0.00 0.00 0.00 0.00 0.00 0.00 0.00 0.00 0.00 0.00 0.00 0.00 0.00 0.00 0.00 0.00 0.01 0.01 0.01 0.01 0.01 0.01
0.21 0.22 0.19 0.16 0.16 0.15 0.12 0.10 0.09 0.07 0.06 0.06 0.05 0.02 0.00 0.00 0.00 0.00 0.00 0.00 0.00 0.00 0.00 0.00 0.00 0.00 0.00 0.00 0.00 0.00 0.00 0.00 0.00 0.00 0.00 0.00 0.00 0.00 0.00 0.01 0.01 0.01 0.01
0.10 0.10 0.09 0.08 0.08 0.07 0.06 0.04 0.03 0.01 0.01 0.01 0.01 0.00 0.00 0.00 0.00 0.00 0.00 0.00 0.00 0.00 0.00 0.00 0.00 0.00 0.00 0.00 0.00 0.00 0.00 0.00 0.00 0.00 0.00 0.00 0.00 0.00 0.01 0.01 0.01 0.01 0.01
0.09 0.08 0.07 0.07 0.06 0.04 0.02 0.01 0.00 0.00 0.00 0.00 0.00 0.00 0.00 0.00 0.00 0.00 0.00 0.00 0.00 0.00 0.00 0.00 0.00 0.00 0.00 0.00 0.00 0.00 0.00 0.00 0.01 0.00 0.01 0.01 0.01 0.01 0.01 0.01 0.01 0.01 0.01
0.07 0.06 0.05 0.03 0.01 0.00 0.00 0.00 0.00 0.00 0.00 0.00 0.00 0.00 0.00 0.00 0.00 0.00 0.00 0.00 0.00 0.00 0.00 0.00 0.00 0.00 0.00 0.00 0.00 0.00 0.00 0.00 0.00 0.00 0.01 0.01 0.01 0.00 0.01 0.01 0.01 0.01 0.01
0.02 0.01 0.00 0.00 0.00 0.00 0.00 0.00 0.00 0.00 0.00 0.00 0.00 0.00 0.00 0.00 0.00 0.00 0.00 0.00 0.00 0.00 0.00 0.00 0.00 0.00 0.00 0.00 0.00 0.01 0.01 0.00 0.00 0.00 0.00 0.01 0.01 0.01 0.01 0.01 0.01 0.01 0.01
0.00 0.00 0.00 0.00 0.00 0.00 0.00 0.00 0.00 0.00 0.00 0.00 0.00 0.00 0.00 0.00 0.00 0.00 0.00 0.00 0.00 0.00 0.00 0.00 0.00 0.00 0.00 0.00 0.01 0.01 0.00 0.00 0.00 0.00 0.01 0.01 0.01 0.01 0.01 0.02 0.01 0.02 0.01

GFSGL_prec_precacc24_111.txt.gz
Total_Precipitation_Accumulation
0.01 0.01 0.01 0.01 0.00 0.00 0.00 0.00 0.00 0.00 0.00 0.02 0.03 0.02 0.07 0.14 0.24 0.27 0.19 0.21 0.28 0.35 0.42 0.43 0.30 0.30 0.22 0.11 0.18 0.22 0.16 0.20 0.15 0.05 0.07 0.08 0.08 0.07 0.09 0.07 0.06 0.08 0.07
0.02 0.02 0.01 0.01 0.01 0.00 0.00 0.00 0.00 0.00 0.00 0.00 0.01 0.01 0.02 0.07 0.12 0.16 0.18 0.23 0.18 0.20 0.23 0.29 0.20 0.30 0.24 0.11 0.17 0.10 0.09 0.11 0.14 0.06 0.06 0.10 0.07 0.06 0.07 0.11 0.14 0.09 0.03
0.02 0.01 0.01 0.01 0.01 0.01 0.00 0.00 0.00 0.00 0.00 0.00 0.01 0.01 0.01 0.05 0.06 0.07 0.09 0.12 0.22 0.20 0.22 0.18 0.12 0.18 0.13 0.11 0.11 0.08 0.05 0.10 0.17 0.19 0.15 0.16 0.19 0.19 0.21 0.17 0.11 0.09 0.09
0.05 0.05 0.06 0.08 0.05 0.02 0.00 0.00 0.01 0.00 0.00 0.00 0.00 0.01 0.00 0.01 0.02 0.02 0.03 0.04 0.07 0.11 0.13 0.13 0.12 0.12 0.08 0.13 0.13 0.11 0.14 0.16 0.20 0.22 0.23 0.21 0.21 0.20 0.22 0.24 0.24 0.23 0.23
0.20 0.14 0.12 0.09 0.05 0.02 0.01 0.00 0.00 0.01 0.00 0.00 0.00 0.00 0.01 0.01 0.00 0.01 0.01 0.00 0.01 0.02 0.03 0.05 0.04 0.04 0.08 0.11 0.14 0.13 0.17 0.26 0.31 0.33 0.29 0.25 0.25 0.26 0.25 0.25 0.39 0.45 0.52
0.38 0.34 0.21 0.13 0.07 0.02 0.00 0.00 0.00 0.01 0.00 0.00 0.00 0.00 0.00 0.00 0.01 0.01 0.01 0.03 0.05 0.04 0.03 0.02 0.03 0.12 0.11 0.18 0.23 0.27 0.28 0.27 0.27 0.38 0.46 0.48 0.44 0.42 0.41 0.43 0.52 0.62 0.65
0.58 0.50 0.34 0.21 0.08 0.02 0.00 0.00 0.00 0.00 0.00 0.00 0.00 0.00 0.00 0.01 0.00 0.00 0.00 0.01 0.04 0.06 0.06 0.09 0.12 0.15 0.19 0.10 0.28 0.30 0.33 0.46 0.45 0.42 0.46 0.50 0.51 0.49 0.45 0.43 0.44 0.47 0.48
0.50 0.47 0.39 0.21 0.10 0.05 0.02 0.02 0.01 0.01 0.00 0.01 0.00 0.00 0.01 0.00 0.01 0.00 0.01 0.05 0.08 0.10 0.10 0.11 0.14 0.18 0.27 0.31 0.30 0.31 0.29 0.28 0.30 0.29 0.30 0.33 0.32 0.28 0.22 0.22 0.24 0.29 0.31
0.45 0.47 0.43 0.31 0.17 0.12 0.10 0.09 0.05 0.02 0.02 0.01 0.01 0.01 0.01 0.02 0.05 0.04 0.05 0.07 0.14 0.16 0.16 0.19 0.25 0.26 0.47 0.36 0.18 0.20 0.29 0.34 0.40 0.31 0.24 0.25 0.28 0.29 0.24 0.18 0.18 0.20 0.24
0.48 0.47 0.46 0.36 0.25 0.15 0.16 0.13 0.11 0.08 0.05 0.05 0.05 0.03 0.08 0.05 0.12 0.10 0.09 0.06 0.14 0.17 0.17 0.20 0.40 0.24 0.36 0.27 0.16 0.14 0.22 0.29 0.29 0.31 0.32 0.31 0.27 0.29 0.32 0.26 0.27 0.32 0.40
0.51 0.43 0.56 0.42 0.31 0.20 0.21 0.19 0.17 0.16 0.17 0.20 0.23 0.18 0.16 0.22 0.20 0.25 0.17 0.11 0.12 0.18 0.28 0.34 0.51 0.80 0.54 0.58 0.52 0.46 0.77 0.78 0.81 0.60 0.52 0.50 0.47 0.44 0.43 0.39 0.33 0.33 0.34
0.69 0.56 0.37 0.52 0.44 0.35 0.25 0.22 0.19 0.25 0.31 0.31 0.36 0.41 0.42 0.40 0.62 0.50 0.54 0.85 1.09 0.89 1.06 1.01 1.11 1.15 1.07 1.20 1.17 1.27 1.25 1.05 0.91 0.90 0.88 0.87 0.81 0.72 0.57 0.42 0.33 0.26 0.21
0.43 0.45 0.42 0.37 0.34 0.36 0.39 0.36 0.33 0.35 0.40 0.37 0.42 0.55 0.61 0.62 0.85 1.01 0.86 1.00 1.15 1.07 1.33 1.58 1.70 1.52 1.38 1.41 1.49 1.52 1.49 1.41 1.39 1.33 1.22 1.05 0.79 0.55 0.39 0.28 0.20 0.13 0.08
0.08 0.12 0.13 0.18 0.23 0.24 0.30 0.36 0.45 0.57 0.72 0.86 0.95 0.97 0.91 0.85 0.87 1.01 1.17 1.28 1.47 1.66 2.07 2.25 2.26 2.20 2.08 2.02 1.93 1.75 1.54 1.33 1.10 0.87 0.65 0.47 0.33 0.24 0.17 0.13 0.10 0.07 0.04
0.02 0.02 0.05 0.10 0.14 0.17 0.27 0.40 0.46 0.66 0.82 0.86 0.95 1.02 1.12 1.26 1.51 1.52 1.49 1.51 1.54 1.61 1.66 1.73 1.67 1.47 1.25 1.06 0.87 0.68 0.49 0.35 0.26 0.19 0.15 0.11 0.08 0.05 0.04 0.02 0.01 0.01 0.01
0.14 0.12 0.14 0.11 0.18 0.28 0.34 0.50 0.69 0.76 0.76 0.84 0.97 1.07 1.45 1.61 1.72 1.60 1.53 1.47 1.36 1.19 0.94 0.81 0.70 0.57 0.45 0.35 0.24 0.17 0.12 0.09 0.07 0.05 0.04 0.02 0.02 0.01 0.01 0.00 0.00 0.00 0.01
0.48 0.47 0.47 0.43 0.39 0.38 0.40 0.44 0.72 1.06 1.25 1.45 1.51 1.50 1.46 1.53 1.35 1.15 0.93 0.76 0.64 0.49 0.43 0.41 0.35 0.27 0.19 0.12 0.09 0.06 0.04 0.02 0.01 0.00 0.00 0.00 0.00 0.00 0.00 0.00 0.00 0.00 0.01
0.59 0.64 0.73 0.90 0.99 1.06 1.12 1.15 1.13 1.14 1.09 1.13 1.14 1.02 0.89 0.74 0.66 0.59 0.48 0.34 0.29 0.23 0.18 0.13 0.09 0.05 0.03 0.02 0.01 0.00 0.00 0.00 0.00 0.00 0.00 0.00 0.00 0.00 0.00 0.00 0.00 0.01 0.00
0.13 0.22 0.36 0.47 0.51 0.49 0.50 0.53 0.56 0.57 0.54 0.55 0.50 0.43 0.42 0.32 0.23 0.18 0.11 0.06 0.05 0.03 0.01 0.00 0.00 0.00 0.00 0.00 0.00 0.00 0.00 0.00 0.00 0.00 0.00 0.00 0.00 0.00 0.00 0.00 0.00 0.00 0.00
0.13 0.16 0.16 0.19 0.23 0.25 0.25 0.23 0.23 0.21 0.19 0.19 0.20 0.24 0.16 0.06 0.02 0.01 0.00 0.00 0.00 0.00 0.00 0.00 0.00 0.00 0.00 0.00 0.00 0.00 0.00 0.00 0.00 0.00 0.00 0.00 0.00 0.00 0.00 0.00 0.00 0.00 0.00
0.10 0.11 0.08 0.08 0.10 0.11 0.10 0.08 0.07 0.06 0.06 0.05 0.05 0.03 0.00 0.00 0.00 0.00 0.00 0.00 0.00 0.00 0.00 0.00 0.00 0.00 0.00 0.00 0.00 0.00 0.00 0.00 0.00 0.00 0.00 0.00 0.00 0.00 0.00 0.00 0.00 0.00 0.00
0.08 0.08 0.08 0.07 0.07 0.07 0.06 0.04 0.03 0.01 0.01 0.01 0.01 0.00 0.00 0.00 0.00 0.00 0.00 0.00 0.00 0.00 0.00 0.00 0.00 0.00 0.00 0.00 0.00 0.00 0.00 0.00 0.00 0.00 0.00 0.00 0.00 0.00 0.00 0.00 0.00 0.00 0.01
0.09 0.08 0.07 0.07 0.06 0.04 0.03 0.01 0.00 0.00 0.00 0.00 0.00 0.00 0.00 0.00 0.00 0.00 0.00 0.00 0.00 0.00 0.00 0.00 0.00 0.00 0.00 0.00 0.00 0.00 0.00 0.00 0.00 0.00 0.00 0.00 0.00 0.00 0.00 0.00 0.01 0.01 0.00
0.08 0.07 0.05 0.04 0.02 0.00 0.00 0.00 0.00 0.00 0.00 0.00 0.00 0.00 0.00 0.00 0.00 0.00 0.00 0.00 0.00 0.00 0.00 0.00 0.00 0.00 0.00 0.00 0.01 0.00 0.00 0.01 0.00 0.00 0.00 0.00 0.00 0.00 0.00 0.01 0.00 0.00 0.00
0.02 0.02 0.00 0.00 0.00 0.00 0.00 0.00 0.00 0.00 0.00 0.00 0.00 0.00 0.00 0.00 0.00 0.00 0.00 0.00 0.00 0.00 0.00 0.00 0.00 0.00 0.00 0.00 0.00 0.01 0.01 0.00 0.00 0.00 0.00 0.00 0.01 0.00 0.00 0.00 0.01 0.00 0.01
0.00 0.00 0.00 0.00 0.00 0.00 0.00 0.00 0.00 0.00 0.01 0.00 0.00 0.00 0.00 0.00 0.00 0.00 0.00 0.00 0.00 0.00 0.00 0.00 0.00 0.00 0.00 0.00 0.01 0.01 0.00 0.00 0.00 0.00 0.01 0.01 0.01 0.01 0.01 0.01 0.01 0.01 0.01

GFSGL_prec_precacc24_114.txt.gz
Total_Precipitation_Accumulation
0.01 0.01 0.01 0.01 0.00 0.00 0.01 0.00 0.00 0.00 0.00 0.02 0.03 0.02 0.05 0.11 0.19 0.24 0.19 0.20 0.27 0.34 0.37 0.40 0.34 0.36 0.26 0.17 0.15 0.16 0.13 0.15 0.10 0.04 0.07 0.12 0.15 0.15 0.12 0.11 0.12 0.17 0.10
0.02 0.02 0.01 0.01 0.01 0.01 0.01 0.00 0.00 0.00 0.00 0.00 0.01 0.01 0.02 0.06 0.09 0.12 0.16 0.24 0.19 0.21 0.25 0.31 0.30 0.44 0.35 0.23 0.21 0.12 0.11 0.10 0.11 0.04 0.04 0.10 0.11 0.10 0.08 0.11 0.14 0.15 0.09
0.03 0.02 0.02 0.02 0.02 0.02 0.02 0.00 0.00 0.00 0.00 0.00 0.01 0.01 0.01 0.05 0.05 0.07 0.09 0.12 0.23 0.25 0.27 0.21 0.19 0.28 0.27 0.26 0.24 0.14 0.08 0.10 0.13 0.13 0.09 0.10 0.12 0.16 0.19 0.17 0.13 0.09 0.09
0.07 0.07 0.08 0.09 0.07 0.05 0.02 0.00 0.00 0.00 0.00 0.00 0.00 0.01 0.00 0.00 0.02 0.03 0.04 0.05 0.09 0.16 0.24 0.22 0.20 0.18 0.16 0.24 0.28 0.19 0.16 0.17 0.19 0.19 0.17 0.19 0.20 0.18 0.19 0.22 0.25 0.24 0.24
0.24 0.18 0.14 0.11 0.07 0.06 0.04 0.01 0.00 0.00 0.00 0.00 0.00 0.00 0.00 0.00 0.00 0.01 0.01 0.01 0.01 0.03 0.06 0.09 0.11 0.12 0.18 0.19 0.23 0.17 0.17 0.25 0.30 0.29 0.24 0.22 0.22 0.23 0.22 0.20 0.35 0.46 0.55
0.43 0.38 0.23 0.16 0.16 0.11 0.06 0.03 0.01 0.01 0.01 0.00 0.00 0.00 0.00 0.00 0.01 0.01 0.01 0.02 0.04 0.03 0.03 0.02 0.05 0.13 0.09 0.12 0.17 0.21 0.23 0.26 0.27 0.34 0.42 0.45 0.38 0.35 0.34 0.38 0.50 0.62 0.67
0.64 0.55 0.37 0.27 0.23 0.16 0.10 0.05 0.02 0.01 0.01 0.00 0.00 0.00 0.00 0.00 0.00 0.00 0.00 0.01 0.03 0.03 0.03 0.03 0.03 0.06 0.13 0.08 0.20 0.25 0.27 0.39 0.40 0.37 0.41 0.43 0.42 0.38 0.35 0.37 0.40 0.47 0.52
0.63 0.59 0.49 0.32 0.26 0.20 0.12 0.08 0.03 0.01 0.01 0.01 0.00 0.00 0.01 0.00 0.01 0.00 0.00 0.03 0.04 0.03 0.04 0.05 0.10 0.15 0.22 0.28 0.27 0.28 0.25 0.22 0.22 0.21 0.22 0.27 0.26 0.23 0.20 0.21 0.24 0.33 0.39
0.60 0.58 0.54 0.45 0.29 0.21 0.15 0.12 0.06 0.03 0.02 0.02 0.01 0.01 0.01 0.02 0.04 0.02 0.03 0.04 0.07 0.09 0.11 0.16 0.23 0.25 0.40 0.33 0.17 0.17 0.25 0.28 0.37 0.32 0.26 0.27 0.29 0.30 0.27 0.20 0.20 0.24 0.32
0.67 0.62 0.60 0.45 0.33 0.21 0.18 0.14 0.12 0.09 0.06 0.06 0.05 0.04 0.07 0.04 0.08 0.07 0.06 0.04 0.08 0.13 0.15 0.19 0.38 0.23 0.34 0.28 0.16 0.14 0.22 0.28 0.29 0.33 0.35 0.35 0.31 0.33 0.38 0.29 0.28 0.41 0.52
0.85 0.63 0.78 0.60 0.39 0.27 0.25 0.20 0.18 0.17 0.16 0.19 0.22 0.17 0.14 0.18 0.16 0.20 0.14 0.09 0.11 0.16 0.27 0.34 0.51 0.82 0.57 0.63 0.56 0.47 0.83 0.84 0.88 0.64 0.55 0.53 0.49 0.47 0.48 0.46 0.43 0.46 0.51
1.20 1.00 0.78 1.01 0.78 0.52 0.41 0.30 0.21 0.23 0.27 0.30 0.35 0.38 0.39 0.36 0.57 0.45 0.50 0.81 1.07 0.88 1.06 1.01 1.13 1.17 1.12 1.31 1.30 1.43 1.40 1.18 1.02 0.99 0.95 0.95 0.89 0.79 0.65 0.50 0.40 0.33 0.28
0.87 0.97 1.03 0.88 0.98 0.92 0.72 0.66 0.46 0.38 0.39 0.35 0.39 0.52 0.58 0.60 0.83 0.98 0.84 1.01 1.19 1.10 1.36 1.64 1.74 1.57 1.45 1.53 1.64 1.66 1.60 1.50 1.48 1.41 1.30 1.12 0.86 0.61 0.42 0.30 0.20 0.13 0.08
0.42 0.48 0.55 0.68 0.67 0.74 0.74 0.75 0.71 0.66 0.71 0.79 0.87 0.94 0.88 0.82 0.85 1.00 1.16 1.27 1.49 1.71 2.15 2.33 2.33 2.24 2.11 2.05 1.98 1.79 1.56 1.36 1.13 0.90 0.68 0.49 0.35 0.24 0.17 0.13 0.10 0.07 0.04
0.07 0.05 0.09 0.20 0.27 0.32 0.45 0.57 0.59 0.70 0.81 0.83 0.87 0.94 1.06 1.20 1.40 1.40 1.34 1.36 1.42 1.53 1.60 1.69 1.65 1.47 1.27 1.08 0.89 0.70 0.51 0.36 0.26 0.20 0.15 0.11 0.08 0.05 0.04 0.02 0.01 0.01 0.00
0.08 0.07 0.08 0.06 0.13 0.21 0.28 0.43 0.60 0.67 0.69 0.78 0.89 0.95 1.27 1.39 1.48 1.38 1.36 1.36 1.29 1.15 0.91 0.80 0.70 0.57 0.45 0.35 0.24 0.17 0.12 0.09 0.06 0.05 0.03 0.02 0.01 0.01 0.00 0.00 0.00 0.00 0.00
0.26 0.25 0.28 0.28 0.26 0.25 0.25 0.29 0.55 0.81 1.00 1.19 1.24 1.24 1.24 1.32 1.21 1.08 0.90 0.74 0.63 0.48 0.42 0.40 0.35 0.27 0.19 0.12 0.09 0.06 0.04 0.02 0.01 0.00 0.00 0.00 0.00 0.00 0.00 0.00 0.00 0.00 0.00
0.19 0.24 0.30 0.41 0.50 0.57 0.63 0.70 0.74 0.77 0.80 0.93 1.00 0.94 0.84 0.71 0.62 0.55 0.45 0.32 0.29 0.23 0.18 0.13 0.09 0.05 0.03 0.02 0.01 0.00 0.00 0.00 0.00 0.00 0.00 0.00 0.00 0.00 0.00 0.00 0.00 0.00 0.00
0.05 0.07 0.14 0.24 0.29 0.32 0.35 0.39 0.42 0.43 0.42 0.46 0.44 0.39 0.38 0.28 0.21 0.17 0.11 0.06 0.05 0.03 0.01 0.00 0.00 0.00 0.00 0.00 0.00 0.00 0.00 0.00 0.00 0.00 0.00 0.00 0.00 0.00 0.00 0.00 0.00 0.00 0.00
0.07 0.07 0.05 0.07 0.11 0.14 0.15 0.14 0.15 0.14 0.13 0.14 0.16 0.20 0.14 0.05 0.02 0.01 0.00 0.00 0.00 0.00 0.00 0.00 0.00 0.00 0.00 0.00 0.00 0.00 0.00 0.00 0.00 0.00 0.00 0.00 0.00 0.00 0.00 0.00 0.00 0.00 0.00
0.09 0.08 0.05 0.04 0.06 0.07 0.07 0.07 0.06 0.05 0.04 0.04 0.05 0.02 0.00 0.00 0.00 0.00 0.00 0.00 0.00 0.00 0.00 0.00 0.00 0.00 0.00 0.00 0.00 0.00 0.00 0.00 0.00 0.00 0.00 0.00 0.00 0.00 0.00 0.00 0.00 0.00 0.00
0.08 0.08 0.07 0.07 0.07 0.06 0.05 0.04 0.03 0.01 0.01 0.00 0.00 0.00 0.00 0.00 0.00 0.00 0.00 0.00 0.00 0.00 0.00 0.00 0.00 0.00 0.00 0.00 0.00 0.00 0.00 0.00 0.00 0.00 0.00 0.00 0.00 0.00 0.00 0.00 0.00 0.00 0.00
0.09 0.08 0.07 0.07 0.06 0.05 0.03 0.02 0.00 0.00 0.00 0.00 0.00 0.00 0.00 0.00 0.00 0.00 0.00 0.00 0.00 0.00 0.00 0.00 0.00 0.00 0.00 0.00 0.00 0.00 0.00 0.00 0.00 0.00 0.00 0.00 0.00 0.00 0.00 0.00 0.00 0.00 0.00
0.09 0.08 0.06 0.04 0.02 0.00 0.00 0.00 0.00 0.00 0.00 0.00 0.00 0.00 0.00 0.00 0.00 0.00 0.00 0.00 0.00 0.00 0.00 0.00 0.00 0.00 0.00 0.01 0.00 0.00 0.00 0.01 0.00 0.00 0.00 0.00 0.00 0.00 0.00 0.00 0.00 0.00 0.00
0.03 0.03 0.01 0.00 0.00 0.00 0.00 0.00 0.00 0.00 0.00 0.00 0.00 0.00 0.00 0.00 0.00 0.00 0.00 0.00 0.00 0.00 0.00 0.00 0.00 0.00 0.00 0.00 0.00 0.00 0.00 0.00 0.00 0.00 0.00 0.00 0.00 0.00 0.00 0.00 0.00 0.00 0.00
0.00 0.00 0.00 0.00 0.00 0.00 0.00 0.00 0.00 0.00 0.00 0.00 0.00 0.00 0.00 0.00 0.00 0.00 0.00 0.00 0.00 0.00 0.00 0.00 0.00 0.00 0.00 0.00 0.01 0.00 0.00 0.00 0.00 0.00 0.00 0.00 0.00 0.00 0.00 0.00 0.00 0.01 0.00

GFSGL_prec_precacc24_117.txt.gz
Total_Precipitation_Accumulation
0.01 0.01 0.01 0.00 0.00 0.00 0.01 0.01 0.01 0.01 0.01 0.02 0.03 0.02 0.06 0.12 0.19 0.21 0.17 0.19 0.27 0.33 0.32 0.33 0.31 0.31 0.32 0.33 0.27 0.25 0.18 0.15 0.10 0.04 0.07 0.14 0.17 0.20 0.17 0.17 0.16 0.19 0.11
0.02 0.02 0.01 0.00 0.01 0.02 0.01 0.01 0.02 0.01 0.01 0.00 0.01 0.01 0.02 0.06 0.09 0.13 0.14 0.19 0.16 0.19 0.22 0.24 0.29 0.42 0.41 0.36 0.31 0.22 0.17 0.13 0.12 0.05 0.04 0.12 0.13 0.14 0.16 0.16 0.16 0.16 0.11
0.03 0.02 0.03 0.04 0.04 0.03 0.03 0.02 0.02 0.01 0.01 0.00 0.01 0.01 0.02 0.06 0.06 0.08 0.09 0.10 0.20 0.23 0.26 0.19 0.18 0.27 0.29 0.31 0.31 0.21 0.15 0.16 0.14 0.13 0.09 0.08 0.11 0.16 0.18 0.16 0.13 0.09 0.07
0.07 0.08 0.09 0.11 0.09 0.07 0.05 0.04 0.03 0.02 0.01 0.00 0.01 0.01 0.00 0.01 0.03 0.03 0.04 0.05 0.08 0.16 0.24 0.20 0.21 0.20 0.18 0.25 0.33 0.29 0.23 0.20 0.20 0.17 0.13 0.10 0.10 0.10 0.14 0.17 0.20 0.19 0.21
0.24 0.19 0.16 0.12 0.09 0.07 0.06 0.06 0.05 0.02 0.01 0.00 0.01 0.00 0.01 0.01 0.01 0.02 0.01 0.01 0.01 0.03 0.07 0.09 0.16 0.24 0.34 0.30 0.34 0.34 0.32 0.31 0.28 0.28 0.25 0.19 0.17 0.18 0.16 0.18 0.35 0.43 0.50
0.43 0.38 0.24 0.18 0.17 0.13 0.09 0.08 0.07 0.04 0.01 0.01 0.01 0.01 0.01 0.01 0.02 0.02 0.01 0.01 0.01 0.01 0.02 0.03 0.10 0.27 0.22 0.23 0.29 0.32 0.32 0.34 0.31 0.34 0.40 0.43 0.35 0.37 0.36 0.38 0.47 0.57 0.62
0.65 0.57 0.40 0.30 0.25 0.21 0.13 0.10 0.10 0.06 0.02 0.01 0.01 0.01 0.00 0.00 0.01 0.01 0.01 0.01 0.01 0.02 0.02 0.03 0.04 0.09 0.17 0.13 0.24 0.24 0.26 0.37 0.39 0.38 0.40 0.39 0.39 0.36 0.32 0.34 0.38 0.45 0.51
0.65 0.63 0.57 0.39 0.31 0.30 0.20 0.15 0.12 0.08 0.05 0.03 0.01 0.01 0.01 0.01 0.01 0.01 0.01 0.01 0.02 0.02 0.02 0.02 0.02 0.01 0.05 0.13 0.19 0.27 0.27 0.24 0.25 0.21 0.17 0.20 0.22 0.21 0.20 0.23 0.27 0.37 0.44
0.62 0.62 0.56 0.47 0.33 0.34 0.31 0.27 0.17 0.10 0.07 0.05 0.02 0.01 0.02 0.01 0.03 0.02 0.01 0.01 0.04 0.04 0.04 0.06 0.07 0.04 0.15 0.21 0.12 0.12 0.21 0.26 0.34 0.30 0.25 0.28 0.32 0.33 0.30 0.22 0.23 0.30 0.41
0.76 0.70 0.60 0.49 0.37 0.33 0.28 0.28 0.29 0.17 0.11 0.08 0.05 0.04 0.06 0.02 0.06 0.05 0.05 0.03 0.06 0.08 0.09 0.11 0.27 0.19 0.29 0.25 0.14 0.13 0.21 0.28 0.28 0.33 0.37 0.38 0.33 0.36 0.44 0.32 0.32 0.47 0.60
1.06 0.84 0.90 0.73 0.49 0.39 0.34 0.28 0.23 0.20 0.19 0.21 0.22 0.16 0.12 0.16 0.13 0.17 0.13 0.08 0.07 0.10 0.20 0.26 0.41 0.74 0.57 0.64 0.56 0.47 0.83 0.84 0.90 0.66 0.57 0.55 0.51 0.50 0.52 0.52 0.51 0.55 0.62
1.41 1.30 1.01 1.19 0.98 0.70 0.55 0.41 0.27 0.26 0.30 0.32 0.34 0.36 0.35 0.32 0.50 0.40 0.46 0.78 1.00 0.83 0.98 0.93 1.05 1.12 1.12 1.34 1.35 1.52 1.49 1.25 1.06 1.02 0.99 0.99 0.93 0.84 0.70 0.55 0.46 0.38 0.33
1.07 1.28 1.29 1.24 1.46 1.27 1.00 0.86 0.58 0.45 0.42 0.37 0.40 0.49 0.53 0.54 0.75 0.91 0.79 0.97 1.16 1.08 1.31 1.56 1.66 1.52 1.44 1.54 1.69 1.72 1.67 1.55 1.53 1.47 1.36 1.18 0.91 0.65 0.45 0.31 0.20 0.13 0.08
0.62 0.70 0.82 1.08 1.20 1.29 1.34 1.21 1.01 0.84 0.77 0.81 0.84 0.85 0.76 0.68 0.72 0.88 1.06 1.20 1.42 1.61 2.04 2.22 2.22 2.16 2.05 2.00 1.99 1.82 1.58 1.41 1.17 0.93 0.72 0.53 0.37 0.25 0.17 0.13 0.10 0.07 0.04
0.25 0.25 0.26 0.41 0.61 0.76 0.96 1.09 1.15 1.10 0.99 0.91 0.86 0.85 0.92 0.99 1.10 1.05 1.01 1.06 1.23 1.42 1.50 1.57 1.55 1.41 1.24 1.08 0.90 0.71 0.53 0.40 0.30 0.23 0.16 0.12 0.08 0.05 0.04 0.02 0.01 0.01 0.00
0.10 0.13 0.16 0.15 0.23 0.35 0.47 0.65 0.81 0.93 0.91 0.94 1.00 0.98 1.15 1.22 1.27 1.19 1.20 1.20 1.13 1.02 0.84 0.76 0.67 0.55 0.44 0.35 0.24 0.17 0.12 0.09 0.06 0.05 0.03 0.02 0.01 0.01 0.00 0.00 0.00 0.00 0.00
0.02 0.04 0.07 0.11 0.16 0.22 0.24 0.29 0.52 0.70 0.81 0.94 0.95 0.92 0.90 0.97 0.91 0.86 0.77 0.67 0.59 0.46 0.40 0.39 0.34 0.27 0.19 0.12 0.09 0.06 0.04 0.02 0.01 0.00 0.00 0.00 0.00 0.00 0.00 0.00 0.00 0.00 0.00
0.01 0.02 0.03 0.07 0.11 0.16 0.21 0.27 0.31 0.34 0.36 0.48 0.54 0.52 0.54 0.52 0.49 0.45 0.37 0.27 0.26 0.21 0.17 0.13 0.09 0.05 0.03 0.02 0.01 0.00 0.00 0.00 0.00 0.00 0.00 0.00 0.00 0.00 0.00 0.00 0.00 0.00 0.00
0.02 0.03 0.02 0.04 0.05 0.07 0.10 0.13 0.15 0.18 0.19 0.25 0.25 0.23 0.25 0.19 0.16 0.13 0.09 0.05 0.05 0.03 0.01 0.00 0.00 0.00 0.00 0.00 0.00 0.00 0.00 0.00 0.00 0.00 0.00 0.00 0.00 0.00 0.00 0.00 0.00 0.00 0.00
0.05 0.04 0.02 0.02 0.03 0.03 0.05 0.05 0.07 0.07 0.07 0.09 0.10 0.14 0.09 0.03 0.01 0.01 0.00 0.00 0.00 0.00 0.00 0.00 0.00 0.00 0.00 0.00 0.00 0.00 0.00 0.00 0.00 0.00 0.00 0.00 0.00 0.00 0.00 0.00 0.00 0.00 0.00
0.07 0.07 0.04 0.03 0.04 0.04 0.04 0.04 0.04 0.04 0.03 0.04 0.04 0.02 0.00 0.00 0.00 0.00 0.00 0.00 0.00 0.00 0.00 0.00 0.00 0.00 0.00 0.00 0.00 0.00 0.00 0.00 0.00 0.00 0.00 0.00 0.00 0.00 0.00 0.00 0.00 0.00 0.00
0.06 0.06 0.06 0.06 0.06 0.05 0.04 0.03 0.02 0.01 0.01 0.00 0.00 0.00 0.00 0.00 0.00 0.00 0.00 0.01 0.00 0.00 0.00 0.00 0.00 0.00 0.00 0.00 0.00 0.00 0.00 0.00 0.00 0.00 0.00 0.00 0.00 0.00 0.00 0.00 0.00 0.00 0.00
0.08 0.08 0.07 0.07 0.06 0.05 0.03 0.02 0.00 0.00 0.00 0.00 0.00 0.00 0.00 0.00 0.00 0.00 0.00 0.00 0.00 0.00 0.00 0.00 0.00 0.00 0.00 0.00 0.00 0.00 0.00 0.00 0.00 0.00 0.00 0.00 0.00 0.00 0.00 0.00 0.00 0.00 0.00
0.08 0.07 0.05 0.04 0.02 0.00 0.00 0.00 0.00 0.00 0.00 0.00 0.00 0.00 0.00 0.00 0.00 0.00 0.00 0.00 0.00 0.00 0.00 0.00 0.00 0.00 0.00 0.01 0.00 0.00 0.00 0.01 0.00 0.00 0.00 0.00 0.00 0.00 0.00 0.00 0.00 0.00 0.00
0.03 0.03 0.01 0.01 0.00 0.00 0.00 0.00 0.00 0.00 0.00 0.00 0.00 0.00 0.00 0.00 0.00 0.00 0.00 0.00 0.00 0.00 0.00 0.00 0.00 0.00 0.00 0.00 0.00 0.00 0.00 0.00 0.00 0.00 0.00 0.00 0.00 0.00 0.00 0.00 0.00 0.00 0.00
0.00 0.00 0.00 0.00 0.00 0.00 0.00 0.00 0.00 0.00 0.00 0.00 0.00 0.00 0.00 0.00 0.00 0.00 0.00 0.00 0.00 0.00 0.00 0.00 0.00 0.00 0.00 0.00 0.00 0.00 0.00 0.00 0.00 0.00 0.00 0.00 0.00 0.00 0.00 0.00 0.00 0.01 0.00

GFSGL_prec_precacc24_120.txt.gz
Total_Precipitation_Accumulation
0.01 0.01 0.01 0.00 0.00 0.00 0.01 0.01 0.02 0.02 0.01 0.04 0.05 0.03 0.06 0.13 0.20 0.22 0.18 0.18 0.25 0.32 0.31 0.30 0.31 0.31 0.33 0.37 0.32 0.33 0.34 0.26 0.17 0.12 0.10 0.15 0.17 0.22 0.20 0.20 0.17 0.19 0.12
0.02 0.02 0.01 0.00 0.01 0.02 0.02 0.01 0.02 0.03 0.01 0.02 0.03 0.03 0.03 0.06 0.10 0.14 0.15 0.19 0.15 0.19 0.21 0.22 0.29 0.37 0.40 0.38 0.37 0.33 0.29 0.22 0.16 0.11 0.08 0.13 0.13 0.14 0.16 0.14 0.14 0.17 0.12
0.03 0.02 0.03 0.04 0.04 0.04 0.03 0.03 0.03 0.04 0.02 0.02 0.03 0.03 0.02 0.06 0.07 0.08 0.10 0.11 0.20 0.23 0.25 0.18 0.18 0.26 0.30 0.31 0.32 0.29 0.26 0.25 0.20 0.17 0.12 0.10 0.13 0.16 0.19 0.18 0.14 0.07 0.04
0.07 0.08 0.09 0.11 0.09 0.09 0.08 0.07 0.06 0.04 0.02 0.01 0.02 0.02 0.01 0.01 0.03 0.04 0.05 0.06 0.09 0.16 0.24 0.20 0.20 0.18 0.19 0.26 0.34 0.31 0.29 0.27 0.21 0.18 0.12 0.09 0.09 0.10 0.15 0.20 0.22 0.21 0.21
0.24 0.19 0.16 0.12 0.08 0.07 0.07 0.08 0.06 0.04 0.03 0.02 0.03 0.02 0.01 0.01 0.02 0.02 0.02 0.03 0.04 0.05 0.08 0.10 0.18 0.28 0.41 0.43 0.52 0.44 0.38 0.35 0.31 0.30 0.27 0.20 0.17 0.16 0.15 0.21 0.39 0.49 0.53
0.42 0.38 0.24 0.18 0.17 0.14 0.10 0.09 0.10 0.09 0.07 0.06 0.02 0.02 0.01 0.01 0.03 0.03 0.02 0.01 0.02 0.03 0.04 0.05 0.12 0.34 0.32 0.40 0.48 0.55 0.50 0.48 0.36 0.30 0.31 0.35 0.34 0.37 0.41 0.47 0.55 0.62 0.63
0.61 0.54 0.38 0.29 0.26 0.22 0.14 0.11 0.12 0.13 0.10 0.09 0.07 0.03 0.01 0.00 0.01 0.02 0.02 0.01 0.02 0.03 0.02 0.02 0.04 0.13 0.25 0.24 0.39 0.42 0.41 0.47 0.39 0.32 0.39 0.38 0.37 0.35 0.39 0.41 0.42 0.48 0.55
0.60 0.60 0.51 0.35 0.28 0.32 0.22 0.17 0.15 0.16 0.16 0.12 0.08 0.02 0.01 0.01 0.02 0.02 0.02 0.01 0.03 0.02 0.01 0.01 0.01 0.01 0.07 0.11 0.11 0.19 0.22 0.26 0.28 0.23 0.17 0.20 0.23 0.26 0.27 0.28 0.32 0.44 0.50
0.55 0.57 0.50 0.42 0.34 0.38 0.37 0.32 0.25 0.20 0.24 0.22 0.10 0.02 0.01 0.01 0.03 0.02 0.01 0.00 0.03 0.03 0.02 0.03 0.05 0.03 0.10 0.12 0.05 0.06 0.12 0.17 0.34 0.32 0.29 0.34 0.36 0.37 0.32 0.24 0.25 0.32 0.44
0.72 0.63 0.50 0.45 0.40 0.39 0.34 0.48 0.51 0.34 0.25 0.21 0.11 0.04 0.06 0.02 0.04 0.03 0.04 0.01 0.02 0.04 0.06 0.07 0.17 0.14 0.21 0.18 0.10 0.09 0.18 0.24 0.25 0.31 0.36 0.39 0.34 0.37 0.44 0.32 0.33 0.49 0.63
1.06 0.78 0.82 0.66 0.52 0.47 0.45 0.40 0.54 0.47 0.32 0.31 0.26 0.14 0.11 0.16 0.12 0.15 0.11 0.06 0.03 0.07 0.17 0.21 0.30 0.59 0.47 0.55 0.49 0.38 0.71 0.72 0.81 0.62 0.56 0.54 0.51 0.50 0.53 0.54 0.56 0.62 0.67
1.42 1.30 1.02 1.18 1.00 0.81 0.72 0.63 0.47 0.54 0.63 0.49 0.44 0.37 0.31 0.28 0.44 0.35 0.41 0.72 0.94 0.78 0.88 0.82 0.91 0.98 1.02 1.23 1.25 1.42 1.39 1.15 0.94 0.94 0.95 0.99 0.94 0.85 0.73 0.59 0.50 0.43 0.38
1.08 1.32 1.36 1.32 1.54 1.34 1.13 0.97 0.79 0.64 0.58 0.59 0.61 0.63 0.55 0.52 0.68 0.82 0.73 0.88 1.05 0.98 1.16 1.36 1.40 1.25 1.19 1.30 1.46 1.50 1.47 1.39 1.44 1.45 1.38 1.22 0.95 0.70 0.49 0.33 0.22 0.13 0.09
0.63 0.74 0.92 1.19 1.36 1.54 1.57 1.49 1.24 1.03 0.86 0.87 0.92 0.93 0.88 0.72 0.68 0.80 0.94 1.02 1.14 1.24 1.56 1.66 1.68 1.64 1.59 1.64 1.71 1.66 1.51 1.38 1.18 0.95 0.74 0.56 0.39 0.26 0.18 0.13 0.10 0.07 0.04
0.27 0.30 0.33 0.52 0.77 1.05 1.36 1.57 1.52 1.51 1.32 1.02 0.80 0.70 0.66 0.73 0.82 0.73 0.68 0.72 0.83 1.01 1.09 1.18 1.20 1.12 1.06 0.97 0.86 0.73 0.58 0.46 0.34 0.26 0.20 0.13 0.08 0.05 0.04 0.02 0.01 0.01 0.00
0.11 0.16 0.21 0.24 0.34 0.46 0.65 0.89 1.12 1.24 1.22 1.16 1.12 1.02 1.03 1.05 1.06 0.96 0.95 0.98 0.99 0.93 0.75 0.67 0.65 0.59 0.52 0.45 0.31 0.22 0.18 0.17 0.12 0.07 0.04 0.02 0.01 0.01 0.00 0.00 0.00 0.00 0.00
0.02 0.04 0.08 0.12 0.17 0.27 0.32 0.37 0.52 0.58 0.63 0.84 0.91 0.97 1.02 1.06 1.00 0.93 0.81 0.70 0.62 0.51 0.46 0.44 0.40 0.34 0.26 0.16 0.11 0.08 0.06 0.03 0.01 0.00 0.00 0.00 0.00 0.00 0.00 0.00 0.00 0.00 0.00
0.01 0.02 0.03 0.04 0.05 0.08 0.12 0.18 0.21 0.22 0.26 0.36 0.39 0.39 0.45 0.49 0.48 0.43 0.35 0.23 0.20 0.17 0.15 0.13 0.09 0.05 0.03 0.02 0.01 0.00 0.00 0.00 0.00 0.00 0.00 0.00 0.00 0.00 0.00 0.00 0.00 0.00 0.00
0.02 0.02 0.02 0.02 0.02 0.02 0.03 0.04 0.05 0.07 0.11 0.18 0.17 0.16 0.18 0.12 0.10 0.09 0.07 0.04 0.03 0.02 0.01 0.00 0.00 0.00 0.00 0.00 0.00 0.00 0.00 0.00 0.00 0.00 0.00 0.00 0.00 0.00 0.00 0.00 0.00 0.00 0.00
0.04 0.03 0.02 0.02 0.02 0.02 0.02 0.01 0.02 0.03 0.03 0.05 0.07 0.11 0.07 0.03 0.02 0.01 0.01 0.00 0.00 0.00 0.00 0.00 0.00 0.00 0.00 0.00 0.00 0.00 0.00 0.00 0.00 0.00 0.00 0.00 0.00 0.00 0.00 0.00 0.00 0.00 0.00
0.05 0.05 0.04 0.03 0.04 0.04 0.03 0.03 0.03 0.03 0.02 0.03 0.04 0.02 0.00 0.00 0.01 0.01 0.00 0.01 0.00 0.00 0.00 0.00 0.00 0.00 0.00 0.00 0.00 0.00 0.00 0.00 0.00 0.00 0.00 0.00 0.00 0.00 0.00 0.00 0.00 0.00 0.00
0.05 0.05 0.05 0.05 0.05 0.05 0.04 0.03 0.02 0.01 0.01 0.00 0.00 0.00 0.00 0.00 0.00 0.00 0.01 0.01 0.01 0.00 0.00 0.00 0.00 0.00 0.00 0.00 0.00 0.00 0.00 0.00 0.00 0.00 0.00 0.00 0.00 0.00 0.00 0.00 0.00 0.00 0.00
0.06 0.06 0.06 0.06 0.05 0.04 0.03 0.01 0.00 0.00 0.00 0.00 0.00 0.00 0.00 0.00 0.00 0.00 0.00 0.00 0.00 0.00 0.00 0.00 0.00 0.00 0.00 0.00 0.00 0.00 0.00 0.00 0.00 0.00 0.00 0.00 0.00 0.00 0.00 0.00 0.00 0.00 0.00
0.06 0.05 0.04 0.03 0.02 0.00 0.00 0.00 0.00 0.00 0.00 0.00 0.00 0.00 0.00 0.00 0.00 0.00 0.01 0.00 0.00 0.00 0.00 0.00 0.00 0.00 0.00 0.01 0.00 0.00 0.00 0.01 0.00 0.00 0.00 0.00 0.00 0.00 0.00 0.00 0.00 0.00 0.00
0.03 0.03 0.02 0.01 0.00 0.00 0.00 0.00 0.00 0.00 0.00 0.00 0.00 0.00 0.00 0.00 0.00 0.00 0.00 0.00 0.00 0.00 0.00 0.00 0.00 0.00 0.00 0.00 0.00 0.00 0.00 0.00 0.00 0.00 0.00 0.00 0.00 0.00 0.00 0.00 0.00 0.00 0.00
0.01 0.01 0.01 0.00 0.00 0.00 0.00 0.00 0.00 0.00 0.00 0.00 0.00 0.00 0.00 0.00 0.00 0.00 0.00 0.00 0.00 0.00 0.00 0.00 0.00 0.00 0.00 0.00 0.00 0.00 0.00 0.00 0.00 0.00 0.00 0.00 0.00 0.00 0.00 0.00 0.00 0.00 0.00

GFSGL_prec_precacc24_123.txt.gz
Total_Precipitation_Accumulation
0.01 0.01 0.01 0.00 0.00 0.00 0.01 0.01 0.02 0.02 0.01 0.04 0.05 0.03 0.04 0.10 0.19 0.23 0.19 0.20 0.26 0.33 0.31 0.30 0.29 0.30 0.33 0.38 0.32 0.33 0.36 0.29 0.27 0.22 0.21 0.24 0.22 0.24 0.22 0.22 0.18 0.20 0.11
0.02 0.02 0.01 0.00 0.01 0.02 0.02 0.01 0.02 0.03 0.02 0.02 0.04 0.03 0.04 0.05 0.09 0.15 0.17 0.21 0.17 0.20 0.22 0.22 0.29 0.36 0.39 0.38 0.37 0.34 0.34 0.32 0.27 0.23 0.20 0.21 0.16 0.15 0.18 0.16 0.16 0.19 0.14
0.03 0.02 0.03 0.04 0.04 0.04 0.03 0.03 0.03 0.04 0.03 0.02 0.04 0.04 0.03 0.07 0.07 0.09 0.10 0.12 0.21 0.24 0.25 0.19 0.19 0.25 0.30 0.33 0.33 0.30 0.30 0.31 0.32 0.27 0.25 0.17 0.17 0.18 0.20 0.20 0.17 0.09 0.06
0.07 0.08 0.09 0.11 0.09 0.09 0.08 0.08 0.07 0.05 0.03 0.02 0.02 0.03 0.03 0.03 0.04 0.05 0.06 0.06 0.09 0.16 0.24 0.21 0.21 0.18 0.19 0.26 0.35 0.33 0.30 0.29 0.25 0.23 0.18 0.16 0.13 0.13 0.16 0.22 0.30 0.30 0.27
0.22 0.18 0.16 0.12 0.08 0.07 0.07 0.08 0.07 0.06 0.03 0.02 0.04 0.04 0.02 0.03 0.04 0.04 0.03 0.03 0.04 0.05 0.08 0.11 0.19 0.29 0.41 0.44 0.55 0.51 0.46 0.43 0.36 0.34 0.30 0.24 0.21 0.19 0.14 0.17 0.37 0.48 0.53
0.35 0.33 0.23 0.18 0.17 0.14 0.10 0.09 0.10 0.10 0.07 0.07 0.03 0.03 0.06 0.04 0.05 0.05 0.03 0.01 0.02 0.03 0.04 0.05 0.13 0.36 0.35 0.46 0.57 0.67 0.64 0.66 0.48 0.35 0.32 0.32 0.28 0.32 0.32 0.38 0.49 0.61 0.64
0.50 0.47 0.34 0.26 0.25 0.21 0.14 0.11 0.13 0.14 0.12 0.10 0.09 0.04 0.03 0.04 0.06 0.04 0.02 0.01 0.02 0.03 0.02 0.02 0.06 0.15 0.28 0.28 0.49 0.53 0.56 0.67 0.54 0.43 0.44 0.34 0.33 0.34 0.40 0.45 0.42 0.50 0.58
0.55 0.52 0.41 0.29 0.24 0.29 0.21 0.17 0.15 0.17 0.18 0.14 0.11 0.08 0.04 0.03 0.08 0.05 0.03 0.01 0.03 0.02 0.02 0.02 0.02 0.04 0.13 0.16 0.16 0.26 0.31 0.40 0.49 0.44 0.31 0.27 0.29 0.31 0.29 0.33 0.42 0.54 0.62
0.51 0.49 0.44 0.36 0.27 0.31 0.31 0.27 0.24 0.23 0.26 0.25 0.16 0.10 0.07 0.04 0.05 0.04 0.02 0.00 0.03 0.03 0.02 0.04 0.06 0.03 0.10 0.12 0.07 0.10 0.14 0.18 0.37 0.41 0.42 0.49 0.51 0.53 0.42 0.27 0.31 0.39 0.50
0.71 0.62 0.49 0.43 0.37 0.35 0.28 0.42 0.46 0.35 0.29 0.25 0.22 0.18 0.23 0.10 0.07 0.05 0.04 0.00 0.01 0.03 0.05 0.05 0.12 0.09 0.13 0.11 0.05 0.02 0.07 0.13 0.16 0.23 0.27 0.29 0.31 0.40 0.51 0.33 0.32 0.48 0.64
1.06 0.77 0.80 0.65 0.51 0.47 0.44 0.39 0.53 0.52 0.38 0.36 0.38 0.32 0.28 0.28 0.20 0.15 0.09 0.05 0.02 0.05 0.12 0.16 0.23 0.49 0.41 0.46 0.39 0.26 0.53 0.54 0.63 0.42 0.37 0.40 0.41 0.43 0.51 0.56 0.58 0.65 0.71
1.42 1.30 1.02 1.18 0.97 0.77 0.70 0.63 0.49 0.63 0.86 0.77 0.63 0.53 0.42 0.36 0.46 0.35 0.37 0.65 0.84 0.73 0.82 0.74 0.75 0.78 0.86 1.07 1.10 1.26 1.21 0.98 0.78 0.77 0.77 0.80 0.79 0.76 0.70 0.60 0.54 0.48 0.44
1.08 1.32 1.36 1.32 1.53 1.32 1.12 0.97 0.86 0.69 0.69 0.81 0.83 0.70 0.59 0.47 0.65 0.77 0.66 0.78 0.94 0.89 1.01 1.15 1.16 1.02 0.96 1.07 1.23 1.27 1.26 1.15 1.18 1.20 1.18 1.10 0.90 0.68 0.50 0.37 0.29 0.20 0.16
0.63 0.74 0.92 1.20 1.36 1.55 1.60 1.55 1.29 1.13 0.95 0.84 0.74 0.78 0.76 0.64 0.54 0.71 0.83 0.90 0.97 1.02 1.25 1.29 1.26 1.19 1.14 1.18 1.25 1.25 1.15 1.10 0.98 0.83 0.68 0.54 0.39 0.27 0.20 0.16 0.14 0.11 0.07
0.27 0.30 0.33 0.53 0.80 1.14 1.50 1.78 1.79 1.71 1.43 1.22 1.00 0.86 0.88 0.92 0.92 0.75 0.66 0.56 0.56 0.67 0.65 0.68 0.72 0.70 0.72 0.69 0.67 0.63 0.54 0.47 0.37 0.29 0.24 0.18 0.13 0.09 0.05 0.03 0.01 0.00 0.00
0.11 0.16 0.22 0.26 0.38 0.55 0.82 1.12 1.44 1.66 1.58 1.44 1.35 1.13 1.08 1.11 1.13 0.96 0.88 0.87 0.86 0.75 0.56 0.55 0.58 0.56 0.53 0.52 0.46 0.44 0.41 0.37 0.30 0.23 0.16 0.09 0.06 0.03 0.01 0.00 0.00 0.00 0.00
0.02 0.04 0.08 0.13 0.19 0.31 0.44 0.56 0.74 0.84 0.94 1.00 1.00 0.99 0.96 0.94 0.92 0.95 0.91 0.85 0.83 0.70 0.65 0.64 0.56 0.52 0.45 0.35 0.27 0.23 0.22 0.19 0.16 0.11 0.09 0.06 0.03 0.01 0.00 0.00 0.00 0.00 0.00
0.01 0.02 0.03 0.04 0.05 0.09 0.16 0.28 0.38 0.42 0.45 0.52 0.54 0.50 0.50 0.49 0.46 0.46 0.46 0.40 0.40 0.39 0.33 0.29 0.25 0.21 0.16 0.14 0.12 0.09 0.07 0.05 0.02 0.01 0.00 0.00 0.00 0.00 0.00 0.00 0.00 0.00 0.00
0.02 0.02 0.02 0.02 0.02 0.02 0.03 0.05 0.07 0.13 0.19 0.25 0.23 0.19 0.21 0.16 0.12 0.09 0.07 0.07 0.09 0.09 0.09 0.07 0.05 0.04 0.03 0.02 0.01 0.00 0.00 0.00 0.00 0.00 0.00 0.00 0.00 0.00 0.00 0.00 0.00 0.00 0.00
0.03 0.03 0.02 0.02 0.02 0.01 0.01 0.01 0.01 0.02 0.02 0.04 0.06 0.10 0.06 0.04 0.03 0.03 0.03 0.02 0.02 0.02 0.01 0.01 0.00 0.00 0.00 0.00 0.00 0.00 0.00 0.00 0.00 0.00 0.00 0.00 0.00 0.00 0.00 0.00 0.00 0.00 0.00
0.05 0.04 0.03 0.03 0.03 0.03 0.02 0.02 0.02 0.01 0.01 0.02 0.03 0.02 0.00 0.00 0.01 0.01 0.01 0.01 0.01 0.01 0.01 0.00 0.00 0.00 0.00 0.00 0.00 0.00 0.00 0.00 0.00 0.00 0.00 0.00 0.00 0.00 0.00 0.00 0.00 0.00 0.00
0.04 0.04 0.04 0.04 0.04 0.03 0.03 0.02 0.01 0.00 0.00 0.00 0.01 0.00 0.00 0.00 0.00 0.01 0.01 0.01 0.01 0.01 0.00 0.00 0.00 0.00 0.00 0.00 0.00 0.00 0.00 0.00 0.00 0.00 0.00 0.00 0.00 0.00 0.00 0.00 0.00 0.00 0.00
0.05 0.05 0.04 0.04 0.04 0.03 0.02 0.01 0.00 0.00 0.00 0.00 0.00 0.00 0.00 0.00 0.01 0.01 0.01 0.01 0.01 0.00 0.00 0.00 0.00 0.00 0.00 0.00 0.00 0.00 0.00 0.00 0.00 0.00 0.00 0.00 0.00 0.00 0.00 0.00 0.00 0.00 0.00
0.04 0.04 0.03 0.03 0.01 0.00 0.00 0.00 0.00 0.00 0.00 0.00 0.00 0.00 0.00 0.00 0.00 0.00 0.01 0.00 0.00 0.00 0.00 0.00 0.00 0.00 0.00 0.01 0.00 0.00 0.00 0.01 0.00 0.00 0.00 0.00 0.00 0.00 0.00 0.00 0.00 0.00 0.00
0.03 0.03 0.02 0.01 0.00 0.00 0.00 0.00 0.00 0.00 0.00 0.00 0.00 0.00 0.00 0.00 0.00 0.00 0.00 0.00 0.00 0.00 0.00 0.00 0.00 0.00 0.00 0.00 0.00 0.00 0.00 0.00 0.00 0.00 0.00 0.00 0.00 0.00 0.00 0.00 0.00 0.00 0.00
0.01 0.01 0.01 0.01 0.01 0.00 0.00 0.00 0.00 0.00 0.00 0.00 0.00 0.00 0.00 0.00 0.00 0.00 0.00 0.00 0.00 0.00 0.00 0.00 0.00 0.00 0.00 0.00 0.00 0.00 0.00 0.00 0.00 0.00 0.00 0.00 0.00 0.00 0.00 0.00 0.00 0.00 0.00

GFSGL_prec_precacc24_126.txt.gz
Total_Precipitation_Accumulation
0.00 0.01 0.01 0.00 0.00 0.00 0.01 0.01 0.02 0.02 0.01 0.03 0.04 0.03 0.03 0.07 0.15 0.19 0.16 0.14 0.20 0.31 0.31 0.31 0.30 0.30 0.33 0.38 0.32 0.33 0.35 0.29 0.26 0.26 0.26 0.32 0.41 0.42 0.35 0.30 0.21 0.22 0.12
0.02 0.02 0.01 0.00 0.01 0.02 0.02 0.01 0.02 0.03 0.02 0.02 0.03 0.03 0.03 0.04 0.06 0.12 0.16 0.20 0.17 0.21 0.23 0.23 0.29 0.36 0.39 0.38 0.36 0.34 0.35 0.33 0.29 0.27 0.28 0.30 0.29 0.29 0.27 0.22 0.20 0.21 0.15
0.03 0.02 0.03 0.04 0.04 0.04 0.03 0.03 0.03 0.04 0.03 0.02 0.04 0.04 0.03 0.05 0.05 0.08 0.10 0.11 0.21 0.25 0.27 0.20 0.19 0.26 0.30 0.33 0.33 0.30 0.30 0.31 0.33 0.30 0.32 0.28 0.27 0.26 0.27 0.27 0.23 0.14 0.08
0.05 0.08 0.09 0.11 0.09 0.09 0.08 0.08 0.07 0.05 0.03 0.03 0.03 0.05 0.04 0.04 0.04 0.05 0.05 0.06 0.10 0.18 0.26 0.23 0.22 0.19 0.19 0.26 0.34 0.32 0.29 0.28 0.25 0.25 0.23 0.25 0.24 0.21 0.22 0.28 0.35 0.34 0.28
0.19 0.18 0.16 0.12 0.08 0.07 0.07 0.08 0.07 0.06 0.04 0.02 0.05 0.05 0.04 0.04 0.05 0.05 0.04 0.05 0.05 0.06 0.09 0.13 0.21 0.30 0.41 0.44 0.54 0.49 0.45 0.41 0.35 0.35 0.34 0.31 0.29 0.26 0.18 0.18 0.40 0.56 0.56
0.28 0.27 0.21 0.17 0.17 0.14 0.10 0.09 0.10 0.10 0.07 0.07 0.04 0.05 0.07 0.05 0.08 0.07 0.05 0.03 0.04 0.05 0.04 0.06 0.14 0.37 0.34 0.45 0.56 0.66 0.62 0.65 0.48 0.36 0.37 0.40 0.34 0.37 0.36 0.40 0.49 0.60 0.62
0.36 0.36 0.28 0.24 0.23 0.21 0.14 0.11 0.13 0.14 0.12 0.11 0.10 0.06 0.04 0.05 0.07 0.05 0.05 0.04 0.05 0.06 0.04 0.03 0.06 0.15 0.28 0.28 0.50 0.57 0.60 0.68 0.55 0.45 0.48 0.42 0.42 0.39 0.42 0.43 0.38 0.44 0.52
0.50 0.46 0.35 0.26 0.23 0.28 0.20 0.16 0.15 0.17 0.18 0.14 0.12 0.09 0.06 0.04 0.10 0.09 0.09 0.05 0.05 0.04 0.03 0.02 0.02 0.04 0.13 0.16 0.17 0.29 0.34 0.44 0.53 0.49 0.35 0.33 0.35 0.40 0.34 0.32 0.40 0.55 0.65
0.48 0.43 0.38 0.34 0.26 0.31 0.30 0.26 0.23 0.22 0.26 0.26 0.16 0.11 0.10 0.07 0.08 0.09 0.12 0.04 0.07 0.04 0.03 0.04 0.06 0.03 0.11 0.13 0.08 0.11 0.16 0.21 0.42 0.46 0.48 0.55 0.55 0.56 0.44 0.32 0.37 0.44 0.54
0.67 0.57 0.46 0.42 0.35 0.34 0.28 0.41 0.44 0.34 0.29 0.25 0.23 0.19 0.24 0.12 0.14 0.12 0.11 0.06 0.04 0.04 0.06 0.06 0.13 0.08 0.12 0.09 0.04 0.02 0.07 0.12 0.15 0.21 0.23 0.25 0.31 0.47 0.58 0.32 0.29 0.46 0.61
1.06 0.77 0.80 0.63 0.49 0.44 0.41 0.35 0.51 0.51 0.38 0.37 0.41 0.37 0.33 0.37 0.32 0.30 0.19 0.06 0.02 0.04 0.10 0.15 0.21 0.43 0.36 0.41 0.35 0.24 0.47 0.46 0.54 0.36 0.31 0.33 0.34 0.37 0.49 0.61 0.62 0.68 0.75
1.42 1.30 1.02 1.18 0.97 0.77 0.68 0.59 0.44 0.59 0.84 0.80 0.66 0.50 0.41 0.41 0.57 0.53 0.38 0.54 0.76 0.64 0.74 0.69 0.66 0.71 0.80 0.99 1.02 1.15 1.08 0.85 0.64 0.61 0.60 0.65 0.66 0.64 0.60 0.55 0.55 0.54 0.50
1.08 1.32 1.36 1.32 1.54 1.31 1.11 0.94 0.82 0.64 0.62 0.81 0.91 0.83 0.63 0.41 0.52 0.66 0.55 0.45 0.52 0.51 0.70 0.86 0.89 0.83 0.82 0.90 1.05 1.07 1.04 0.93 0.95 0.96 0.94 0.88 0.74 0.59 0.45 0.35 0.28 0.24 0.23
0.63 0.74 0.92 1.20 1.36 1.55 1.60 1.54 1.29 1.13 0.92 0.81 0.77 0.87 0.87 0.79 0.57 0.54 0.58 0.56 0.54 0.51 0.64 0.70 0.75 0.78 0.76 0.78 0.83 0.84 0.77 0.80 0.75 0.64 0.56 0.47 0.35 0.25 0.20 0.17 0.17 0.16 0.14
0.27 0.30 0.33 0.53 0.80 1.14 1.51 1.81 1.84 1.79 1.54 1.30 1.09 0.88 0.84 0.91 1.04 0.92 0.74 0.62 0.54 0.52 0.42 0.36 0.35 0.35 0.39 0.40 0.42 0.44 0.41 0.41 0.34 0.28 0.24 0.18 0.16 0.14 0.13 0.10 0.08 0.05 0.03
0.11 0.16 0.22 0.26 0.38 0.55 0.83 1.15 1.51 1.77 1.72 1.64 1.60 1.43 1.36 1.33 1.28 1.07 0.94 0.86 0.81 0.63 0.38 0.34 0.39 0.39 0.40 0.42 0.40 0.41 0.42 0.43 0.35 0.31 0.28 0.23 0.19 0.16 0.13 0.11 0.10 0.07 0.04
0.03 0.04 0.08 0.13 0.19 0.31 0.44 0.59 0.79 0.96 1.11 1.25 1.26 1.30 1.33 1.34 1.28 1.30 1.25 1.08 0.96 0.78 0.69 0.64 0.56 0.52 0.49 0.43 0.39 0.38 0.39 0.39 0.37 0.34 0.30 0.26 0.21 0.16 0.11 0.07 0.04 0.02 0.00
0.01 0.02 0.03 0.04 0.05 0.10 0.16 0.30 0.42 0.50 0.56 0.66 0.73 0.72 0.76 0.78 0.75 0.76 0.79 0.74 0.72 0.67 0.58 0.55 0.53 0.46 0.41 0.38 0.35 0.31 0.28 0.26 0.23 0.18 0.15 0.11 0.07 0.05 0.02 0.01 0.01 0.00 0.00
0.02 0.03 0.02 0.02 0.02 0.02 0.03 0.05 0.08 0.15 0.25 0.33 0.32 0.29 0.31 0.30 0.27 0.24 0.22 0.23 0.28 0.30 0.31 0.27 0.24 0.23 0.21 0.17 0.14 0.12 0.09 0.06 0.05 0.04 0.03 0.02 0.01 0.00 0.00 0.00 0.00 0.00 0.00
0.03 0.03 0.02 0.02 0.02 0.01 0.01 0.01 0.01 0.01 0.02 0.05 0.08 0.13 0.10 0.10 0.08 0.10 0.11 0.12 0.12 0.13 0.12 0.10 0.08 0.05 0.03 0.03 0.02 0.01 0.00 0.00 0.00 0.00 0.00 0.00 0.00 0.00 0.00 0.00 0.00 0.00 0.00
0.04 0.04 0.03 0.02 0.03 0.03 0.02 0.02 0.02 0.01 0.01 0.02 0.03 0.02 0.00 0.01 0.02 0.02 0.02 0.03 0.04 0.05 0.05 0.04 0.04 0.02 0.01 0.01 0.00 0.00 0.00 0.00 0.00 0.00 0.00 0.00 0.00 0.00 0.00 0.00 0.00 0.00 0.00
0.03 0.03 0.03 0.04 0.04 0.03 0.02 0.02 0.01 0.00 0.00 0.00 0.01 0.00 0.00 0.00 0.00 0.01 0.01 0.02 0.02 0.01 0.01 0.00 0.01 0.01 0.00 0.00 0.00 0.00 0.00 0.00 0.00 0.00 0.00 0.00 0.00 0.00 0.00 0.00 0.00 0.00 0.00
0.03 0.03 0.03 0.03 0.03 0.02 0.01 0.00 0.00 0.00 0.00 0.00 0.00 0.00 0.01 0.01 0.01 0.01 0.01 0.01 0.01 0.01 0.00 0.00 0.00 0.00 0.00 0.00 0.00 0.00 0.00 0.00 0.00 0.00 0.00 0.00 0.00 0.00 0.00 0.00 0.00 0.00 0.00
0.03 0.03 0.02 0.02 0.01 0.00 0.00 0.00 0.00 0.00 0.00 0.00 0.00 0.00 0.00 0.01 0.01 0.01 0.01 0.01 0.00 0.00 0.00 0.00 0.00 0.00 0.00 0.01 0.00 0.00 0.00 0.01 0.00 0.00 0.00 0.00 0.00 0.00 0.00 0.00 0.00 0.00 0.00
0.03 0.03 0.02 0.01 0.00 0.00 0.00 0.00 0.00 0.00 0.00 0.00 0.00 0.00 0.00 0.00 0.00 0.00 0.00 0.00 0.00 0.00 0.00 0.00 0.00 0.00 0.00 0.00 0.00 0.00 0.00 0.00 0.00 0.00 0.00 0.00 0.00 0.00 0.00 0.00 0.00 0.00 0.00
0.01 0.01 0.01 0.01 0.01 0.00 0.00 0.00 0.01 0.00 0.00 0.00 0.00 0.00 0.00 0.00 0.00 0.00 0.00 0.00 0.00 0.00 0.00 0.00 0.00 0.00 0.00 0.00 0.00 0.00 0.00 0.00 0.00 0.00 0.00 0.00 0.00 0.00 0.00 0.00 0.00 0.00 0.00

GFSGL_prec_precacc24_129.txt.gz
Total_Precipitation_Accumulation
0.01 0.01 0.01 0.00 0.00 0.00 0.01 0.01 0.02 0.02 0.01 0.03 0.04 0.03 0.03 0.05 0.08 0.11 0.12 0.13 0.17 0.24 0.22 0.23 0.27 0.30 0.33 0.39 0.32 0.32 0.35 0.29 0.26 0.26 0.25 0.32 0.46 0.51 0.46 0.39 0.28 0.30 0.17
0.01 0.01 0.01 0.00 0.01 0.02 0.02 0.01 0.02 0.03 0.02 0.02 0.03 0.03 0.03 0.04 0.06 0.11 0.15 0.19 0.17 0.21 0.22 0.22 0.30 0.36 0.39 0.39 0.36 0.33 0.34 0.31 0.27 0.28 0.28 0.29 0.29 0.34 0.37 0.34 0.28 0.26 0.18
0.02 0.02 0.02 0.04 0.04 0.04 0.03 0.03 0.03 0.04 0.03 0.02 0.04 0.04 0.03 0.05 0.05 0.06 0.09 0.12 0.21 0.24 0.25 0.20 0.21 0.26 0.31 0.33 0.33 0.30 0.29 0.29 0.30 0.28 0.31 0.28 0.29 0.30 0.39 0.45 0.37 0.20 0.13
0.06 0.08 0.09 0.10 0.09 0.09 0.08 0.08 0.07 0.05 0.03 0.03 0.03 0.04 0.04 0.04 0.05 0.05 0.06 0.07 0.10 0.18 0.26 0.23 0.23 0.20 0.21 0.26 0.33 0.31 0.27 0.26 0.22 0.23 0.22 0.26 0.25 0.23 0.26 0.36 0.47 0.48 0.39
0.15 0.16 0.16 0.12 0.08 0.07 0.07 0.08 0.07 0.06 0.04 0.02 0.05 0.06 0.05 0.05 0.06 0.06 0.06 0.07 0.07 0.08 0.11 0.14 0.22 0.32 0.44 0.45 0.54 0.49 0.44 0.39 0.32 0.31 0.29 0.29 0.29 0.27 0.24 0.22 0.44 0.62 0.65
0.20 0.19 0.18 0.17 0.17 0.14 0.10 0.09 0.10 0.10 0.07 0.07 0.04 0.05 0.08 0.07 0.11 0.09 0.06 0.04 0.06 0.06 0.06 0.07 0.16 0.41 0.38 0.48 0.56 0.65 0.62 0.64 0.47 0.35 0.34 0.37 0.31 0.36 0.37 0.41 0.51 0.66 0.70
0.26 0.29 0.25 0.22 0.23 0.21 0.14 0.11 0.13 0.14 0.12 0.11 0.10 0.06 0.05 0.06 0.10 0.06 0.07 0.06 0.07 0.07 0.06 0.06 0.09 0.16 0.29 0.29 0.52 0.57 0.59 0.66 0.52 0.43 0.45 0.37 0.36 0.35 0.45 0.52 0.44 0.44 0.49
0.42 0.40 0.34 0.26 0.23 0.28 0.20 0.16 0.15 0.17 0.18 0.14 0.12 0.09 0.06 0.06 0.13 0.11 0.10 0.06 0.07 0.07 0.05 0.05 0.07 0.08 0.14 0.16 0.17 0.29 0.34 0.44 0.54 0.49 0.35 0.33 0.37 0.45 0.42 0.39 0.43 0.53 0.62
0.34 0.26 0.26 0.28 0.23 0.30 0.29 0.25 0.23 0.22 0.26 0.26 0.16 0.11 0.11 0.09 0.10 0.09 0.14 0.07 0.10 0.09 0.05 0.08 0.11 0.06 0.13 0.15 0.08 0.11 0.16 0.21 0.45 0.48 0.48 0.55 0.55 0.59 0.48 0.40 0.45 0.47 0.53
0.61 0.56 0.45 0.38 0.32 0.32 0.27 0.39 0.43 0.32 0.28 0.25 0.22 0.19 0.26 0.14 0.16 0.13 0.13 0.10 0.08 0.08 0.13 0.11 0.15 0.09 0.12 0.09 0.04 0.02 0.07 0.11 0.14 0.20 0.22 0.23 0.30 0.47 0.59 0.33 0.29 0.47 0.60
1.05 0.76 0.79 0.63 0.49 0.43 0.39 0.33 0.47 0.47 0.34 0.33 0.37 0.34 0.31 0.37 0.32 0.32 0.24 0.09 0.06 0.09 0.11 0.14 0.19 0.31 0.26 0.31 0.27 0.19 0.35 0.34 0.41 0.28 0.25 0.28 0.29 0.31 0.43 0.56 0.59 0.66 0.71
1.42 1.30 1.02 1.18 0.97 0.77 0.68 0.58 0.43 0.55 0.79 0.75 0.62 0.45 0.37 0.39 0.56 0.57 0.45 0.47 0.48 0.32 0.47 0.53 0.50 0.56 0.67 0.86 0.89 0.98 0.92 0.79 0.61 0.55 0.53 0.56 0.58 0.57 0.54 0.50 0.52 0.57 0.59
1.08 1.32 1.36 1.32 1.54 1.31 1.11 0.94 0.81 0.62 0.58 0.77 0.87 0.81 0.64 0.42 0.52 0.69 0.69 0.70 0.67 0.42 0.41 0.53 0.51 0.48 0.51 0.58 0.73 0.78 0.79 0.70 0.70 0.67 0.63 0.60 0.51 0.44 0.35 0.29 0.27 0.25 0.27
0.63 0.74 0.92 1.20 1.36 1.55 1.60 1.54 1.29 1.12 0.91 0.79 0.75 0.85 0.87 0.82 0.60 0.58 0.63 0.66 0.70 0.64 0.61 0.53 0.45 0.38 0.35 0.35 0.38 0.38 0.32 0.39 0.39 0.34 0.34 0.32 0.27 0.20 0.17 0.17 0.17 0.18 0.18
0.27 0.30 0.33 0.53 0.80 1.14 1.51 1.82 1.84 1.81 1.55 1.31 1.13 0.93 0.88 0.96 1.16 1.03 0.87 0.76 0.69 0.67 0.50 0.42 0.37 0.29 0.23 0.19 0.18 0.19 0.19 0.26 0.25 0.20 0.19 0.15 0.13 0.13 0.14 0.12 0.09 0.07 0.07
0.11 0.16 0.22 0.26 0.38 0.55 0.83 1.14 1.50 1.78 1.73 1.65 1.63 1.48 1.42 1.48 1.49 1.31 1.18 1.10 1.07 0.92 0.63 0.51 0.50 0.43 0.35 0.34 0.32 0.34 0.37 0.40 0.32 0.29 0.29 0.26 0.22 0.19 0.17 0.17 0.17 0.15 0.14
0.03 0.04 0.08 0.13 0.20 0.31 0.44 0.59 0.78 0.95 1.12 1.26 1.30 1.38 1.43 1.48 1.47 1.53 1.57 1.43 1.28 1.06 1.01 0.94 0.78 0.68 0.59 0.48 0.43 0.42 0.44 0.44 0.42 0.39 0.37 0.35 0.32 0.29 0.26 0.21 0.18 0.13 0.10
0.01 0.02 0.03 0.04 0.06 0.10 0.16 0.30 0.43 0.50 0.57 0.66 0.75 0.78 0.85 0.91 0.91 0.97 1.08 1.05 1.09 1.05 0.98 0.92 0.89 0.80 0.69 0.60 0.56 0.49 0.46 0.45 0.42 0.38 0.32 0.28 0.23 0.19 0.16 0.13 0.10 0.07 0.04
0.02 0.03 0.02 0.02 0.02 0.02 0.03 0.05 0.08 0.15 0.25 0.35 0.35 0.33 0.37 0.42 0.40 0.39 0.40 0.43 0.54 0.61 0.66 0.62 0.57 0.54 0.50 0.46 0.40 0.36 0.31 0.27 0.24 0.21 0.18 0.15 0.11 0.08 0.07 0.05 0.03 0.02 0.01
0.03 0.03 0.02 0.02 0.02 0.01 0.01 0.01 0.01 0.01 0.02 0.04 0.08 0.15 0.16 0.18 0.16 0.20 0.21 0.24 0.27 0.31 0.34 0.33 0.31 0.26 0.22 0.20 0.18 0.16 0.13 0.10 0.08 0.06 0.05 0.04 0.02 0.02 0.01 0.01 0.00 0.00 0.00
0.04 0.03 0.03 0.02 0.03 0.02 0.01 0.01 0.01 0.01 0.01 0.01 0.03 0.02 0.00 0.02 0.05 0.07 0.09 0.11 0.13 0.15 0.16 0.16 0.15 0.13 0.10 0.08 0.06 0.05 0.04 0.04 0.03 0.02 0.01 0.01 0.01 0.01 0.00 0.00 0.00 0.00 0.00
0.02 0.03 0.02 0.03 0.03 0.02 0.02 0.01 0.01 0.00 0.00 0.00 0.01 0.00 0.00 0.00 0.01 0.01 0.02 0.03 0.04 0.04 0.05 0.04 0.05 0.04 0.04 0.03 0.02 0.01 0.01 0.01 0.01 0.01 0.01 0.01 0.00 0.00 0.00 0.00 0.00 0.00 0.00
0.03 0.03 0.03 0.03 0.02 0.02 0.01 0.00 0.00 0.00 0.00 0.00 0.00 0.00 0.01 0.01 0.01 0.01 0.01 0.01 0.01 0.01 0.00 0.00 0.01 0.01 0.01 0.01 0.01 0.01 0.01 0.00 0.00 0.00 0.00 0.00 0.00 0.00 0.00 0.00 0.00 0.00 0.00
0.02 0.02 0.02 0.02 0.01 0.00 0.00 0.00 0.00 0.00 0.00 0.00 0.00 0.00 0.00 0.01 0.01 0.01 0.01 0.01 0.00 0.00 0.00 0.00 0.00 0.00 0.00 0.01 0.00 0.00 0.00 0.01 0.00 0.00 0.00 0.00 0.00 0.00 0.00 0.00 0.00 0.00 0.00
0.02 0.03 0.02 0.01 0.00 0.00 0.00 0.00 0.00 0.00 0.00 0.00 0.00 0.00 0.00 0.00 0.00 0.00 0.00 0.00 0.00 0.00 0.00 0.00 0.00 0.00 0.00 0.00 0.00 0.00 0.00 0.00 0.00 0.00 0.00 0.00 0.00 0.00 0.00 0.00 0.00 0.00 0.00
0.01 0.01 0.01 0.01 0.01 0.00 0.00 0.00 0.01 0.00 0.00 0.00 0.00 0.00 0.00 0.00 0.00 0.00 0.00 0.00 0.00 0.00 0.00 0.00 0.00 0.00 0.00 0.00 0.00 0.00 0.00 0.00 0.00 0.00 0.00 0.00 0.00 0.00 0.00 0.00 0.00 0.00 0.00

GFSGL_prec_precacc24_132.txt.gz
Total_Precipitation_Accumulation
0.01 0.00 0.00 0.00 0.00 0.00 0.01 0.01 0.02 0.02 0.01 0.02 0.03 0.02 0.02 0.04 0.06 0.09 0.08 0.08 0.15 0.24 0.21 0.20 0.22 0.23 0.31 0.38 0.32 0.33 0.35 0.29 0.26 0.25 0.22 0.31 0.46 0.51 0.46 0.39 0.31 0.32 0.19
0.00 0.00 0.00 0.00 0.01 0.02 0.02 0.01 0.02 0.03 0.01 0.02 0.03 0.03 0.02 0.03 0.03 0.06 0.10 0.11 0.12 0.21 0.23 0.23 0.28 0.31 0.36 0.38 0.35 0.33 0.34 0.31 0.27 0.27 0.26 0.26 0.28 0.33 0.36 0.35 0.28 0.27 0.20
0.02 0.02 0.02 0.03 0.04 0.04 0.03 0.03 0.03 0.04 0.02 0.02 0.04 0.04 0.03 0.04 0.05 0.05 0.06 0.09 0.16 0.22 0.24 0.19 0.20 0.25 0.30 0.32 0.34 0.30 0.28 0.28 0.28 0.25 0.27 0.23 0.25 0.29 0.35 0.42 0.37 0.23 0.14
0.06 0.05 0.06 0.07 0.09 0.09 0.08 0.08 0.07 0.05 0.03 0.03 0.03 0.04 0.04 0.04 0.05 0.05 0.06 0.08 0.10 0.17 0.26 0.23 0.22 0.19 0.21 0.26 0.33 0.32 0.28 0.25 0.20 0.22 0.21 0.23 0.22 0.21 0.23 0.32 0.47 0.50 0.40
0.11 0.09 0.09 0.10 0.09 0.07 0.07 0.08 0.07 0.06 0.04 0.02 0.04 0.05 0.05 0.05 0.06 0.05 0.06 0.07 0.08 0.09 0.12 0.15 0.23 0.33 0.45 0.46 0.55 0.50 0.45 0.40 0.31 0.29 0.29 0.29 0.28 0.25 0.22 0.19 0.37 0.56 0.61
0.13 0.13 0.13 0.16 0.17 0.14 0.10 0.09 0.10 0.10 0.07 0.07 0.04 0.05 0.08 0.07 0.10 0.08 0.06 0.05 0.07 0.08 0.07 0.08 0.16 0.40 0.38 0.49 0.57 0.65 0.61 0.63 0.45 0.32 0.31 0.33 0.29 0.31 0.33 0.34 0.41 0.56 0.58
0.17 0.21 0.21 0.22 0.23 0.21 0.14 0.11 0.13 0.14 0.12 0.11 0.10 0.06 0.05 0.06 0.10 0.06 0.07 0.06 0.08 0.08 0.08 0.07 0.09 0.16 0.28 0.30 0.53 0.59 0.60 0.66 0.50 0.38 0.39 0.32 0.32 0.32 0.42 0.48 0.39 0.39 0.45
0.32 0.34 0.31 0.25 0.23 0.28 0.20 0.16 0.15 0.17 0.18 0.14 0.12 0.09 0.06 0.06 0.13 0.11 0.11 0.07 0.07 0.08 0.08 0.07 0.07 0.09 0.16 0.17 0.18 0.32 0.35 0.45 0.54 0.48 0.34 0.31 0.36 0.43 0.41 0.39 0.43 0.55 0.67
0.27 0.23 0.22 0.26 0.22 0.30 0.29 0.25 0.23 0.22 0.26 0.26 0.16 0.11 0.11 0.08 0.10 0.10 0.15 0.09 0.12 0.10 0.06 0.08 0.11 0.05 0.16 0.20 0.11 0.13 0.19 0.23 0.45 0.48 0.48 0.55 0.54 0.58 0.47 0.42 0.47 0.52 0.57
0.41 0.38 0.36 0.31 0.28 0.30 0.26 0.39 0.43 0.32 0.27 0.24 0.22 0.19 0.25 0.13 0.17 0.14 0.15 0.11 0.11 0.14 0.19 0.14 0.16 0.11 0.17 0.12 0.09 0.07 0.09 0.11 0.14 0.20 0.23 0.23 0.29 0.45 0.55 0.30 0.26 0.46 0.54
0.92 0.68 0.73 0.61 0.46 0.42 0.38 0.31 0.46 0.46 0.32 0.32 0.34 0.33 0.29 0.36 0.31 0.30 0.24 0.08 0.07 0.09 0.12 0.15 0.19 0.31 0.27 0.31 0.24 0.15 0.31 0.30 0.37 0.24 0.22 0.23 0.23 0.24 0.33 0.47 0.51 0.61 0.67
1.33 1.30 1.02 1.19 0.98 0.77 0.68 0.58 0.42 0.53 0.75 0.72 0.58 0.42 0.34 0.36 0.52 0.54 0.41 0.35 0.31 0.16 0.25 0.32 0.37 0.48 0.53 0.68 0.65 0.71 0.64 0.55 0.35 0.30 0.31 0.36 0.41 0.44 0.45 0.43 0.46 0.53 0.58
1.08 1.32 1.36 1.32 1.54 1.32 1.12 0.94 0.81 0.62 0.55 0.75 0.84 0.78 0.61 0.40 0.49 0.65 0.68 0.70 0.66 0.40 0.42 0.53 0.52 0.51 0.53 0.58 0.69 0.65 0.55 0.36 0.36 0.37 0.38 0.36 0.31 0.29 0.27 0.24 0.22 0.21 0.26
0.64 0.74 0.92 1.20 1.36 1.56 1.60 1.54 1.29 1.12 0.90 0.78 0.73 0.82 0.85 0.80 0.59 0.56 0.61 0.66 0.70 0.66 0.69 0.63 0.56 0.49 0.47 0.46 0.42 0.35 0.20 0.24 0.25 0.18 0.19 0.21 0.16 0.11 0.09 0.12 0.16 0.17 0.18
0.27 0.30 0.34 0.53 0.80 1.14 1.51 1.82 1.85 1.81 1.56 1.33 1.14 0.94 0.89 0.97 1.16 1.04 0.89 0.79 0.74 0.77 0.64 0.60 0.62 0.51 0.42 0.37 0.31 0.28 0.27 0.28 0.25 0.19 0.17 0.13 0.14 0.13 0.16 0.15 0.12 0.09 0.10
0.11 0.16 0.22 0.26 0.38 0.55 0.83 1.13 1.48 1.78 1.73 1.65 1.64 1.49 1.41 1.48 1.48 1.33 1.25 1.19 1.17 1.05 0.79 0.72 0.72 0.69 0.59 0.56 0.54 0.47 0.44 0.48 0.35 0.31 0.34 0.30 0.26 0.22 0.20 0.20 0.20 0.18 0.16
0.03 0.04 0.08 0.13 0.19 0.31 0.44 0.59 0.77 0.94 1.11 1.25 1.30 1.38 1.43 1.49 1.48 1.55 1.63 1.59 1.48 1.22 1.17 1.19 1.09 0.95 0.82 0.69 0.60 0.58 0.56 0.53 0.47 0.42 0.40 0.40 0.37 0.34 0.33 0.25 0.23 0.19 0.17
0.01 0.02 0.03 0.04 0.05 0.09 0.16 0.29 0.42 0.50 0.56 0.65 0.73 0.77 0.86 0.93 0.93 1.00 1.13 1.13 1.26 1.31 1.27 1.21 1.21 1.17 1.07 0.93 0.84 0.72 0.65 0.61 0.55 0.49 0.40 0.36 0.33 0.29 0.26 0.24 0.21 0.18 0.16
0.02 0.02 0.02 0.02 0.01 0.02 0.03 0.05 0.08 0.15 0.25 0.34 0.34 0.32 0.37 0.45 0.43 0.42 0.44 0.50 0.66 0.79 0.89 0.89 0.86 0.84 0.85 0.84 0.78 0.71 0.64 0.58 0.51 0.45 0.41 0.35 0.31 0.25 0.24 0.21 0.18 0.14 0.10
0.03 0.03 0.02 0.02 0.01 0.01 0.01 0.01 0.01 0.01 0.02 0.04 0.08 0.15 0.16 0.18 0.17 0.22 0.26 0.30 0.35 0.44 0.51 0.52 0.53 0.49 0.47 0.46 0.47 0.46 0.41 0.38 0.35 0.31 0.27 0.23 0.20 0.16 0.14 0.11 0.08 0.05 0.03
0.03 0.03 0.02 0.02 0.02 0.02 0.01 0.01 0.01 0.01 0.01 0.01 0.03 0.02 0.01 0.02 0.06 0.09 0.12 0.16 0.20 0.24 0.28 0.30 0.30 0.29 0.27 0.24 0.20 0.18 0.17 0.16 0.15 0.13 0.11 0.10 0.08 0.07 0.05 0.04 0.03 0.01 0.01
0.02 0.02 0.02 0.03 0.03 0.02 0.01 0.01 0.01 0.00 0.00 0.01 0.01 0.00 0.00 0.00 0.01 0.02 0.03 0.04 0.06 0.08 0.10 0.11 0.13 0.13 0.12 0.10 0.09 0.07 0.06 0.06 0.05 0.04 0.04 0.04 0.03 0.02 0.02 0.01 0.01 0.00 0.00
0.02 0.02 0.02 0.02 0.02 0.02 0.01 0.00 0.00 0.00 0.00 0.01 0.00 0.01 0.01 0.01 0.01 0.01 0.02 0.02 0.01 0.01 0.01 0.01 0.03 0.04 0.05 0.06 0.06 0.06 0.05 0.05 0.03 0.02 0.02 0.01 0.01 0.01 0.01 0.01 0.00 0.00 0.00
0.02 0.01 0.01 0.01 0.00 0.00 0.00 0.00 0.00 0.00 0.00 0.00 0.00 0.00 0.01 0.01 0.01 0.01 0.01 0.01 0.00 0.00 0.00 0.00 0.00 0.00 0.01 0.01 0.00 0.00 0.01 0.01 0.01 0.01 0.01 0.01 0.01 0.01 0.01 0.00 0.00 0.00 0.00
0.02 0.02 0.02 0.01 0.01 0.01 0.00 0.00 0.00 0.00 0.00 0.00 0.00 0.00 0.00 0.00 0.00 0.00 0.00 0.00 0.00 0.00 0.00 0.00 0.00 0.00 0.00 0.00 0.00 0.00 0.00 0.00 0.00 0.00 0.00 0.00 0.00 0.00 0.00 0.00 0.00 0.00 0.00
0.01 0.01 0.01 0.01 0.01 0.01 0.01 0.01 0.01 0.01 0.01 0.01 0.01 0.00 0.00 0.00 0.00 0.00 0.00 0.00 0.00 0.00 0.00 0.00 0.00 0.00 0.00 0.00 0.00 0.00 0.00 0.00 0.00 0.00 0.00 0.00 0.00 0.00 0.00 0.00 0.00 0.00 0.00

GFSGL_prec_precacc24_135.txt.gz
Total_Precipitation_Accumulation
0.10 0.13 0.21 0.19 0.16 0.16 0.16 0.19 0.14 0.08 0.04 0.03 0.03 0.03 0.04 0.04 0.05 0.06 0.06 0.05 0.07 0.07 0.07 0.10 0.13 0.18 0.31 0.40 0.36 0.36 0.38 0.31 0.27 0.25 0.22 0.28 0.42 0.46 0.38 0.33 0.26 0.27 0.14
0.06 0.09 0.12 0.16 0.11 0.07 0.05 0.03 0.06 0.06 0.03 0.02 0.03 0.02 0.02 0.03 0.02 0.05 0.06 0.07 0.08 0.10 0.10 0.13 0.19 0.25 0.32 0.40 0.36 0.35 0.37 0.32 0.28 0.27 0.27 0.26 0.26 0.31 0.33 0.30 0.21 0.23 0.20
0.05 0.09 0.06 0.10 0.08 0.11 0.07 0.04 0.04 0.04 0.03 0.02 0.04 0.04 0.02 0.03 0.03 0.03 0.03 0.05 0.07 0.10 0.12 0.11 0.14 0.21 0.26 0.31 0.34 0.31 0.29 0.29 0.28 0.25 0.27 0.24 0.23 0.20 0.25 0.35 0.33 0.20 0.13
0.10 0.07 0.09 0.05 0.05 0.08 0.09 0.08 0.07 0.05 0.03 0.03 0.03 0.04 0.03 0.03 0.04 0.05 0.05 0.05 0.07 0.10 0.17 0.17 0.17 0.16 0.18 0.20 0.30 0.30 0.25 0.23 0.19 0.22 0.21 0.24 0.21 0.17 0.16 0.24 0.41 0.45 0.34
0.15 0.10 0.05 0.04 0.04 0.05 0.07 0.08 0.07 0.06 0.04 0.02 0.04 0.05 0.04 0.05 0.06 0.05 0.06 0.07 0.08 0.08 0.10 0.13 0.21 0.32 0.42 0.44 0.54 0.49 0.42 0.37 0.30 0.29 0.30 0.29 0.27 0.24 0.21 0.16 0.26 0.44 0.50
0.17 0.10 0.05 0.05 0.10 0.12 0.10 0.09 0.10 0.10 0.07 0.07 0.04 0.05 0.08 0.07 0.10 0.08 0.06 0.05 0.07 0.08 0.08 0.09 0.16 0.39 0.38 0.49 0.58 0.66 0.60 0.62 0.46 0.32 0.31 0.32 0.28 0.30 0.31 0.32 0.33 0.41 0.46
0.08 0.11 0.07 0.09 0.18 0.20 0.14 0.11 0.13 0.14 0.12 0.11 0.10 0.06 0.05 0.06 0.11 0.07 0.08 0.06 0.08 0.08 0.09 0.08 0.10 0.17 0.29 0.30 0.53 0.61 0.62 0.69 0.52 0.40 0.40 0.32 0.33 0.32 0.41 0.46 0.34 0.31 0.33
0.16 0.17 0.18 0.18 0.21 0.28 0.20 0.16 0.15 0.17 0.18 0.14 0.12 0.09 0.06 0.06 0.13 0.12 0.11 0.07 0.07 0.08 0.09 0.08 0.09 0.10 0.17 0.17 0.18 0.32 0.36 0.47 0.56 0.50 0.35 0.32 0.36 0.44 0.40 0.37 0.40 0.50 0.62
0.17 0.15 0.16 0.21 0.21 0.30 0.29 0.25 0.23 0.22 0.26 0.26 0.16 0.11 0.11 0.08 0.10 0.10 0.15 0.09 0.12 0.10 0.06 0.08 0.12 0.07 0.17 0.19 0.11 0.13 0.17 0.21 0.44 0.50 0.50 0.57 0.53 0.55 0.43 0.39 0.45 0.48 0.52
0.29 0.26 0.24 0.22 0.23 0.29 0.25 0.38 0.43 0.32 0.27 0.24 0.22 0.19 0.25 0.13 0.17 0.14 0.14 0.11 0.12 0.13 0.17 0.15 0.18 0.12 0.16 0.11 0.08 0.07 0.10 0.15 0.16 0.22 0.23 0.24 0.31 0.46 0.54 0.29 0.25 0.43 0.47
0.59 0.46 0.43 0.40 0.34 0.37 0.35 0.29 0.44 0.44 0.31 0.31 0.33 0.32 0.29 0.35 0.30 0.29 0.24 0.09 0.08 0.11 0.12 0.12 0.17 0.29 0.25 0.26 0.17 0.08 0.18 0.20 0.28 0.24 0.29 0.32 0.23 0.22 0.30 0.42 0.45 0.52 0.56
0.82 0.84 0.77 0.86 0.76 0.65 0.62 0.55 0.39 0.50 0.72 0.70 0.57 0.41 0.32 0.35 0.50 0.52 0.38 0.30 0.26 0.10 0.13 0.18 0.22 0.32 0.31 0.43 0.43 0.52 0.46 0.41 0.34 0.37 0.33 0.36 0.31 0.30 0.31 0.31 0.35 0.43 0.48
0.75 0.99 1.09 1.13 1.42 1.23 1.05 0.91 0.81 0.61 0.54 0.73 0.82 0.76 0.60 0.39 0.46 0.59 0.62 0.62 0.56 0.33 0.34 0.43 0.42 0.40 0.40 0.45 0.60 0.57 0.51 0.36 0.31 0.34 0.41 0.43 0.34 0.29 0.27 0.24 0.23 0.22 0.27
0.60 0.69 0.88 1.13 1.31 1.54 1.60 1.54 1.29 1.13 0.90 0.77 0.71 0.80 0.83 0.79 0.58 0.55 0.59 0.63 0.65 0.62 0.62 0.57 0.51 0.45 0.47 0.45 0.48 0.42 0.28 0.34 0.38 0.32 0.29 0.29 0.24 0.14 0.12 0.14 0.19 0.21 0.24
0.27 0.30 0.34 0.53 0.80 1.14 1.52 1.83 1.85 1.81 1.56 1.34 1.15 0.94 0.90 0.98 1.16 1.04 0.90 0.80 0.75 0.77 0.64 0.60 0.63 0.54 0.48 0.45 0.38 0.41 0.47 0.48 0.45 0.38 0.37 0.31 0.21 0.18 0.21 0.19 0.16 0.14 0.15
0.12 0.17 0.22 0.26 0.38 0.55 0.83 1.12 1.46 1.76 1.72 1.63 1.62 1.49 1.41 1.48 1.48 1.32 1.24 1.18 1.17 1.07 0.82 0.77 0.77 0.77 0.73 0.70 0.67 0.61 0.56 0.64 0.56 0.50 0.53 0.51 0.42 0.30 0.24 0.26 0.28 0.26 0.23
0.04 0.05 0.08 0.13 0.19 0.31 0.44 0.58 0.76 0.93 1.10 1.24 1.29 1.37 1.43 1.49 1.49 1.56 1.63 1.60 1.49 1.24 1.22 1.26 1.18 1.09 0.99 0.88 0.80 0.81 0.81 0.77 0.67 0.61 0.59 0.59 0.53 0.48 0.45 0.31 0.28 0.26 0.25
0.01 0.02 0.03 0.04 0.05 0.09 0.16 0.29 0.42 0.50 0.56 0.64 0.72 0.76 0.85 0.94 0.93 1.00 1.13 1.13 1.27 1.34 1.36 1.34 1.36 1.35 1.28 1.18 1.13 1.03 0.95 0.89 0.83 0.82 0.70 0.59 0.53 0.47 0.40 0.33 0.30 0.25 0.22
0.03 0.02 0.02 0.01 0.01 0.01 0.02 0.04 0.07 0.14 0.25 0.33 0.33 0.31 0.37 0.45 0.43 0.42 0.44 0.50 0.67 0.83 0.97 1.02 1.05 1.06 1.08 1.08 1.06 1.05 1.01 0.96 0.87 0.77 0.72 0.66 0.59 0.48 0.45 0.41 0.35 0.29 0.23
0.02 0.02 0.02 0.01 0.01 0.01 0.00 0.00 0.00 0.01 0.01 0.04 0.08 0.14 0.16 0.18 0.17 0.23 0.27 0.31 0.37 0.47 0.56 0.62 0.66 0.65 0.64 0.65 0.68 0.70 0.69 0.69 0.68 0.63 0.58 0.52 0.48 0.43 0.39 0.35 0.30 0.25 0.20
0.03 0.02 0.02 0.01 0.02 0.01 0.01 0.01 0.01 0.01 0.01 0.01 0.03 0.02 0.01 0.02 0.06 0.09 0.13 0.17 0.22 0.26 0.32 0.36 0.39 0.41 0.40 0.39 0.36 0.34 0.35 0.37 0.38 0.37 0.35 0.33 0.30 0.26 0.23 0.20 0.17 0.13 0.10
0.02 0.02 0.01 0.02 0.02 0.01 0.01 0.01 0.01 0.00 0.00 0.01 0.01 0.00 0.00 0.01 0.01 0.02 0.03 0.05 0.07 0.09 0.12 0.15 0.17 0.19 0.20 0.20 0.20 0.19 0.18 0.17 0.17 0.17 0.17 0.16 0.14 0.13 0.11 0.09 0.07 0.05 0.04
0.02 0.02 0.01 0.02 0.02 0.01 0.01 0.01 0.00 0.00 0.00 0.01 0.01 0.01 0.01 0.01 0.01 0.02 0.02 0.02 0.01 0.02 0.01 0.02 0.03 0.05 0.07 0.09 0.10 0.11 0.12 0.12 0.10 0.08 0.07 0.06 0.06 0.05 0.05 0.04 0.03 0.02 0.01
0.02 0.01 0.01 0.01 0.00 0.00 0.00 0.00 0.00 0.00 0.00 0.01 0.01 0.01 0.01 0.01 0.01 0.01 0.01 0.00 0.00 0.00 0.00 0.00 0.00 0.01 0.01 0.01 0.01 0.01 0.03 0.04 0.05 0.05 0.05 0.05 0.05 0.04 0.03 0.03 0.02 0.02 0.02
0.02 0.02 0.02 0.01 0.01 0.01 0.01 0.01 0.01 0.01 0.01 0.01 0.01 0.01 0.01 0.00 0.00 0.00 0.00 0.00 0.00 0.00 0.00 0.00 0.00 0.00 0.00 0.00 0.00 0.00 0.00 0.00 0.00 0.00 0.00 0.01 0.01 0.01 0.01 0.01 0.01 0.00 0.00
0.01 0.02 0.02 0.01 0.01 0.01 0.01 0.01 0.01 0.01 0.01 0.01 0.01 0.01 0.01 0.01 0.01 0.00 0.00 0.00 0.00 0.00 0.00 0.00 0.00 0.00 0.00 0.00 0.00 0.00 0.00 0.00 0.00 0.00 0.00 0.00 0.00 0.00 0.00 0.00 0.00 0.00 0.00

GFSGL_prec_precacc24_138.txt.gz
Total_Precipitation_Accumulation
0.20 0.20 0.33 0.63 0.63 0.77 0.81 0.65 0.63 0.36 0.20 0.11 0.09 0.11 0.24 0.44 0.29 0.13 0.08 0.06 0.07 0.07 0.07 0.06 0.05 0.07 0.19 0.30 0.32 0.35 0.39 0.36 0.30 0.25 0.25 0.31 0.40 0.41 0.34 0.30 0.20 0.17 0.11
0.17 0.18 0.25 0.38 0.60 0.63 0.62 0.44 0.28 0.36 0.30 0.21 0.22 0.15 0.11 0.08 0.09 0.08 0.08 0.05 0.06 0.08 0.07 0.08 0.07 0.08 0.16 0.26 0.29 0.32 0.38 0.38 0.34 0.28 0.34 0.31 0.27 0.28 0.31 0.29 0.19 0.15 0.13
0.15 0.19 0.21 0.36 0.62 0.65 0.57 0.47 0.47 0.34 0.13 0.10 0.19 0.25 0.21 0.10 0.06 0.03 0.03 0.04 0.05 0.05 0.05 0.07 0.07 0.10 0.13 0.16 0.21 0.26 0.28 0.30 0.33 0.30 0.31 0.30 0.28 0.22 0.25 0.33 0.30 0.20 0.13
0.25 0.17 0.20 0.27 0.37 0.47 0.33 0.40 0.54 0.66 0.33 0.07 0.05 0.07 0.07 0.05 0.04 0.04 0.04 0.05 0.05 0.05 0.06 0.06 0.08 0.10 0.09 0.08 0.15 0.21 0.22 0.22 0.21 0.24 0.24 0.26 0.24 0.18 0.16 0.23 0.38 0.42 0.31
0.37 0.24 0.21 0.16 0.19 0.21 0.19 0.17 0.27 0.26 0.31 0.20 0.09 0.07 0.04 0.05 0.06 0.05 0.06 0.07 0.07 0.07 0.07 0.08 0.14 0.24 0.30 0.32 0.41 0.41 0.38 0.33 0.27 0.28 0.29 0.30 0.27 0.22 0.20 0.16 0.24 0.39 0.46
0.26 0.18 0.21 0.15 0.07 0.08 0.10 0.13 0.18 0.19 0.13 0.11 0.05 0.06 0.08 0.07 0.10 0.08 0.06 0.05 0.07 0.08 0.07 0.08 0.12 0.31 0.32 0.44 0.52 0.62 0.59 0.60 0.41 0.28 0.29 0.30 0.27 0.28 0.31 0.31 0.32 0.40 0.44
0.04 0.09 0.07 0.04 0.04 0.06 0.06 0.08 0.14 0.16 0.13 0.11 0.10 0.06 0.05 0.06 0.11 0.06 0.08 0.06 0.08 0.08 0.09 0.08 0.10 0.15 0.26 0.30 0.52 0.57 0.61 0.69 0.52 0.40 0.40 0.32 0.32 0.32 0.41 0.47 0.36 0.30 0.30
0.02 0.04 0.09 0.09 0.06 0.13 0.11 0.10 0.13 0.16 0.17 0.14 0.12 0.09 0.06 0.06 0.13 0.11 0.11 0.07 0.07 0.08 0.09 0.08 0.09 0.10 0.17 0.17 0.19 0.32 0.36 0.48 0.58 0.53 0.37 0.33 0.37 0.45 0.41 0.39 0.43 0.49 0.56
0.03 0.05 0.06 0.08 0.10 0.20 0.24 0.23 0.21 0.21 0.25 0.25 0.16 0.11 0.10 0.08 0.10 0.10 0.15 0.09 0.12 0.09 0.06 0.08 0.12 0.08 0.18 0.20 0.12 0.13 0.18 0.20 0.43 0.49 0.51 0.61 0.58 0.56 0.44 0.39 0.45 0.45 0.46
0.11 0.11 0.10 0.13 0.15 0.24 0.23 0.37 0.42 0.31 0.26 0.24 0.22 0.18 0.24 0.13 0.17 0.14 0.14 0.11 0.12 0.13 0.16 0.14 0.18 0.14 0.21 0.14 0.10 0.09 0.11 0.16 0.17 0.22 0.25 0.30 0.38 0.51 0.59 0.30 0.25 0.40 0.39
0.26 0.25 0.21 0.22 0.27 0.30 0.32 0.28 0.43 0.43 0.31 0.31 0.33 0.32 0.29 0.35 0.30 0.30 0.24 0.09 0.08 0.11 0.11 0.10 0.14 0.25 0.24 0.26 0.20 0.09 0.15 0.16 0.22 0.20 0.28 0.35 0.36 0.35 0.36 0.43 0.45 0.51 0.46
0.31 0.40 0.35 0.36 0.41 0.48 0.46 0.46 0.37 0.49 0.71 0.68 0.55 0.40 0.32 0.34 0.50 0.52 0.38 0.30 0.24 0.11 0.13 0.16 0.18 0.28 0.26 0.33 0.36 0.45 0.45 0.41 0.30 0.31 0.29 0.33 0.45 0.47 0.39 0.33 0.34 0.42 0.46
0.30 0.46 0.47 0.61 0.76 0.66 0.69 0.58 0.63 0.55 0.51 0.72 0.81 0.74 0.58 0.37 0.44 0.57 0.61 0.58 0.50 0.29 0.30 0.36 0.36 0.35 0.33 0.34 0.45 0.45 0.42 0.30 0.25 0.29 0.37 0.41 0.37 0.42 0.49 0.45 0.35 0.30 0.35
0.25 0.32 0.45 0.61 0.85 1.02 1.12 1.10 0.98 0.97 0.82 0.73 0.68 0.76 0.80 0.76 0.57 0.54 0.56 0.59 0.58 0.52 0.51 0.46 0.42 0.40 0.44 0.42 0.44 0.38 0.26 0.32 0.37 0.32 0.32 0.37 0.40 0.38 0.38 0.38 0.43 0.44 0.44
0.21 0.26 0.29 0.42 0.65 0.96 1.28 1.60 1.68 1.71 1.49 1.29 1.13 0.92 0.88 0.96 1.15 1.02 0.89 0.80 0.74 0.75 0.63 0.59 0.62 0.53 0.47 0.43 0.38 0.40 0.46 0.51 0.48 0.42 0.42 0.42 0.46 0.50 0.49 0.44 0.38 0.32 0.35
0.10 0.16 0.21 0.26 0.38 0.54 0.82 1.09 1.42 1.73 1.68 1.60 1.60 1.49 1.40 1.47 1.46 1.31 1.23 1.17 1.16 1.06 0.82 0.76 0.77 0.78 0.73 0.71 0.69 0.64 0.61 0.70 0.62 0.59 0.66 0.65 0.63 0.60 0.58 0.54 0.51 0.47 0.41
0.03 0.04 0.08 0.13 0.19 0.31 0.43 0.58 0.75 0.92 1.09 1.22 1.27 1.35 1.42 1.49 1.49 1.56 1.63 1.60 1.49 1.24 1.22 1.26 1.18 1.09 1.02 0.94 0.86 0.89 0.90 0.86 0.75 0.70 0.71 0.75 0.77 0.78 0.80 0.66 0.58 0.51 0.49
0.02 0.01 0.03 0.04 0.05 0.09 0.16 0.29 0.42 0.50 0.55 0.62 0.71 0.76 0.85 0.93 0.93 1.00 1.13 1.13 1.27 1.34 1.36 1.35 1.38 1.38 1.33 1.25 1.23 1.15 1.11 1.09 1.05 1.02 0.87 0.76 0.73 0.71 0.66 0.59 0.55 0.49 0.46
0.03 0.02 0.02 0.01 0.01 0.01 0.02 0.04 0.07 0.14 0.24 0.31 0.32 0.30 0.36 0.44 0.43 0.42 0.44 0.50 0.67 0.83 0.98 1.03 1.07 1.09 1.13 1.16 1.16 1.18 1.19 1.20 1.14 1.06 1.05 1.00 0.92 0.78 0.75 0.71 0.63 0.55 0.45
0.02 0.02 0.02 0.01 0.01 0.00 0.00 0.00 0.00 0.00 0.01 0.04 0.07 0.12 0.16 0.18 0.17 0.23 0.27 0.31 0.37 0.47 0.57 0.63 0.68 0.69 0.70 0.74 0.79 0.82 0.82 0.86 0.90 0.88 0.86 0.83 0.81 0.75 0.70 0.64 0.60 0.56 0.50
0.02 0.01 0.01 0.01 0.02 0.01 0.01 0.00 0.00 0.01 0.01 0.01 0.03 0.02 0.01 0.03 0.06 0.09 0.13 0.18 0.22 0.27 0.33 0.37 0.41 0.43 0.44 0.45 0.45 0.45 0.47 0.50 0.53 0.55 0.56 0.56 0.54 0.50 0.48 0.45 0.41 0.36 0.32
0.01 0.01 0.01 0.01 0.01 0.01 0.01 0.01 0.01 0.01 0.01 0.01 0.01 0.00 0.00 0.01 0.01 0.02 0.03 0.05 0.07 0.09 0.12 0.15 0.18 0.21 0.23 0.25 0.26 0.27 0.28 0.29 0.29 0.31 0.33 0.33 0.33 0.32 0.30 0.28 0.26 0.23 0.20
0.01 0.01 0.01 0.01 0.01 0.01 0.01 0.00 0.00 0.00 0.01 0.01 0.01 0.01 0.01 0.01 0.01 0.02 0.02 0.02 0.01 0.01 0.02 0.02 0.04 0.06 0.08 0.10 0.13 0.16 0.19 0.21 0.20 0.17 0.16 0.16 0.17 0.18 0.18 0.17 0.16 0.14 0.12
0.01 0.00 0.01 0.00 0.00 0.00 0.00 0.01 0.00 0.00 0.00 0.01 0.01 0.01 0.01 0.01 0.01 0.01 0.01 0.01 0.00 0.00 0.00 0.00 0.00 0.00 0.00 0.00 0.01 0.02 0.05 0.08 0.09 0.10 0.10 0.10 0.10 0.09 0.09 0.09 0.09 0.09 0.08
0.01 0.01 0.01 0.01 0.01 0.01 0.01 0.01 0.01 0.01 0.01 0.01 0.01 0.01 0.01 0.00 0.00 0.00 0.00 0.00 0.00 0.00 0.00 0.00 0.00 0.00 0.00 0.00 0.00 0.00 0.00 0.00 0.01 0.01 0.02 0.03 0.04 0.04 0.04 0.04 0.04 0.03 0.03
0.01 0.01 0.01 0.01 0.01 0.01 0.01 0.01 0.01 0.01 0.01 0.01 0.01 0.01 0.01 0.01 0.01 0.00 0.00 0.00 0.00 0.00 0.00 0.00 0.00 0.00 0.00 0.00 0.00 0.00 0.00 0.00 0.00 0.00 0.00 0.00 0.00 0.00 0.00 0.01 0.01 0.01 0.01

GFSGL_prec_precacc24_141.txt.gz
Total_Precipitation_Accumulation
0.25 0.31 0.49 0.73 0.67 0.78 0.84 0.77 1.05 1.29 1.09 0.85 0.68 0.56 0.39 0.63 0.65 0.35 0.21 0.15 0.11 0.08 0.07 0.06 0.05 0.05 0.09 0.14 0.19 0.26 0.34 0.36 0.30 0.24 0.28 0.35 0.45 0.40 0.31 0.25 0.19 0.16 0.10
0.40 0.37 0.43 0.56 0.69 0.65 0.64 0.60 0.41 1.26 1.53 1.44 1.32 0.80 0.28 0.30 0.48 0.52 0.34 0.32 0.24 0.16 0.10 0.09 0.08 0.07 0.09 0.12 0.17 0.21 0.29 0.35 0.36 0.28 0.34 0.31 0.28 0.32 0.28 0.25 0.17 0.14 0.12
0.51 0.48 0.40 0.46 0.67 0.73 0.70 0.68 0.76 0.66 1.15 1.29 1.48 1.20 0.42 0.23 0.20 0.17 0.23 0.18 0.18 0.16 0.08 0.08 0.08 0.10 0.12 0.11 0.12 0.18 0.21 0.24 0.31 0.29 0.29 0.30 0.28 0.24 0.26 0.33 0.30 0.19 0.13
0.66 0.56 0.50 0.50 0.42 0.56 0.71 0.80 1.01 1.10 1.04 0.95 1.04 0.70 0.31 0.14 0.12 0.13 0.12 0.12 0.10 0.09 0.06 0.06 0.06 0.07 0.07 0.07 0.10 0.12 0.16 0.19 0.17 0.21 0.22 0.24 0.23 0.20 0.16 0.23 0.36 0.40 0.30
0.69 0.49 0.39 0.43 0.41 0.28 0.30 0.41 0.73 0.75 0.83 1.04 1.07 0.82 0.34 0.10 0.08 0.08 0.08 0.10 0.10 0.09 0.07 0.07 0.08 0.12 0.14 0.20 0.27 0.23 0.22 0.23 0.21 0.20 0.21 0.24 0.23 0.19 0.18 0.13 0.21 0.37 0.45
0.30 0.23 0.29 0.22 0.18 0.20 0.23 0.22 0.31 0.52 0.60 0.55 0.61 0.77 0.73 0.30 0.16 0.10 0.08 0.06 0.07 0.07 0.07 0.07 0.08 0.17 0.18 0.30 0.34 0.43 0.42 0.46 0.33 0.23 0.22 0.23 0.20 0.20 0.23 0.24 0.28 0.37 0.41
0.05 0.08 0.06 0.05 0.06 0.05 0.08 0.11 0.15 0.27 0.36 0.40 0.36 0.28 0.28 0.27 0.25 0.14 0.09 0.07 0.08 0.08 0.09 0.08 0.09 0.10 0.15 0.18 0.33 0.43 0.50 0.61 0.48 0.38 0.38 0.29 0.28 0.27 0.36 0.40 0.29 0.26 0.26
0.00 0.00 0.02 0.02 0.02 0.03 0.03 0.02 0.04 0.10 0.14 0.16 0.18 0.17 0.15 0.11 0.16 0.13 0.12 0.07 0.07 0.08 0.09 0.08 0.09 0.10 0.15 0.14 0.13 0.25 0.31 0.43 0.54 0.52 0.38 0.33 0.35 0.43 0.39 0.36 0.41 0.47 0.54
0.01 0.01 0.00 0.02 0.04 0.07 0.09 0.08 0.10 0.14 0.20 0.22 0.15 0.10 0.10 0.08 0.10 0.10 0.15 0.09 0.11 0.09 0.06 0.08 0.12 0.08 0.19 0.20 0.12 0.12 0.17 0.20 0.41 0.47 0.50 0.59 0.56 0.55 0.44 0.39 0.45 0.43 0.42
0.02 0.02 0.01 0.03 0.07 0.10 0.12 0.23 0.25 0.23 0.22 0.21 0.21 0.17 0.23 0.13 0.17 0.14 0.14 0.11 0.11 0.13 0.16 0.14 0.17 0.14 0.21 0.14 0.10 0.09 0.12 0.16 0.17 0.21 0.23 0.27 0.37 0.50 0.59 0.30 0.23 0.35 0.36
0.02 0.01 0.03 0.04 0.12 0.17 0.21 0.18 0.35 0.38 0.26 0.27 0.30 0.30 0.27 0.34 0.30 0.29 0.22 0.09 0.09 0.11 0.10 0.10 0.14 0.24 0.21 0.24 0.19 0.09 0.16 0.18 0.22 0.19 0.27 0.34 0.35 0.35 0.42 0.49 0.43 0.45 0.40
0.02 0.02 0.06 0.10 0.16 0.25 0.29 0.33 0.29 0.44 0.66 0.64 0.52 0.38 0.31 0.33 0.48 0.51 0.37 0.28 0.22 0.11 0.13 0.16 0.17 0.26 0.24 0.28 0.31 0.36 0.37 0.36 0.28 0.33 0.30 0.32 0.44 0.46 0.39 0.37 0.40 0.49 0.53
0.02 0.05 0.10 0.15 0.21 0.24 0.36 0.33 0.48 0.47 0.47 0.67 0.77 0.72 0.57 0.37 0.43 0.55 0.58 0.54 0.46 0.27 0.27 0.32 0.34 0.33 0.30 0.29 0.36 0.35 0.34 0.25 0.19 0.25 0.34 0.37 0.35 0.42 0.52 0.53 0.46 0.41 0.43
0.02 0.06 0.12 0.17 0.27 0.41 0.45 0.56 0.58 0.67 0.66 0.64 0.62 0.71 0.75 0.74 0.56 0.51 0.50 0.51 0.52 0.47 0.44 0.39 0.36 0.33 0.36 0.36 0.37 0.34 0.23 0.28 0.34 0.29 0.29 0.34 0.39 0.39 0.42 0.47 0.55 0.57 0.60
0.03 0.05 0.10 0.17 0.28 0.48 0.71 0.97 0.94 1.04 1.01 0.96 0.93 0.83 0.83 0.91 1.05 0.94 0.83 0.73 0.62 0.59 0.51 0.50 0.55 0.48 0.45 0.42 0.36 0.38 0.44 0.47 0.44 0.40 0.41 0.41 0.46 0.52 0.56 0.53 0.50 0.46 0.49
0.02 0.04 0.08 0.13 0.23 0.36 0.58 0.79 1.07 1.26 1.22 1.20 1.22 1.21 1.24 1.33 1.31 1.16 1.09 1.08 1.09 1.03 0.80 0.75 0.76 0.77 0.73 0.71 0.69 0.64 0.60 0.70 0.63 0.60 0.67 0.66 0.64 0.61 0.60 0.60 0.62 0.63 0.62
0.03 0.02 0.04 0.08 0.13 0.22 0.34 0.49 0.64 0.81 0.99 1.12 1.18 1.27 1.35 1.43 1.45 1.53 1.61 1.58 1.48 1.24 1.22 1.26 1.18 1.10 1.02 0.94 0.87 0.89 0.91 0.86 0.76 0.71 0.72 0.78 0.80 0.83 0.88 0.75 0.71 0.64 0.65
0.01 0.01 0.02 0.03 0.04 0.08 0.13 0.25 0.38 0.46 0.50 0.56 0.67 0.75 0.84 0.93 0.93 1.00 1.13 1.13 1.27 1.34 1.36 1.36 1.38 1.38 1.33 1.26 1.24 1.17 1.12 1.09 1.07 1.05 0.91 0.81 0.78 0.78 0.77 0.74 0.72 0.67 0.66
0.02 0.01 0.01 0.01 0.00 0.01 0.02 0.03 0.06 0.13 0.22 0.29 0.31 0.30 0.36 0.44 0.43 0.42 0.44 0.50 0.67 0.83 0.98 1.03 1.07 1.09 1.14 1.16 1.17 1.19 1.20 1.21 1.17 1.10 1.11 1.09 1.02 0.89 0.87 0.86 0.82 0.79 0.70
0.02 0.01 0.01 0.01 0.00 0.00 0.00 0.00 0.00 0.00 0.01 0.03 0.06 0.11 0.16 0.18 0.17 0.23 0.27 0.31 0.37 0.48 0.57 0.63 0.69 0.69 0.71 0.74 0.79 0.83 0.83 0.87 0.92 0.93 0.93 0.93 0.96 0.93 0.90 0.85 0.81 0.79 0.77
0.01 0.01 0.00 0.01 0.01 0.01 0.01 0.00 0.00 0.01 0.01 0.01 0.03 0.02 0.01 0.03 0.06 0.09 0.13 0.18 0.22 0.27 0.33 0.37 0.41 0.44 0.45 0.45 0.45 0.45 0.48 0.52 0.56 0.61 0.63 0.66 0.67 0.67 0.68 0.67 0.65 0.60 0.54
0.01 0.01 0.01 0.01 0.01 0.01 0.01 0.01 0.01 0.01 0.01 0.01 0.01 0.00 0.00 0.01 0.01 0.02 0.03 0.05 0.07 0.09 0.12 0.16 0.18 0.21 0.24 0.25 0.27 0.28 0.29 0.30 0.32 0.35 0.38 0.42 0.44 0.45 0.45 0.44 0.43 0.41 0.40
0.01 0.01 0.01 0.01 0.01 0.01 0.01 0.00 0.00 0.00 0.01 0.01 0.01 0.01 0.01 0.01 0.01 0.02 0.02 0.03 0.01 0.01 0.02 0.02 0.04 0.06 0.08 0.10 0.14 0.17 0.20 0.23 0.24 0.21 0.21 0.22 0.25 0.28 0.30 0.30 0.30 0.29 0.27
0.00 0.00 0.01 0.00 0.00 0.00 0.00 0.01 0.00 0.00 0.00 0.01 0.01 0.01 0.01 0.01 0.01 0.01 0.01 0.01 0.00 0.00 0.00 0.00 0.00 0.00 0.00 0.00 0.01 0.02 0.05 0.08 0.10 0.12 0.13 0.14 0.15 0.15 0.16 0.17 0.19 0.20 0.20
0.01 0.01 0.01 0.01 0.01 0.01 0.01 0.01 0.01 0.01 0.01 0.01 0.01 0.01 0.01 0.00 0.00 0.00 0.00 0.00 0.00 0.00 0.00 0.00 0.00 0.00 0.00 0.00 0.00 0.00 0.00 0.00 0.01 0.01 0.02 0.05 0.07 0.08 0.09 0.10 0.10 0.10 0.10
0.01 0.01 0.01 0.01 0.01 0.01 0.01 0.01 0.01 0.01 0.01 0.01 0.01 0.01 0.01 0.01 0.01 0.00 0.00 0.00 0.00 0.00 0.00 0.00 0.00 0.00 0.00 0.00 0.00 0.00 0.00 0.00 0.00 0.00 0.00 0.00 0.01 0.01 0.02 0.03 0.04 0.05 0.05

GFSGL_prec_precacc24_144.txt.gz
Total_Precipitation_Accumulation
0.27 0.33 0.50 0.75 0.70 0.82 0.87 0.79 1.05 1.29 1.08 0.83 0.67 0.91 0.93 1.02 1.13 0.88 0.72 0.32 0.23 0.20 0.16 0.13 0.09 0.06 0.10 0.10 0.13 0.14 0.15 0.20 0.21 0.17 0.25 0.33 0.45 0.39 0.28 0.22 0.18 0.16 0.12
0.45 0.42 0.48 0.67 0.85 0.82 0.79 0.71 0.45 1.27 1.54 1.43 1.31 1.02 1.45 1.29 1.08 1.02 0.88 0.52 0.35 0.26 0.19 0.17 0.13 0.09 0.09 0.10 0.09 0.09 0.16 0.24 0.30 0.22 0.31 0.30 0.28 0.31 0.27 0.24 0.16 0.12 0.09
0.58 0.57 0.52 0.62 0.84 0.89 0.91 0.87 0.83 0.78 1.21 1.29 1.56 1.65 1.24 1.53 1.09 0.81 0.78 0.56 0.38 0.36 0.26 0.17 0.13 0.12 0.13 0.11 0.10 0.10 0.10 0.14 0.25 0.25 0.25 0.28 0.26 0.21 0.23 0.30 0.27 0.18 0.12
0.72 0.69 0.70 0.75 0.69 0.76 0.87 1.00 1.14 1.15 1.06 0.95 1.12 1.21 1.08 0.85 1.09 0.94 0.78 0.49 0.22 0.22 0.25 0.29 0.23 0.15 0.12 0.11 0.11 0.11 0.11 0.13 0.14 0.20 0.21 0.22 0.21 0.18 0.14 0.19 0.32 0.35 0.27
0.71 0.55 0.48 0.57 0.75 0.56 0.48 0.61 0.84 0.78 0.83 1.04 1.10 1.12 1.19 0.88 0.61 0.76 0.86 0.49 0.24 0.13 0.12 0.14 0.20 0.23 0.18 0.12 0.12 0.14 0.16 0.19 0.18 0.17 0.17 0.21 0.19 0.16 0.14 0.08 0.14 0.29 0.40
0.30 0.24 0.32 0.27 0.32 0.36 0.40 0.33 0.35 0.50 0.59 0.59 0.71 1.00 1.22 1.31 0.92 0.62 0.56 0.53 0.38 0.14 0.08 0.09 0.11 0.21 0.28 0.29 0.23 0.19 0.22 0.28 0.23 0.16 0.13 0.14 0.12 0.12 0.16 0.15 0.18 0.29 0.36
0.05 0.08 0.06 0.05 0.06 0.05 0.08 0.12 0.15 0.23 0.34 0.44 0.49 0.49 0.60 0.83 1.08 0.90 0.67 0.51 0.42 0.21 0.10 0.08 0.08 0.07 0.10 0.12 0.18 0.22 0.26 0.31 0.26 0.22 0.21 0.17 0.19 0.18 0.26 0.32 0.23 0.21 0.22
0.00 0.00 0.02 0.02 0.01 0.01 0.01 0.01 0.01 0.02 0.04 0.09 0.18 0.27 0.30 0.34 0.47 0.60 0.67 0.55 0.42 0.24 0.13 0.09 0.09 0.09 0.11 0.09 0.09 0.14 0.16 0.26 0.36 0.37 0.27 0.22 0.27 0.36 0.33 0.31 0.36 0.42 0.47
0.01 0.01 0.00 0.01 0.00 0.00 0.00 0.01 0.02 0.03 0.02 0.04 0.07 0.10 0.13 0.14 0.18 0.21 0.25 0.24 0.27 0.20 0.12 0.11 0.12 0.08 0.16 0.18 0.10 0.10 0.14 0.16 0.31 0.39 0.42 0.51 0.51 0.53 0.44 0.40 0.46 0.42 0.39
0.03 0.02 0.01 0.01 0.01 0.00 0.01 0.02 0.02 0.05 0.06 0.06 0.14 0.17 0.23 0.15 0.18 0.15 0.15 0.12 0.13 0.15 0.18 0.14 0.17 0.13 0.20 0.14 0.10 0.08 0.10 0.15 0.16 0.19 0.22 0.26 0.35 0.50 0.61 0.33 0.24 0.36 0.34
0.02 0.01 0.01 0.00 0.02 0.01 0.02 0.03 0.04 0.09 0.09 0.12 0.20 0.28 0.26 0.32 0.29 0.28 0.22 0.09 0.09 0.11 0.11 0.10 0.14 0.23 0.20 0.22 0.18 0.09 0.16 0.18 0.21 0.19 0.26 0.34 0.36 0.37 0.44 0.50 0.43 0.43 0.37
0.00 0.00 0.01 0.01 0.02 0.03 0.03 0.06 0.07 0.15 0.31 0.44 0.38 0.31 0.29 0.31 0.43 0.46 0.34 0.25 0.21 0.11 0.13 0.16 0.17 0.24 0.22 0.26 0.28 0.31 0.34 0.33 0.27 0.33 0.30 0.32 0.43 0.45 0.37 0.35 0.40 0.53 0.54
0.00 0.00 0.01 0.01 0.01 0.03 0.07 0.07 0.15 0.18 0.27 0.43 0.53 0.54 0.50 0.34 0.39 0.50 0.53 0.50 0.43 0.26 0.26 0.30 0.32 0.32 0.29 0.27 0.34 0.33 0.31 0.22 0.17 0.23 0.31 0.34 0.31 0.39 0.50 0.52 0.48 0.46 0.49
0.01 0.01 0.01 0.01 0.02 0.06 0.12 0.16 0.20 0.31 0.41 0.45 0.44 0.54 0.55 0.61 0.49 0.47 0.47 0.48 0.48 0.44 0.41 0.37 0.34 0.30 0.33 0.32 0.34 0.30 0.21 0.26 0.31 0.27 0.27 0.32 0.37 0.38 0.42 0.49 0.58 0.62 0.65
0.00 0.01 0.01 0.02 0.04 0.11 0.22 0.41 0.47 0.54 0.55 0.64 0.74 0.65 0.70 0.78 0.93 0.82 0.73 0.65 0.55 0.50 0.41 0.40 0.46 0.40 0.34 0.33 0.28 0.31 0.37 0.41 0.40 0.36 0.37 0.40 0.46 0.52 0.56 0.53 0.50 0.47 0.50
0.01 0.01 0.01 0.02 0.05 0.10 0.20 0.32 0.52 0.72 0.71 0.73 0.82 0.85 0.93 1.03 1.03 0.94 0.91 0.89 0.89 0.84 0.68 0.66 0.64 0.63 0.59 0.59 0.62 0.59 0.55 0.63 0.58 0.57 0.66 0.66 0.64 0.61 0.60 0.60 0.62 0.63 0.62
0.02 0.02 0.02 0.02 0.03 0.06 0.14 0.23 0.33 0.47 0.65 0.77 0.85 0.90 0.93 1.00 1.03 1.16 1.32 1.37 1.32 1.09 1.08 1.13 1.08 1.00 0.95 0.89 0.84 0.88 0.90 0.86 0.76 0.71 0.73 0.78 0.81 0.83 0.88 0.76 0.71 0.65 0.66
0.01 0.01 0.02 0.02 0.02 0.03 0.05 0.13 0.23 0.31 0.35 0.41 0.50 0.58 0.66 0.74 0.75 0.86 1.03 1.07 1.23 1.31 1.33 1.33 1.36 1.38 1.33 1.26 1.24 1.17 1.12 1.09 1.07 1.05 0.92 0.81 0.78 0.78 0.77 0.74 0.73 0.69 0.69
0.02 0.01 0.01 0.01 0.00 0.00 0.01 0.02 0.04 0.09 0.17 0.22 0.25 0.24 0.31 0.42 0.41 0.42 0.44 0.51 0.67 0.84 0.99 1.03 1.07 1.10 1.14 1.16 1.17 1.19 1.20 1.22 1.17 1.10 1.11 1.09 1.03 0.89 0.87 0.88 0.84 0.82 0.74
0.02 0.01 0.01 0.01 0.00 0.00 0.00 0.00 0.00 0.00 0.01 0.03 0.06 0.11 0.15 0.18 0.17 0.23 0.27 0.32 0.37 0.48 0.58 0.63 0.69 0.69 0.71 0.75 0.79 0.83 0.83 0.87 0.93 0.94 0.94 0.94 0.97 0.94 0.92 0.87 0.84 0.83 0.83
0.01 0.01 0.00 0.01 0.01 0.01 0.01 0.00 0.00 0.00 0.01 0.01 0.02 0.02 0.01 0.02 0.06 0.09 0.13 0.18 0.22 0.27 0.33 0.37 0.41 0.44 0.45 0.46 0.45 0.46 0.48 0.52 0.57 0.61 0.64 0.68 0.68 0.68 0.70 0.69 0.68 0.64 0.60
0.01 0.01 0.01 0.01 0.01 0.00 0.00 0.00 0.00 0.00 0.00 0.01 0.01 0.00 0.00 0.01 0.01 0.02 0.03 0.05 0.07 0.09 0.12 0.16 0.18 0.21 0.23 0.26 0.28 0.28 0.29 0.31 0.33 0.36 0.39 0.42 0.45 0.47 0.47 0.47 0.47 0.47 0.47
0.01 0.01 0.00 0.01 0.01 0.00 0.01 0.00 0.00 0.00 0.01 0.01 0.01 0.01 0.01 0.01 0.01 0.01 0.02 0.02 0.01 0.01 0.02 0.02 0.03 0.05 0.07 0.10 0.14 0.18 0.21 0.24 0.25 0.23 0.23 0.24 0.26 0.30 0.32 0.33 0.34 0.35 0.35
0.00 0.00 0.01 0.00 0.00 0.00 0.00 0.01 0.00 0.00 0.00 0.01 0.01 0.01 0.01 0.01 0.01 0.00 0.01 0.00 0.00 0.00 0.00 0.00 0.00 0.00 0.00 0.00 0.01 0.02 0.05 0.09 0.10 0.12 0.14 0.15 0.16 0.17 0.18 0.20 0.23 0.25 0.27
0.01 0.01 0.01 0.01 0.01 0.01 0.01 0.01 0.01 0.01 0.01 0.01 0.01 0.01 0.01 0.00 0.00 0.00 0.00 0.00 0.00 0.00 0.00 0.00 0.00 0.00 0.00 0.00 0.00 0.00 0.00 0.00 0.01 0.01 0.02 0.05 0.07 0.10 0.11 0.12 0.13 0.14 0.16
0.01 0.01 0.01 0.01 0.01 0.01 0.01 0.01 0.01 0.01 0.01 0.01 0.01 0.01 0.01 0.01 0.01 0.00 0.00 0.00 0.00 0.00 0.00 0.00 0.00 0.00 0.00 0.00 0.00 0.00 0.00 0.00 0.00 0.00 0.00 0.00 0.01 0.01 0.02 0.04 0.06 0.08 0.10

GFSGL_prec_precacc24_147.txt.gz
Total_Precipitation_Accumulation
0.28 0.34 0.51 0.77 0.71 0.82 0.88 0.79 1.06 1.30 1.10 0.85 0.68 0.91 0.92 1.02 1.12 0.87 0.88 0.82 0.66 0.47 0.47 0.47 0.33 0.23 0.23 0.25 0.25 0.20 0.16 0.17 0.11 0.07 0.17 0.25 0.40 0.36 0.26 0.21 0.16 0.14 0.12
0.45 0.42 0.50 0.68 0.85 0.83 0.80 0.73 0.49 1.30 1.57 1.46 1.34 1.03 1.44 1.28 1.08 1.01 0.87 0.69 0.84 0.73 0.59 0.52 0.40 0.28 0.26 0.26 0.22 0.16 0.16 0.18 0.19 0.10 0.21 0.22 0.24 0.30 0.25 0.23 0.15 0.09 0.07
0.58 0.57 0.53 0.62 0.85 0.92 0.94 0.97 0.96 0.87 1.39 1.42 1.62 1.68 1.26 1.53 1.09 0.81 0.80 0.92 0.67 0.92 0.89 0.69 0.51 0.31 0.26 0.21 0.18 0.14 0.09 0.09 0.13 0.13 0.12 0.21 0.22 0.19 0.22 0.28 0.24 0.16 0.09
0.72 0.69 0.70 0.76 0.72 0.83 0.94 1.16 1.40 1.44 1.36 1.34 1.45 1.42 1.16 0.87 1.09 0.93 0.78 0.63 0.71 0.51 0.56 0.77 0.66 0.51 0.28 0.16 0.15 0.12 0.10 0.12 0.12 0.15 0.14 0.15 0.17 0.15 0.12 0.16 0.24 0.26 0.20
0.71 0.55 0.48 0.58 0.79 0.62 0.57 0.74 1.13 1.08 1.11 1.31 1.35 1.35 1.35 0.93 0.62 0.75 0.89 0.66 0.62 0.66 0.48 0.41 0.43 0.41 0.32 0.19 0.11 0.09 0.08 0.11 0.13 0.16 0.16 0.16 0.14 0.11 0.11 0.06 0.10 0.21 0.30
0.30 0.24 0.32 0.27 0.33 0.38 0.43 0.41 0.45 0.62 0.75 0.81 0.97 1.26 1.39 1.46 1.04 0.66 0.61 0.70 0.67 0.59 0.57 0.45 0.32 0.33 0.33 0.31 0.22 0.14 0.11 0.12 0.12 0.11 0.13 0.16 0.10 0.08 0.12 0.12 0.14 0.23 0.30
0.05 0.08 0.06 0.05 0.06 0.05 0.09 0.12 0.15 0.23 0.35 0.51 0.65 0.71 0.79 0.99 1.20 1.01 0.78 0.64 0.63 0.65 0.65 0.58 0.42 0.24 0.24 0.17 0.17 0.20 0.19 0.16 0.12 0.13 0.16 0.14 0.14 0.12 0.16 0.22 0.17 0.15 0.16
0.00 0.00 0.02 0.02 0.01 0.01 0.01 0.00 0.00 0.01 0.02 0.07 0.15 0.23 0.31 0.37 0.48 0.65 0.80 0.78 0.70 0.63 0.58 0.59 0.58 0.41 0.24 0.19 0.11 0.11 0.10 0.13 0.18 0.17 0.11 0.11 0.16 0.23 0.24 0.22 0.25 0.29 0.35
0.01 0.01 0.01 0.02 0.00 0.00 0.00 0.00 0.00 0.00 0.00 0.01 0.01 0.02 0.07 0.12 0.17 0.21 0.29 0.33 0.50 0.54 0.50 0.51 0.53 0.47 0.44 0.28 0.13 0.14 0.16 0.15 0.24 0.25 0.25 0.31 0.31 0.31 0.30 0.33 0.36 0.32 0.31
0.03 0.02 0.01 0.02 0.01 0.00 0.00 0.00 0.00 0.00 0.00 0.00 0.01 0.02 0.06 0.07 0.15 0.13 0.16 0.15 0.18 0.24 0.31 0.30 0.33 0.29 0.36 0.30 0.21 0.14 0.11 0.14 0.13 0.14 0.17 0.20 0.27 0.38 0.47 0.27 0.23 0.37 0.33
0.02 0.01 0.01 0.00 0.02 0.01 0.00 0.00 0.00 0.00 0.01 0.03 0.04 0.07 0.08 0.18 0.18 0.24 0.21 0.09 0.11 0.14 0.14 0.14 0.17 0.25 0.21 0.24 0.20 0.11 0.16 0.17 0.17 0.16 0.24 0.31 0.35 0.39 0.45 0.49 0.42 0.45 0.40
0.00 0.00 0.01 0.01 0.02 0.03 0.00 0.00 0.00 0.00 0.02 0.09 0.09 0.05 0.09 0.16 0.33 0.41 0.34 0.25 0.20 0.11 0.14 0.16 0.17 0.23 0.20 0.24 0.26 0.29 0.32 0.31 0.27 0.32 0.30 0.32 0.43 0.45 0.38 0.35 0.38 0.50 0.55
0.00 0.00 0.01 0.01 0.01 0.03 0.02 0.01 0.01 0.02 0.02 0.07 0.14 0.20 0.19 0.21 0.27 0.41 0.50 0.48 0.41 0.25 0.25 0.29 0.31 0.31 0.27 0.25 0.30 0.30 0.28 0.22 0.17 0.23 0.31 0.34 0.31 0.38 0.49 0.48 0.42 0.39 0.42
0.01 0.01 0.00 0.01 0.01 0.02 0.05 0.03 0.04 0.07 0.07 0.10 0.16 0.23 0.27 0.39 0.38 0.38 0.44 0.45 0.45 0.43 0.39 0.36 0.32 0.29 0.32 0.31 0.32 0.28 0.20 0.25 0.30 0.26 0.25 0.30 0.35 0.36 0.40 0.47 0.54 0.59 0.63
0.00 0.01 0.00 0.01 0.01 0.01 0.05 0.16 0.12 0.19 0.23 0.24 0.33 0.32 0.36 0.47 0.66 0.61 0.54 0.55 0.51 0.46 0.39 0.39 0.45 0.38 0.31 0.30 0.24 0.26 0.32 0.34 0.35 0.32 0.33 0.35 0.41 0.49 0.55 0.52 0.50 0.47 0.51
0.01 0.01 0.01 0.01 0.01 0.01 0.02 0.06 0.14 0.19 0.20 0.27 0.36 0.46 0.53 0.61 0.61 0.64 0.66 0.64 0.66 0.68 0.57 0.52 0.49 0.49 0.47 0.43 0.42 0.35 0.30 0.42 0.40 0.42 0.54 0.60 0.60 0.58 0.59 0.60 0.62 0.63 0.62
0.02 0.02 0.02 0.02 0.01 0.01 0.02 0.04 0.08 0.14 0.20 0.29 0.34 0.44 0.55 0.68 0.72 0.78 0.93 0.98 0.93 0.80 0.81 0.85 0.84 0.77 0.72 0.68 0.67 0.71 0.73 0.69 0.62 0.61 0.64 0.72 0.78 0.82 0.88 0.76 0.71 0.65 0.66
0.01 0.01 0.02 0.02 0.01 0.01 0.02 0.03 0.06 0.10 0.13 0.18 0.26 0.32 0.40 0.49 0.53 0.61 0.75 0.79 0.94 1.02 1.10 1.13 1.18 1.21 1.20 1.14 1.13 1.09 1.06 1.05 1.05 1.04 0.91 0.81 0.79 0.79 0.78 0.75 0.74 0.69 0.69
0.02 0.01 0.01 0.01 0.00 0.00 0.00 0.00 0.01 0.03 0.08 0.13 0.15 0.16 0.21 0.32 0.33 0.36 0.39 0.45 0.60 0.75 0.90 0.97 1.02 1.06 1.12 1.15 1.16 1.19 1.20 1.22 1.17 1.10 1.12 1.09 1.03 0.90 0.88 0.88 0.85 0.82 0.75
0.02 0.01 0.01 0.01 0.00 0.00 0.00 0.00 0.00 0.00 0.00 0.02 0.04 0.08 0.13 0.16 0.15 0.20 0.25 0.30 0.36 0.47 0.57 0.63 0.68 0.69 0.71 0.75 0.80 0.83 0.83 0.87 0.93 0.94 0.94 0.94 0.98 0.95 0.93 0.88 0.85 0.84 0.83
0.01 0.01 0.00 0.01 0.01 0.01 0.01 0.00 0.00 0.00 0.00 0.01 0.02 0.01 0.01 0.02 0.06 0.09 0.13 0.18 0.22 0.27 0.33 0.37 0.41 0.44 0.45 0.46 0.45 0.46 0.49 0.53 0.57 0.61 0.65 0.68 0.69 0.69 0.71 0.71 0.69 0.64 0.61
0.00 0.00 0.00 0.00 0.00 0.00 0.00 0.00 0.00 0.00 0.00 0.00 0.01 0.00 0.00 0.01 0.01 0.01 0.03 0.05 0.07 0.09 0.12 0.16 0.18 0.21 0.23 0.26 0.28 0.28 0.29 0.31 0.33 0.36 0.39 0.43 0.46 0.48 0.48 0.48 0.48 0.48 0.47
0.01 0.00 0.00 0.00 0.00 0.00 0.01 0.00 0.00 0.00 0.01 0.01 0.01 0.01 0.01 0.01 0.01 0.01 0.01 0.02 0.01 0.01 0.02 0.02 0.03 0.05 0.07 0.10 0.14 0.18 0.21 0.25 0.25 0.23 0.23 0.24 0.27 0.31 0.34 0.35 0.36 0.36 0.36
0.00 0.00 0.01 0.00 0.00 0.00 0.00 0.01 0.00 0.00 0.00 0.01 0.01 0.01 0.01 0.01 0.01 0.00 0.01 0.00 0.00 0.00 0.00 0.00 0.00 0.00 0.00 0.00 0.01 0.02 0.05 0.09 0.10 0.12 0.14 0.15 0.16 0.18 0.20 0.22 0.26 0.28 0.30
0.00 0.01 0.00 0.01 0.01 0.01 0.01 0.01 0.01 0.01 0.01 0.01 0.01 0.01 0.01 0.00 0.00 0.00 0.00 0.00 0.00 0.00 0.00 0.00 0.00 0.00 0.00 0.00 0.00 0.00 0.00 0.00 0.01 0.01 0.02 0.05 0.07 0.10 0.13 0.15 0.17 0.18 0.19
0.01 0.01 0.00 0.01 0.01 0.01 0.01 0.01 0.01 0.01 0.01 0.01 0.01 0.01 0.01 0.01 0.01 0.00 0.00 0.00 0.00 0.00 0.00 0.00 0.00 0.00 0.00 0.00 0.00 0.00 0.00 0.00 0.00 0.00 0.00 0.00 0.01 0.01 0.02 0.05 0.09 0.12 0.14

GFSGL_prec_precacc24_150.txt.gz
Total_Precipitation_Accumulation
0.28 0.34 0.51 0.77 0.71 0.82 0.88 0.80 1.06 1.30 1.10 0.85 0.68 0.91 0.92 1.02 1.12 0.86 0.88 0.82 0.65 0.45 0.46 0.48 0.39 0.37 0.55 0.53 0.45 0.37 0.31 0.29 0.16 0.05 0.16 0.23 0.23 0.19 0.13 0.13 0.13 0.12 0.10
0.45 0.42 0.50 0.68 0.85 0.83 0.80 0.74 0.49 1.31 1.58 1.46 1.34 1.03 1.45 1.28 1.09 1.01 0.86 0.69 0.83 0.72 0.58 0.52 0.52 0.44 0.41 0.41 0.44 0.32 0.28 0.28 0.23 0.10 0.17 0.20 0.17 0.19 0.17 0.16 0.11 0.08 0.06
0.58 0.57 0.53 0.62 0.85 0.92 0.94 0.97 0.97 0.88 1.39 1.42 1.62 1.69 1.27 1.55 1.11 0.83 0.81 0.92 0.67 0.91 0.89 0.68 0.56 0.65 0.60 0.44 0.34 0.28 0.20 0.19 0.18 0.13 0.09 0.16 0.16 0.16 0.17 0.21 0.18 0.11 0.08
0.72 0.69 0.70 0.76 0.72 0.83 0.94 1.16 1.41 1.45 1.38 1.36 1.47 1.46 1.25 0.94 1.15 0.99 0.83 0.66 0.72 0.51 0.55 0.75 0.66 0.60 0.76 0.66 0.49 0.35 0.23 0.20 0.16 0.15 0.12 0.10 0.10 0.10 0.08 0.11 0.19 0.22 0.17
0.71 0.55 0.48 0.58 0.79 0.62 0.57 0.74 1.13 1.09 1.13 1.34 1.38 1.42 1.54 1.18 0.86 0.92 0.97 0.72 0.68 0.68 0.47 0.40 0.45 0.51 0.52 0.50 0.36 0.33 0.31 0.21 0.17 0.17 0.14 0.11 0.07 0.05 0.08 0.06 0.06 0.12 0.22
0.30 0.24 0.32 0.27 0.33 0.38 0.43 0.41 0.46 0.63 0.76 0.84 1.03 1.40 1.64 1.76 1.38 0.93 0.78 0.81 0.74 0.62 0.60 0.47 0.34 0.36 0.36 0.39 0.46 0.38 0.26 0.20 0.15 0.12 0.09 0.09 0.05 0.03 0.08 0.08 0.10 0.15 0.19
0.05 0.08 0.06 0.05 0.06 0.05 0.09 0.12 0.15 0.23 0.35 0.51 0.66 0.76 0.97 1.27 1.52 1.35 1.06 0.85 0.76 0.73 0.68 0.61 0.46 0.31 0.34 0.26 0.24 0.28 0.32 0.33 0.22 0.17 0.15 0.09 0.08 0.08 0.12 0.16 0.12 0.12 0.12
0.00 0.00 0.02 0.02 0.01 0.01 0.01 0.00 0.00 0.01 0.02 0.06 0.14 0.23 0.32 0.44 0.66 0.86 1.03 1.03 0.93 0.80 0.69 0.67 0.64 0.54 0.41 0.45 0.43 0.32 0.23 0.23 0.28 0.25 0.16 0.11 0.13 0.15 0.18 0.18 0.17 0.20 0.25
0.01 0.01 0.01 0.02 0.00 0.00 0.00 0.00 0.00 0.00 0.00 0.00 0.01 0.02 0.04 0.09 0.14 0.18 0.24 0.41 0.59 0.75 0.74 0.70 0.64 0.54 0.55 0.48 0.42 0.51 0.52 0.40 0.36 0.34 0.31 0.31 0.23 0.20 0.24 0.28 0.26 0.22 0.20
0.03 0.02 0.01 0.02 0.02 0.00 0.00 0.00 0.00 0.00 0.00 0.00 0.00 0.01 0.05 0.04 0.08 0.06 0.09 0.10 0.16 0.23 0.33 0.33 0.39 0.38 0.42 0.39 0.35 0.32 0.37 0.45 0.41 0.32 0.27 0.27 0.26 0.27 0.34 0.23 0.19 0.30 0.26
0.02 0.01 0.01 0.01 0.03 0.01 0.00 0.00 0.00 0.00 0.00 0.00 0.00 0.01 0.02 0.07 0.05 0.08 0.10 0.07 0.10 0.12 0.13 0.15 0.19 0.26 0.24 0.29 0.27 0.21 0.29 0.30 0.31 0.30 0.35 0.39 0.36 0.37 0.38 0.38 0.34 0.41 0.35
0.00 0.00 0.01 0.01 0.02 0.03 0.00 0.00 0.00 0.00 0.00 0.00 0.01 0.01 0.01 0.03 0.08 0.10 0.16 0.15 0.13 0.11 0.14 0.16 0.17 0.22 0.19 0.24 0.27 0.31 0.34 0.32 0.28 0.34 0.35 0.35 0.43 0.43 0.36 0.33 0.34 0.45 0.49
0.00 0.00 0.01 0.01 0.01 0.03 0.02 0.01 0.01 0.00 0.01 0.01 0.03 0.03 0.05 0.05 0.05 0.10 0.20 0.33 0.31 0.20 0.24 0.27 0.29 0.29 0.25 0.23 0.28 0.29 0.28 0.24 0.19 0.24 0.32 0.34 0.30 0.37 0.47 0.46 0.40 0.35 0.36
0.01 0.01 0.00 0.01 0.01 0.02 0.05 0.03 0.02 0.03 0.02 0.03 0.05 0.06 0.05 0.09 0.11 0.14 0.19 0.29 0.37 0.40 0.37 0.34 0.30 0.27 0.30 0.29 0.31 0.27 0.20 0.23 0.29 0.27 0.26 0.29 0.34 0.35 0.38 0.44 0.51 0.53 0.56
0.00 0.01 0.00 0.01 0.01 0.01 0.03 0.12 0.07 0.08 0.08 0.10 0.15 0.13 0.17 0.22 0.31 0.25 0.27 0.31 0.32 0.38 0.36 0.39 0.44 0.38 0.31 0.29 0.24 0.26 0.32 0.33 0.32 0.30 0.31 0.34 0.37 0.43 0.47 0.45 0.44 0.42 0.48
0.01 0.01 0.01 0.01 0.01 0.01 0.01 0.02 0.04 0.05 0.02 0.04 0.07 0.11 0.15 0.25 0.26 0.28 0.33 0.36 0.40 0.48 0.47 0.48 0.47 0.48 0.45 0.40 0.39 0.32 0.26 0.34 0.33 0.33 0.42 0.45 0.47 0.46 0.48 0.49 0.52 0.57 0.58
0.02 0.01 0.01 0.01 0.01 0.01 0.01 0.01 0.01 0.01 0.02 0.03 0.06 0.09 0.14 0.19 0.23 0.27 0.39 0.52 0.54 0.47 0.55 0.65 0.67 0.63 0.58 0.54 0.51 0.53 0.54 0.49 0.40 0.38 0.43 0.53 0.61 0.68 0.78 0.68 0.67 0.63 0.66
0.01 0.01 0.01 0.01 0.01 0.01 0.01 0.01 0.01 0.01 0.02 0.03 0.05 0.09 0.13 0.18 0.20 0.26 0.34 0.40 0.55 0.68 0.78 0.82 0.86 0.93 0.93 0.89 0.89 0.87 0.85 0.83 0.84 0.87 0.78 0.71 0.72 0.75 0.76 0.74 0.73 0.69 0.70
0.01 0.00 0.01 0.01 0.00 0.00 0.00 0.00 0.00 0.00 0.02 0.03 0.04 0.05 0.09 0.15 0.16 0.19 0.22 0.27 0.40 0.54 0.68 0.77 0.84 0.87 0.94 0.99 1.03 1.08 1.11 1.15 1.13 1.07 1.09 1.08 1.02 0.90 0.88 0.88 0.85 0.82 0.75
0.01 0.00 0.00 0.00 0.00 0.00 0.00 0.00 0.00 0.00 0.00 0.01 0.02 0.04 0.07 0.09 0.09 0.13 0.16 0.20 0.25 0.35 0.46 0.53 0.61 0.64 0.67 0.72 0.78 0.82 0.83 0.87 0.93 0.94 0.94 0.95 0.98 0.95 0.93 0.89 0.85 0.84 0.84
0.00 0.00 0.00 0.00 0.00 0.00 0.00 0.00 0.00 0.00 0.01 0.01 0.01 0.01 0.01 0.02 0.05 0.08 0.12 0.15 0.19 0.23 0.29 0.33 0.37 0.41 0.43 0.45 0.45 0.46 0.49 0.53 0.57 0.62 0.65 0.68 0.69 0.70 0.71 0.71 0.69 0.65 0.61
0.00 0.00 0.00 0.00 0.00 0.00 0.00 0.00 0.00 0.00 0.00 0.01 0.01 0.00 0.00 0.01 0.01 0.01 0.02 0.05 0.06 0.08 0.12 0.15 0.18 0.21 0.23 0.26 0.28 0.29 0.29 0.31 0.33 0.37 0.40 0.43 0.46 0.48 0.48 0.48 0.48 0.48 0.48
0.00 0.00 0.00 0.00 0.00 0.00 0.00 0.00 0.00 0.00 0.01 0.01 0.01 0.01 0.01 0.01 0.01 0.01 0.01 0.02 0.01 0.01 0.01 0.02 0.03 0.05 0.07 0.10 0.14 0.18 0.21 0.25 0.26 0.24 0.24 0.24 0.27 0.31 0.34 0.36 0.37 0.37 0.37
0.00 0.00 0.00 0.00 0.00 0.00 0.00 0.01 0.00 0.00 0.00 0.01 0.01 0.01 0.01 0.01 0.00 0.00 0.00 0.00 0.00 0.00 0.00 0.00 0.00 0.00 0.00 0.00 0.01 0.02 0.05 0.09 0.10 0.12 0.14 0.16 0.16 0.18 0.20 0.23 0.26 0.30 0.31
0.00 0.00 0.00 0.01 0.01 0.01 0.01 0.01 0.01 0.01 0.01 0.01 0.01 0.01 0.01 0.00 0.00 0.00 0.00 0.00 0.00 0.00 0.00 0.00 0.00 0.00 0.00 0.00 0.00 0.00 0.00 0.00 0.01 0.01 0.02 0.05 0.07 0.10 0.13 0.15 0.17 0.19 0.22
0.00 0.00 0.00 0.01 0.01 0.01 0.01 0.01 0.01 0.01 0.01 0.01 0.01 0.01 0.01 0.01 0.01 0.00 0.00 0.00 0.00 0.00 0.00 0.00 0.00 0.00 0.00 0.00 0.00 0.00 0.00 0.00 0.00 0.00 0.00 0.00 0.01 0.01 0.02 0.05 0.09 0.13 0.17

GFSGL_prec_precacc24_153.txt.gz
Total_Precipitation_Accumulation
0.27 0.34 0.51 0.77 0.71 0.82 0.88 0.80 1.06 1.31 1.10 0.86 0.69 0.92 0.92 1.01 1.11 0.85 0.87 0.81 0.64 0.45 0.46 0.50 0.42 0.41 0.56 0.54 0.50 0.54 0.72 0.65 0.36 0.09 0.17 0.24 0.19 0.10 0.02 0.03 0.06 0.04 0.05
0.45 0.42 0.50 0.68 0.85 0.83 0.80 0.74 0.50 1.31 1.58 1.47 1.34 1.03 1.45 1.28 1.08 1.00 0.85 0.68 0.82 0.71 0.58 0.52 0.52 0.47 0.44 0.42 0.47 0.43 0.37 0.43 0.43 0.16 0.22 0.23 0.16 0.15 0.09 0.05 0.03 0.03 0.03
0.58 0.57 0.53 0.62 0.85 0.92 0.94 0.97 0.97 0.88 1.39 1.42 1.62 1.69 1.28 1.57 1.11 0.83 0.80 0.91 0.66 0.91 0.88 0.67 0.56 0.64 0.60 0.46 0.37 0.35 0.32 0.30 0.29 0.25 0.17 0.21 0.18 0.14 0.07 0.04 0.04 0.04 0.03
0.70 0.68 0.70 0.76 0.72 0.83 0.94 1.16 1.41 1.45 1.38 1.36 1.47 1.47 1.25 0.94 1.15 0.99 0.82 0.66 0.71 0.51 0.55 0.76 0.67 0.59 0.75 0.65 0.51 0.41 0.33 0.29 0.25 0.27 0.26 0.21 0.16 0.11 0.07 0.05 0.07 0.08 0.06
0.70 0.55 0.48 0.58 0.79 0.62 0.57 0.74 1.13 1.09 1.13 1.34 1.38 1.42 1.53 1.18 0.88 0.95 0.99 0.75 0.72 0.70 0.49 0.41 0.47 0.55 0.55 0.52 0.37 0.35 0.38 0.37 0.30 0.27 0.25 0.23 0.16 0.08 0.05 0.05 0.03 0.05 0.12
0.30 0.24 0.32 0.27 0.33 0.38 0.43 0.41 0.46 0.63 0.76 0.84 1.03 1.40 1.63 1.76 1.37 0.97 0.85 0.91 0.81 0.71 0.70 0.55 0.40 0.37 0.39 0.43 0.53 0.44 0.31 0.39 0.44 0.38 0.24 0.20 0.13 0.09 0.07 0.05 0.05 0.08 0.11
0.05 0.08 0.06 0.05 0.06 0.05 0.09 0.12 0.15 0.23 0.35 0.51 0.66 0.76 0.96 1.27 1.51 1.39 1.16 0.95 0.86 0.85 0.83 0.70 0.55 0.44 0.43 0.32 0.34 0.38 0.37 0.39 0.34 0.38 0.43 0.29 0.27 0.24 0.12 0.07 0.06 0.09 0.09
0.00 0.00 0.02 0.02 0.01 0.01 0.01 0.00 0.00 0.01 0.02 0.06 0.14 0.23 0.31 0.43 0.62 0.86 1.07 1.09 1.09 0.96 0.83 0.85 0.77 0.61 0.54 0.55 0.49 0.40 0.32 0.32 0.35 0.32 0.32 0.36 0.36 0.36 0.23 0.16 0.14 0.15 0.17
0.01 0.01 0.01 0.02 0.00 0.00 0.00 0.00 0.00 0.00 0.00 0.00 0.00 0.02 0.04 0.08 0.12 0.18 0.22 0.40 0.59 0.79 0.86 0.82 0.78 0.72 0.70 0.63 0.58 0.67 0.70 0.61 0.56 0.49 0.43 0.47 0.50 0.42 0.38 0.31 0.24 0.21 0.18
0.03 0.02 0.01 0.02 0.02 0.00 0.00 0.00 0.00 0.00 0.00 0.00 0.00 0.00 0.02 0.03 0.04 0.05 0.06 0.06 0.11 0.20 0.26 0.30 0.39 0.45 0.56 0.52 0.47 0.47 0.55 0.71 0.76 0.71 0.54 0.43 0.41 0.42 0.47 0.32 0.28 0.37 0.29
0.02 0.01 0.01 0.01 0.03 0.01 0.00 0.00 0.00 0.00 0.00 0.00 0.00 0.00 0.01 0.03 0.03 0.02 0.02 0.02 0.05 0.06 0.07 0.10 0.14 0.24 0.23 0.29 0.28 0.25 0.35 0.39 0.43 0.51 0.70 0.80 0.77 0.68 0.59 0.53 0.45 0.46 0.40
0.00 0.00 0.01 0.01 0.02 0.03 0.00 0.00 0.00 0.00 0.00 0.00 0.00 0.00 0.00 0.01 0.02 0.01 0.01 0.02 0.05 0.05 0.05 0.05 0.11 0.18 0.17 0.21 0.25 0.29 0.32 0.29 0.26 0.34 0.36 0.42 0.57 0.67 0.66 0.58 0.52 0.55 0.53
0.00 0.00 0.01 0.01 0.01 0.03 0.02 0.01 0.01 0.00 0.01 0.01 0.01 0.01 0.01 0.01 0.01 0.02 0.02 0.04 0.06 0.06 0.12 0.16 0.22 0.24 0.20 0.18 0.24 0.25 0.25 0.23 0.18 0.23 0.31 0.32 0.29 0.36 0.47 0.47 0.43 0.39 0.39
0.01 0.01 0.00 0.01 0.01 0.01 0.05 0.03 0.02 0.03 0.02 0.03 0.03 0.04 0.02 0.01 0.04 0.04 0.03 0.04 0.05 0.10 0.17 0.19 0.20 0.21 0.26 0.27 0.29 0.24 0.18 0.21 0.27 0.27 0.25 0.28 0.32 0.34 0.38 0.43 0.49 0.50 0.52
0.00 0.01 0.00 0.01 0.00 0.01 0.02 0.11 0.05 0.05 0.05 0.07 0.11 0.08 0.11 0.13 0.12 0.07 0.06 0.07 0.09 0.14 0.18 0.22 0.28 0.27 0.27 0.28 0.23 0.25 0.31 0.31 0.29 0.28 0.29 0.32 0.37 0.42 0.44 0.43 0.42 0.41 0.45
0.01 0.01 0.01 0.01 0.01 0.01 0.01 0.01 0.03 0.03 0.01 0.01 0.03 0.05 0.05 0.08 0.04 0.04 0.07 0.10 0.11 0.15 0.19 0.27 0.29 0.36 0.40 0.39 0.38 0.31 0.24 0.31 0.32 0.31 0.39 0.42 0.43 0.42 0.44 0.43 0.45 0.48 0.49
0.02 0.01 0.01 0.01 0.01 0.01 0.01 0.01 0.01 0.01 0.00 0.00 0.01 0.01 0.03 0.04 0.03 0.03 0.06 0.16 0.21 0.18 0.22 0.32 0.42 0.43 0.45 0.46 0.45 0.48 0.48 0.43 0.35 0.32 0.36 0.44 0.49 0.54 0.63 0.55 0.54 0.52 0.57
0.01 0.01 0.01 0.01 0.01 0.01 0.01 0.01 0.01 0.01 0.01 0.01 0.00 0.01 0.01 0.03 0.03 0.04 0.06 0.09 0.18 0.29 0.39 0.45 0.50 0.58 0.65 0.67 0.68 0.68 0.66 0.64 0.65 0.68 0.60 0.54 0.56 0.60 0.62 0.62 0.64 0.63 0.66
0.01 0.00 0.01 0.01 0.00 0.00 0.00 0.00 0.00 0.00 0.01 0.01 0.00 0.00 0.01 0.03 0.03 0.03 0.04 0.08 0.14 0.22 0.33 0.42 0.51 0.56 0.64 0.71 0.77 0.83 0.89 0.95 0.94 0.90 0.94 0.95 0.92 0.82 0.81 0.83 0.82 0.81 0.74
0.01 0.00 0.00 0.00 0.00 0.00 0.00 0.00 0.00 0.00 0.00 0.01 0.01 0.01 0.00 0.01 0.01 0.03 0.06 0.08 0.11 0.17 0.24 0.31 0.38 0.44 0.49 0.55 0.61 0.67 0.71 0.77 0.85 0.88 0.90 0.91 0.96 0.94 0.92 0.88 0.85 0.85 0.84
0.00 0.00 0.00 0.00 0.00 0.00 0.00 0.00 0.00 0.00 0.01 0.01 0.01 0.01 0.00 0.01 0.01 0.02 0.05 0.07 0.10 0.13 0.17 0.22 0.26 0.31 0.34 0.38 0.39 0.41 0.45 0.49 0.54 0.59 0.63 0.67 0.68 0.69 0.71 0.71 0.69 0.65 0.61
0.00 0.00 0.00 0.00 0.00 0.00 0.00 0.00 0.00 0.00 0.00 0.01 0.01 0.00 0.00 0.01 0.01 0.01 0.01 0.03 0.04 0.05 0.08 0.11 0.14 0.17 0.20 0.23 0.26 0.27 0.28 0.30 0.32 0.36 0.39 0.42 0.45 0.47 0.48 0.48 0.48 0.48 0.48
0.00 0.00 0.00 0.00 0.00 0.00 0.00 0.00 0.00 0.00 0.01 0.01 0.01 0.01 0.01 0.01 0.01 0.01 0.01 0.02 0.01 0.01 0.01 0.01 0.03 0.04 0.06 0.09 0.13 0.17 0.20 0.24 0.25 0.24 0.24 0.24 0.27 0.31 0.34 0.36 0.37 0.37 0.37
0.00 0.00 0.00 0.00 0.00 0.00 0.00 0.01 0.00 0.00 0.00 0.01 0.01 0.01 0.01 0.01 0.00 0.00 0.00 0.00 0.00 0.00 0.00 0.00 0.00 0.00 0.00 0.00 0.01 0.02 0.05 0.09 0.10 0.12 0.14 0.16 0.16 0.18 0.20 0.23 0.26 0.30 0.31
0.00 0.00 0.00 0.01 0.01 0.01 0.01 0.01 0.01 0.01 0.01 0.01 0.01 0.01 0.01 0.00 0.00 0.00 0.00 0.00 0.00 0.00 0.00 0.00 0.00 0.00 0.00 0.00 0.00 0.00 0.00 0.00 0.01 0.01 0.02 0.05 0.07 0.10 0.13 0.15 0.17 0.19 0.22
0.00 0.00 0.00 0.01 0.01 0.01 0.01 0.01 0.01 0.01 0.01 0.01 0.01 0.01 0.01 0.01 0.01 0.00 0.00 0.00 0.00 0.00 0.00 0.00 0.00 0.00 0.00 0.00 0.00 0.00 0.00 0.00 0.00 0.00 0.00 0.00 0.01 0.01 0.02 0.05 0.09 0.13 0.17